<?xml version='1.0' encoding='UTF-8'?><gpx version="1.1" creator="JPX - https://github.com/jenetics/jpx" xmlns="http://www.topografix.com/GPX/1/1"><trk><trkseg><trkpt lat="46.59490934875194" lon="6.553845348719697"><ele>504.0</ele><time>2026-04-11T10:14:30.002Z</time></trkpt><trkpt lat="46.59512046866247" lon="6.553833431834502"><ele>504.0</ele><time>2026-04-11T10:14:31.002Z</time></trkpt><trkpt lat="46.59534039444483" lon="6.553820845090714"><ele>504.0</ele><time>2026-04-11T10:14:32.002Z</time></trkpt><trkpt lat="46.595557722189525" lon="6.5538120974115035"><ele>504.0</ele><time>2026-04-11T10:14:33.002Z</time></trkpt><trkpt lat="46.59577120855793" lon="6.553802066477842"><ele>504.0</ele><time>2026-04-11T10:14:34.002Z</time></trkpt><trkpt lat="46.59598788002784" lon="6.553790948493223"><ele>504.0</ele><time>2026-04-11T10:14:35.002Z</time></trkpt><trkpt lat="46.59620526138583" lon="6.553779070612865"><ele>505.33333333333337</ele><time>2026-04-11T10:14:36.002Z</time></trkpt><trkpt lat="46.59642159078093" lon="6.5537651745916765"><ele>506.6666666666667</ele><time>2026-04-11T10:14:37.002Z</time></trkpt><trkpt lat="46.59663550562766" lon="6.5537517453269345"><ele>508.0</ele><time>2026-04-11T10:14:38.002Z</time></trkpt><trkpt lat="46.596848618902065" lon="6.553739764004182"><ele>509.0</ele><time>2026-04-11T10:14:39.002Z</time></trkpt><trkpt lat="46.59706156033895" lon="6.55372812929908"><ele>510.0</ele><time>2026-04-11T10:14:40.002Z</time></trkpt><trkpt lat="46.5972754623567" lon="6.553718614296517"><ele>511.0</ele><time>2026-04-11T10:14:41.002Z</time></trkpt><trkpt lat="46.597486281921775" lon="6.553708063042613"><ele>510.33333333333337</ele><time>2026-04-11T10:14:42.002Z</time></trkpt><trkpt lat="46.59769684568935" lon="6.553700848412556"><ele>509.66666666666663</ele><time>2026-04-11T10:14:43.002Z</time></trkpt><trkpt lat="46.59790771345748" lon="6.553694827397394"><ele>509.0</ele><time>2026-04-11T10:14:44.002Z</time></trkpt><trkpt lat="46.59811812592732" lon="6.553691404048266"><ele>508.66666666666663</ele><time>2026-04-11T10:14:45.002Z</time></trkpt><trkpt lat="46.59833127425654" lon="6.55368964240653"><ele>508.33333333333337</ele><time>2026-04-11T10:14:46.002Z</time></trkpt><trkpt lat="46.59854805181696" lon="6.553694121578652"><ele>508.0</ele><time>2026-04-11T10:14:47.002Z</time></trkpt><trkpt lat="46.59876658455146" lon="6.553696259480193"><ele>507.6666666666667</ele><time>2026-04-11T10:14:48.002Z</time></trkpt><trkpt lat="46.598981865156404" lon="6.5536987835600655"><ele>507.33333333333337</ele><time>2026-04-11T10:14:49.002Z</time></trkpt><trkpt lat="46.59919532213322" lon="6.5537040371482895"><ele>507.0</ele><time>2026-04-11T10:14:50.002Z</time></trkpt><trkpt lat="46.59940737145308" lon="6.553711385708836"><ele>508.0</ele><time>2026-04-11T10:14:51.002Z</time></trkpt><trkpt lat="46.59961592389183" lon="6.553718871599896"><ele>509.0</ele><time>2026-04-11T10:14:52.002Z</time></trkpt><trkpt lat="46.5998232863951" lon="6.553726521821496"><ele>510.0</ele><time>2026-04-11T10:14:53.002Z</time></trkpt><trkpt lat="46.600029488821725" lon="6.55373587259393"><ele>510.0</ele><time>2026-04-11T10:14:54.002Z</time></trkpt><trkpt lat="46.600237730766274" lon="6.55374280238504"><ele>510.0</ele><time>2026-04-11T10:14:55.002Z</time></trkpt><trkpt lat="46.60044649117933" lon="6.553751753763749"><ele>510.0</ele><time>2026-04-11T10:14:56.002Z</time></trkpt><trkpt lat="46.60065829197144" lon="6.553762743280287"><ele>510.33333333333337</ele><time>2026-04-11T10:14:57.002Z</time></trkpt><trkpt lat="46.60087197072559" lon="6.553778033404413"><ele>510.6666666666667</ele><time>2026-04-11T10:14:58.002Z</time></trkpt><trkpt lat="46.60108859644051" lon="6.553796489101541"><ele>511.0</ele><time>2026-04-11T10:14:59.002Z</time></trkpt><trkpt lat="46.60130380041369" lon="6.55381971271487"><ele>511.0</ele><time>2026-04-11T10:15:00.002Z</time></trkpt><trkpt lat="46.60152095756864" lon="6.553840603782471"><ele>511.0</ele><time>2026-04-11T10:15:01.002Z</time></trkpt><trkpt lat="46.601742317781635" lon="6.553863372475561"><ele>511.0</ele><time>2026-04-11T10:15:02.002Z</time></trkpt><trkpt lat="46.60196905904543" lon="6.553887003425505"><ele>512.5</ele><time>2026-04-11T10:15:03.002Z</time></trkpt><trkpt lat="46.6021956814695" lon="6.553914039447245"><ele>514.0</ele><time>2026-04-11T10:15:04.002Z</time></trkpt><trkpt lat="46.60242455263256" lon="6.553940529761132"><ele>514.0</ele><time>2026-04-11T10:15:05.002Z</time></trkpt><trkpt lat="46.60265702838548" lon="6.55396731805353"><ele>514.0</ele><time>2026-04-11T10:15:06.002Z</time></trkpt><trkpt lat="46.60289362103535" lon="6.553999568677626"><ele>514.0</ele><time>2026-04-11T10:15:07.002Z</time></trkpt><trkpt lat="46.60312523895744" lon="6.554040327379878"><ele>514.0</ele><time>2026-04-11T10:15:08.002Z</time></trkpt><trkpt lat="46.603351527526534" lon="6.554077299901903"><ele>514.0</ele><time>2026-04-11T10:15:09.002Z</time></trkpt><trkpt lat="46.603579704452144" lon="6.554109866390574"><ele>514.0</ele><time>2026-04-11T10:15:10.001Z</time></trkpt><trkpt lat="46.60380962819726" lon="6.554143674420268"><ele>514.3333333333334</ele><time>2026-04-11T10:15:11.001Z</time></trkpt><trkpt lat="46.60403528745548" lon="6.554182670845451"><ele>514.6666666666666</ele><time>2026-04-11T10:15:12.001Z</time></trkpt><trkpt lat="46.60425158565558" lon="6.554223883386716"><ele>515.0</ele><time>2026-04-11T10:15:13.001Z</time></trkpt><trkpt lat="46.60446961148765" lon="6.554267885497784"><ele>515.0</ele><time>2026-04-11T10:15:14.001Z</time></trkpt><trkpt lat="46.60468313051243" lon="6.554311250290314"><ele>515.0</ele><time>2026-04-11T10:15:15.001Z</time></trkpt><trkpt lat="46.60489287676735" lon="6.55435643265522"><ele>515.0</ele><time>2026-04-11T10:15:16.001Z</time></trkpt><trkpt lat="46.60510240029899" lon="6.554399346156277"><ele>515.0</ele><time>2026-04-11T10:15:17.001Z</time></trkpt><trkpt lat="46.605311980878554" lon="6.554442460794573"><ele>515.0</ele><time>2026-04-11T10:15:18.001Z</time></trkpt><trkpt lat="46.60551952665468" lon="6.554486965333339"><ele>515.0</ele><time>2026-04-11T10:15:19.001Z</time></trkpt><trkpt lat="46.60572752697026" lon="6.554534118357888"><ele>516.6666666666666</ele><time>2026-04-11T10:15:20.001Z</time></trkpt><trkpt lat="46.605938013942705" lon="6.554583453752843"><ele>518.3333333333334</ele><time>2026-04-11T10:15:21.001Z</time></trkpt><trkpt lat="46.60614747049026" lon="6.554638138418044"><ele>520.0</ele><time>2026-04-11T10:15:22.001Z</time></trkpt><trkpt lat="46.60635654061788" lon="6.5546978113545515"><ele>520.0</ele><time>2026-04-11T10:15:23.001Z</time></trkpt><trkpt lat="46.60657282969858" lon="6.554759003599324"><ele>520.0</ele><time>2026-04-11T10:15:24.001Z</time></trkpt><trkpt lat="46.60678927796679" lon="6.554813989732005"><ele>520.0</ele><time>2026-04-11T10:15:25.001Z</time></trkpt><trkpt lat="46.60700376432452" lon="6.554872548590956"><ele>520.6666666666667</ele><time>2026-04-11T10:15:26.001Z</time></trkpt><trkpt lat="46.60721770575548" lon="6.554934311424946"><ele>521.3333333333334</ele><time>2026-04-11T10:15:27.001Z</time></trkpt><trkpt lat="46.60743241981128" lon="6.55499725675396"><ele>522.0</ele><time>2026-04-11T10:15:28.001Z</time></trkpt><trkpt lat="46.607650308660155" lon="6.55505845606476"><ele>520.6666666666666</ele><time>2026-04-11T10:15:29.001Z</time></trkpt><trkpt lat="46.60786863801353" lon="6.555121923856001"><ele>519.3333333333333</ele><time>2026-04-11T10:15:30.001Z</time></trkpt><trkpt lat="46.60808746260147" lon="6.55518916481401"><ele>518.0</ele><time>2026-04-11T10:15:31.001Z</time></trkpt><trkpt lat="46.60830535603801" lon="6.555259342609635"><ele>518.0</ele><time>2026-04-11T10:15:32.001Z</time></trkpt><trkpt lat="46.60852368430406" lon="6.55533452597875"><ele>518.0</ele><time>2026-04-11T10:15:33.001Z</time></trkpt><trkpt lat="46.608743428520384" lon="6.555409087602655"><ele>518.0</ele><time>2026-04-11T10:15:34.001Z</time></trkpt><trkpt lat="46.60896274569381" lon="6.555485119051153"><ele>518.0</ele><time>2026-04-11T10:15:35.001Z</time></trkpt><trkpt lat="46.609181974738966" lon="6.55556166955693"><ele>518.0</ele><time>2026-04-11T10:15:36.001Z</time></trkpt><trkpt lat="46.609400038716686" lon="6.555640030983613"><ele>518.0</ele><time>2026-04-11T10:15:37.001Z</time></trkpt><trkpt lat="46.60961821735121" lon="6.555719630642335"><ele>517.5</ele><time>2026-04-11T10:15:38.001Z</time></trkpt><trkpt lat="46.60983801099105" lon="6.555800300446342"><ele>517.0</ele><time>2026-04-11T10:15:39.001Z</time></trkpt><trkpt lat="46.61005744909185" lon="6.5558823451688735"><ele>517.0</ele><time>2026-04-11T10:15:40.001Z</time></trkpt><trkpt lat="46.61027545979489" lon="6.555968803768447"><ele>517.0</ele><time>2026-04-11T10:15:41.001Z</time></trkpt><trkpt lat="46.6104941058802" lon="6.556056291638916"><ele>517.5</ele><time>2026-04-11T10:15:42.001Z</time></trkpt><trkpt lat="46.61071274405215" lon="6.556145428878798"><ele>518.0</ele><time>2026-04-11T10:15:43.001Z</time></trkpt><trkpt lat="46.610929207372294" lon="6.556236733333819"><ele>518.5</ele><time>2026-04-11T10:15:44.001Z</time></trkpt><trkpt lat="46.6111454990093" lon="6.556329735105805"><ele>519.0</ele><time>2026-04-11T10:15:45.001Z</time></trkpt><trkpt lat="46.61136178393509" lon="6.556422880188804"><ele>519.0</ele><time>2026-04-11T10:15:46.001Z</time></trkpt><trkpt lat="46.61157612889228" lon="6.556518442395355"><ele>519.0</ele><time>2026-04-11T10:15:47.001Z</time></trkpt><trkpt lat="46.611792248285575" lon="6.556612971925472"><ele>518.0</ele><time>2026-04-11T10:15:48.001Z</time></trkpt><trkpt lat="46.612007458365035" lon="6.55670885504693"><ele>517.0</ele><time>2026-04-11T10:15:49.001Z</time></trkpt><trkpt lat="46.612226023842254" lon="6.556806801696218"><ele>517.0</ele><time>2026-04-11T10:15:50.001Z</time></trkpt><trkpt lat="46.612442004576906" lon="6.5569023518494545"><ele>517.0</ele><time>2026-04-11T10:15:51.001Z</time></trkpt><trkpt lat="46.61265819011464" lon="6.557000536573079"><ele>517.0</ele><time>2026-04-11T10:15:52.001Z</time></trkpt><trkpt lat="46.61287439033125" lon="6.557102062165045"><ele>517.0</ele><time>2026-04-11T10:15:53.001Z</time></trkpt><trkpt lat="46.61309262427631" lon="6.557203081489868"><ele>517.0</ele><time>2026-04-11T10:15:54.001Z</time></trkpt><trkpt lat="46.613312400923824" lon="6.557301616396602"><ele>517.0</ele><time>2026-04-11T10:15:55.001Z</time></trkpt><trkpt lat="46.61353239033679" lon="6.5573936305146745"><ele>517.5</ele><time>2026-04-11T10:15:56.001Z</time></trkpt><trkpt lat="46.61375128356425" lon="6.557489295398634"><ele>518.0</ele><time>2026-04-11T10:15:57.001Z</time></trkpt><trkpt lat="46.61396921808408" lon="6.557591268766818"><ele>518.0</ele><time>2026-04-11T10:15:58.002Z</time></trkpt><trkpt lat="46.61418576757778" lon="6.557696264428598"><ele>518.0</ele><time>2026-04-11T10:15:59.002Z</time></trkpt><trkpt lat="46.614397705158694" lon="6.5577969902945865"><ele>519.0</ele><time>2026-04-11T10:16:00.002Z</time></trkpt><trkpt lat="46.6146101016438" lon="6.557898018247434"><ele>520.0</ele><time>2026-04-11T10:16:01.002Z</time></trkpt><trkpt lat="46.614826865789" lon="6.557995946008434"><ele>520.0</ele><time>2026-04-11T10:16:02.002Z</time></trkpt><trkpt lat="46.61504888519074" lon="6.558089874493305"><ele>520.0</ele><time>2026-04-11T10:16:03.002Z</time></trkpt><trkpt lat="46.61527416229588" lon="6.558186975173466"><ele>519.0</ele><time>2026-04-11T10:16:04.002Z</time></trkpt><trkpt lat="46.615501501163905" lon="6.558285902433548"><ele>518.0</ele><time>2026-04-11T10:16:05.002Z</time></trkpt><trkpt lat="46.61573234284434" lon="6.558381755877184"><ele>518.0</ele><time>2026-04-11T10:16:06.002Z</time></trkpt><trkpt lat="46.615960443737784" lon="6.558477016618079"><ele>518.0</ele><time>2026-04-11T10:16:07.002Z</time></trkpt><trkpt lat="46.61617874861697" lon="6.5585711525372785"><ele>517.5</ele><time>2026-04-11T10:16:08.002Z</time></trkpt><trkpt lat="46.616397658136925" lon="6.5586633183197725"><ele>517.0</ele><time>2026-04-11T10:16:09.002Z</time></trkpt><trkpt lat="46.61661943782642" lon="6.5587500214826235"><ele>518.0</ele><time>2026-04-11T10:16:10.002Z</time></trkpt><trkpt lat="46.6168412697912" lon="6.5588364938016355"><ele>519.0</ele><time>2026-04-11T10:16:11.002Z</time></trkpt><trkpt lat="46.617063930145235" lon="6.558918471194104"><ele>519.0</ele><time>2026-04-11T10:16:12.002Z</time></trkpt><trkpt lat="46.61728667339983" lon="6.558999369339716"><ele>519.0</ele><time>2026-04-11T10:16:13.002Z</time></trkpt><trkpt lat="46.617508507554625" lon="6.5590767558722165"><ele>519.0</ele><time>2026-04-11T10:16:14.002Z</time></trkpt><trkpt lat="46.61773003827299" lon="6.55915516322774"><ele>519.0</ele><time>2026-04-11T10:16:15.002Z</time></trkpt><trkpt lat="46.61795111490371" lon="6.559238914262541"><ele>519.5</ele><time>2026-04-11T10:16:16.002Z</time></trkpt><trkpt lat="46.618173452765504" lon="6.559320578247212"><ele>520.0</ele><time>2026-04-11T10:16:17.002Z</time></trkpt><trkpt lat="46.6183952364142" lon="6.5593973544128215"><ele>520.0</ele><time>2026-04-11T10:16:18.002Z</time></trkpt><trkpt lat="46.61862028109459" lon="6.55946810178887"><ele>520.0</ele><time>2026-04-11T10:16:19.002Z</time></trkpt><trkpt lat="46.61884662085602" lon="6.559536373335945"><ele>521.0</ele><time>2026-04-11T10:16:20.002Z</time></trkpt><trkpt lat="46.61907092469762" lon="6.559607018986538"><ele>522.0</ele><time>2026-04-11T10:16:21.002Z</time></trkpt><trkpt lat="46.6192936837952" lon="6.5596759774537885"><ele>524.5</ele><time>2026-04-11T10:16:22.002Z</time></trkpt><trkpt lat="46.61951628685837" lon="6.559743189652389"><ele>527.0</ele><time>2026-04-11T10:16:23.002Z</time></trkpt><trkpt lat="46.6197373776897" lon="6.5598096029830195"><ele>527.0</ele><time>2026-04-11T10:16:24.002Z</time></trkpt><trkpt lat="46.61995945582487" lon="6.559871562158335"><ele>527.0</ele><time>2026-04-11T10:16:25.002Z</time></trkpt><trkpt lat="46.62018214902143" lon="6.559928071872942"><ele>528.0</ele><time>2026-04-11T10:16:26.002Z</time></trkpt><trkpt lat="46.62040478191587" lon="6.559983102719641"><ele>529.0</ele><time>2026-04-11T10:16:27.002Z</time></trkpt><trkpt lat="46.62062509924915" lon="6.560040277793209"><ele>529.0</ele><time>2026-04-11T10:16:28.002Z</time></trkpt><trkpt lat="46.620847259011256" lon="6.560095353294797"><ele>529.0</ele><time>2026-04-11T10:16:29.002Z</time></trkpt><trkpt lat="46.6210696958437" lon="6.560149640407875"><ele>531.5</ele><time>2026-04-11T10:16:30.002Z</time></trkpt><trkpt lat="46.62129220561999" lon="6.560205120434039"><ele>534.0</ele><time>2026-04-11T10:16:31.002Z</time></trkpt><trkpt lat="46.62151365398318" lon="6.560258064925084"><ele>534.0</ele><time>2026-04-11T10:16:32.002Z</time></trkpt><trkpt lat="46.62173610467617" lon="6.560308250585089"><ele>534.0</ele><time>2026-04-11T10:16:33.002Z</time></trkpt><trkpt lat="46.62195887461205" lon="6.560355744289017"><ele>534.6666666666666</ele><time>2026-04-11T10:16:34.002Z</time></trkpt><trkpt lat="46.62218095458388" lon="6.5603990074464935"><ele>535.3333333333333</ele><time>2026-04-11T10:16:35.002Z</time></trkpt><trkpt lat="46.622402541963694" lon="6.560441970229303"><ele>536.0</ele><time>2026-04-11T10:16:36.002Z</time></trkpt><trkpt lat="46.62262540396674" lon="6.560479586458538"><ele>536.6666666666666</ele><time>2026-04-11T10:16:37.002Z</time></trkpt><trkpt lat="46.622845767471496" lon="6.5605183385143295"><ele>537.3333333333334</ele><time>2026-04-11T10:16:38.002Z</time></trkpt><trkpt lat="46.62306665732357" lon="6.560559309226691"><ele>538.0</ele><time>2026-04-11T10:16:39.002Z</time></trkpt><trkpt lat="46.6232908537125" lon="6.560598973104999"><ele>538.0</ele><time>2026-04-11T10:16:40.002Z</time></trkpt><trkpt lat="46.6235126055822" lon="6.560634662239022"><ele>538.0</ele><time>2026-04-11T10:16:41.002Z</time></trkpt><trkpt lat="46.62373048505276" lon="6.5606684513213"><ele>538.0</ele><time>2026-04-11T10:16:42.002Z</time></trkpt><trkpt lat="46.62395098050442" lon="6.5606999507514026"><ele>539.0</ele><time>2026-04-11T10:16:43.002Z</time></trkpt><trkpt lat="46.624170278286094" lon="6.56072958853549"><ele>540.0</ele><time>2026-04-11T10:16:44.002Z</time></trkpt><trkpt lat="46.624390610100484" lon="6.560756313485232"><ele>541.0</ele><time>2026-04-11T10:16:45.002Z</time></trkpt><trkpt lat="46.62461234208967" lon="6.560783566116921"><ele>542.0</ele><time>2026-04-11T10:16:46.002Z</time></trkpt><trkpt lat="46.62483651190118" lon="6.56081064270175"><ele>543.0</ele><time>2026-04-11T10:16:47.002Z</time></trkpt><trkpt lat="46.62506066847888" lon="6.560836607256478"><ele>543.0</ele><time>2026-04-11T10:16:48.002Z</time></trkpt><trkpt lat="46.62528522874201" lon="6.560859410992497"><ele>543.0</ele><time>2026-04-11T10:16:49.002Z</time></trkpt><trkpt lat="46.625512426269125" lon="6.560878361537516"><ele>541.0</ele><time>2026-04-11T10:16:50.002Z</time></trkpt><trkpt lat="46.625740288698545" lon="6.560897888489618"><ele>539.0</ele><time>2026-04-11T10:16:51.002Z</time></trkpt><trkpt lat="46.62596853326931" lon="6.560916371011629"><ele>541.0</ele><time>2026-04-11T10:16:52.002Z</time></trkpt><trkpt lat="46.62619746583265" lon="6.5609340298020475"><ele>543.0</ele><time>2026-04-11T10:16:53.002Z</time></trkpt><trkpt lat="46.62642664976181" lon="6.560952259467147"><ele>543.0</ele><time>2026-04-11T10:16:54.002Z</time></trkpt><trkpt lat="46.6266555364293" lon="6.560967737106235"><ele>543.0</ele><time>2026-04-11T10:16:55.002Z</time></trkpt><trkpt lat="46.62688354257222" lon="6.560980281438571"><ele>543.5</ele><time>2026-04-11T10:16:56.002Z</time></trkpt><trkpt lat="46.62711043127266" lon="6.560991630082293"><ele>544.0</ele><time>2026-04-11T10:16:57.002Z</time></trkpt><trkpt lat="46.62733759803336" lon="6.560997501672722"><ele>544.0</ele><time>2026-04-11T10:16:58.002Z</time></trkpt><trkpt lat="46.62756380084579" lon="6.561004362079483"><ele>544.0</ele><time>2026-04-11T10:16:59.002Z</time></trkpt><trkpt lat="46.62778958461097" lon="6.561009003149263"><ele>545.5</ele><time>2026-04-11T10:17:00.002Z</time></trkpt><trkpt lat="46.628020139753495" lon="6.561011950640602"><ele>547.0</ele><time>2026-04-11T10:17:01.002Z</time></trkpt><trkpt lat="46.62825461508047" lon="6.561012747146383"><ele>547.0</ele><time>2026-04-11T10:17:02.002Z</time></trkpt><trkpt lat="46.628489659268226" lon="6.561016956256712"><ele>547.0</ele><time>2026-04-11T10:17:03.002Z</time></trkpt><trkpt lat="46.62872486035856" lon="6.561022646762025"><ele>548.5</ele><time>2026-04-11T10:17:04.001Z</time></trkpt><trkpt lat="46.62895890766608" lon="6.561022011494133"><ele>550.0</ele><time>2026-04-11T10:17:05.001Z</time></trkpt><trkpt lat="46.62919204589399" lon="6.561021741652428"><ele>550.0</ele><time>2026-04-11T10:17:06.001Z</time></trkpt><trkpt lat="46.62942455413716" lon="6.561017443416816"><ele>550.0</ele><time>2026-04-11T10:17:07.001Z</time></trkpt><trkpt lat="46.629655846644425" lon="6.561013635857671"><ele>552.0</ele><time>2026-04-11T10:17:08.001Z</time></trkpt><trkpt lat="46.62988886613953" lon="6.561012537657105"><ele>554.0</ele><time>2026-04-11T10:17:09.001Z</time></trkpt><trkpt lat="46.63012292851942" lon="6.561013851709688"><ele>555.5</ele><time>2026-04-11T10:17:10.001Z</time></trkpt><trkpt lat="46.63035980544644" lon="6.561014357649446"><ele>557.0</ele><time>2026-04-11T10:17:11.001Z</time></trkpt><trkpt lat="46.63059704632966" lon="6.56101586225737"><ele>557.0</ele><time>2026-04-11T10:17:12.001Z</time></trkpt><trkpt lat="46.63083189624955" lon="6.56102134524572"><ele>557.0</ele><time>2026-04-11T10:17:13.001Z</time></trkpt><trkpt lat="46.63106913451092" lon="6.56102572830504"><ele>559.5</ele><time>2026-04-11T10:17:14.001Z</time></trkpt><trkpt lat="46.631305484757185" lon="6.561027247894716"><ele>562.0</ele><time>2026-04-11T10:17:15.001Z</time></trkpt><trkpt lat="46.63153864422716" lon="6.561028219554406"><ele>562.0</ele><time>2026-04-11T10:17:16.001Z</time></trkpt><trkpt lat="46.631772759894645" lon="6.561034019407227"><ele>562.0</ele><time>2026-04-11T10:17:17.001Z</time></trkpt><trkpt lat="46.63200663461261" lon="6.561044924564231"><ele>563.5</ele><time>2026-04-11T10:17:18.001Z</time></trkpt><trkpt lat="46.632241335671075" lon="6.561056737100003"><ele>565.0</ele><time>2026-04-11T10:17:19.001Z</time></trkpt><trkpt lat="46.63247335320468" lon="6.5610705349354115"><ele>565.0</ele><time>2026-04-11T10:17:20.001Z</time></trkpt><trkpt lat="46.632706514638635" lon="6.561083512827489"><ele>565.0</ele><time>2026-04-11T10:17:21.001Z</time></trkpt><trkpt lat="46.63293837361906" lon="6.561098882100866"><ele>566.0</ele><time>2026-04-11T10:17:22.001Z</time></trkpt><trkpt lat="46.63317030573096" lon="6.561113069601975"><ele>567.0</ele><time>2026-04-11T10:17:23.001Z</time></trkpt><trkpt lat="46.63340094029854" lon="6.561133376502577"><ele>567.0</ele><time>2026-04-11T10:17:24.001Z</time></trkpt><trkpt lat="46.63363132820861" lon="6.561155874597046"><ele>567.0</ele><time>2026-04-11T10:17:25.001Z</time></trkpt><trkpt lat="46.63386200119561" lon="6.561177678000192"><ele>566.5</ele><time>2026-04-11T10:17:26.001Z</time></trkpt><trkpt lat="46.63409184749017" lon="6.561198471207738"><ele>566.0</ele><time>2026-04-11T10:17:27.001Z</time></trkpt><trkpt lat="46.63431995117981" lon="6.561225960761533"><ele>567.5</ele><time>2026-04-11T10:17:28.001Z</time></trkpt><trkpt lat="46.63455131025133" lon="6.561256515617248"><ele>569.0</ele><time>2026-04-11T10:17:29.001Z</time></trkpt><trkpt lat="46.634783415246645" lon="6.5612920690596"><ele>569.0</ele><time>2026-04-11T10:17:30.001Z</time></trkpt><trkpt lat="46.635013492813" lon="6.561328429170754"><ele>569.0</ele><time>2026-04-11T10:17:31.001Z</time></trkpt><trkpt lat="46.6352434781488" lon="6.561364849683228"><ele>569.5</ele><time>2026-04-11T10:17:32.001Z</time></trkpt><trkpt lat="46.63547548117588" lon="6.561399153891894"><ele>570.0</ele><time>2026-04-11T10:17:33.001Z</time></trkpt><trkpt lat="46.63570365574799" lon="6.561439496585742"><ele>570.0</ele><time>2026-04-11T10:17:34.001Z</time></trkpt><trkpt lat="46.6359330391914" lon="6.561482395225143"><ele>570.0</ele><time>2026-04-11T10:17:35.001Z</time></trkpt><trkpt lat="46.63616157020047" lon="6.561527004237024"><ele>570.5</ele><time>2026-04-11T10:17:36.001Z</time></trkpt><trkpt lat="46.636392469541626" lon="6.561572246816347"><ele>571.0</ele><time>2026-04-11T10:17:37.001Z</time></trkpt><trkpt lat="46.636625237267076" lon="6.56162130821987"><ele>571.0</ele><time>2026-04-11T10:17:38.001Z</time></trkpt><trkpt lat="46.6368594304592" lon="6.56167399094372"><ele>571.0</ele><time>2026-04-11T10:17:39.001Z</time></trkpt><trkpt lat="46.63709525560847" lon="6.561727777403614"><ele>571.5</ele><time>2026-04-11T10:17:40.001Z</time></trkpt><trkpt lat="46.63733228778995" lon="6.561784401843727"><ele>572.0</ele><time>2026-04-11T10:17:41.001Z</time></trkpt><trkpt lat="46.63757148674938" lon="6.561845807522546"><ele>573.0</ele><time>2026-04-11T10:17:42.001Z</time></trkpt><trkpt lat="46.63781098788636" lon="6.561909170976178"><ele>574.0</ele><time>2026-04-11T10:17:43.001Z</time></trkpt><trkpt lat="46.63804778986812" lon="6.56197385480129"><ele>576.5</ele><time>2026-04-11T10:17:44.001Z</time></trkpt><trkpt lat="46.63828188138003" lon="6.562037957510659"><ele>579.0</ele><time>2026-04-11T10:17:45.001Z</time></trkpt><trkpt lat="46.63850891964809" lon="6.562101104480456"><ele>579.5</ele><time>2026-04-11T10:17:46.001Z</time></trkpt><trkpt lat="46.63873927147815" lon="6.562167606829238"><ele>580.0</ele><time>2026-04-11T10:17:47.001Z</time></trkpt><trkpt lat="46.63896969637994" lon="6.562241945512497"><ele>580.0</ele><time>2026-04-11T10:17:48.001Z</time></trkpt><trkpt lat="46.63920091027418" lon="6.562321249502423"><ele>580.0</ele><time>2026-04-11T10:17:49.001Z</time></trkpt><trkpt lat="46.63943621792792" lon="6.562398003171173"><ele>582.5</ele><time>2026-04-11T10:17:50.001Z</time></trkpt><trkpt lat="46.63966407192534" lon="6.562475051454667"><ele>585.0</ele><time>2026-04-11T10:17:51.001Z</time></trkpt><trkpt lat="46.639890876693826" lon="6.562555242405145"><ele>585.0</ele><time>2026-04-11T10:17:52.001Z</time></trkpt><trkpt lat="46.640119366240356" lon="6.562638720084106"><ele>585.0</ele><time>2026-04-11T10:17:53.001Z</time></trkpt><trkpt lat="46.64034611604088" lon="6.562721499819528"><ele>584.0</ele><time>2026-04-11T10:17:54.001Z</time></trkpt><trkpt lat="46.6405695323483" lon="6.5628051901974604"><ele>583.0</ele><time>2026-04-11T10:17:55.001Z</time></trkpt><trkpt lat="46.64079060765885" lon="6.56289220979491"><ele>584.6666666666667</ele><time>2026-04-11T10:17:56.001Z</time></trkpt><trkpt lat="46.64100519271399" lon="6.562986862016278"><ele>586.3333333333334</ele><time>2026-04-11T10:17:57.001Z</time></trkpt><trkpt lat="46.64121691582779" lon="6.5630866384961"><ele>588.0</ele><time>2026-04-11T10:17:58.001Z</time></trkpt><trkpt lat="46.64142745099668" lon="6.563187115494083"><ele>588.0</ele><time>2026-04-11T10:17:59.001Z</time></trkpt><trkpt lat="46.64162918210127" lon="6.563283989368588"><ele>588.0</ele><time>2026-04-11T10:18:00.001Z</time></trkpt><trkpt lat="46.64182405137848" lon="6.5633740423047024"><ele>588.0</ele><time>2026-04-11T10:18:01.001Z</time></trkpt><trkpt lat="46.642015990782085" lon="6.563461637728189"><ele>588.0</ele><time>2026-04-11T10:18:02.001Z</time></trkpt><trkpt lat="46.642205946362125" lon="6.563550194284944"><ele>588.0</ele><time>2026-04-11T10:18:03.001Z</time></trkpt><trkpt lat="46.64239760360685" lon="6.563648271886973"><ele>588.0</ele><time>2026-04-11T10:18:04.001Z</time></trkpt><trkpt lat="46.64259077506289" lon="6.563755307226491"><ele>588.6666666666666</ele><time>2026-04-11T10:18:05.001Z</time></trkpt><trkpt lat="46.64278165694455" lon="6.563867141742268"><ele>589.3333333333333</ele><time>2026-04-11T10:18:06.001Z</time></trkpt><trkpt lat="46.642970174470626" lon="6.5639899442828"><ele>590.0</ele><time>2026-04-11T10:18:07.001Z</time></trkpt><trkpt lat="46.64315621807184" lon="6.564123584941288"><ele>590.0</ele><time>2026-04-11T10:18:08.001Z</time></trkpt><trkpt lat="46.64334317642777" lon="6.564265721955969"><ele>590.0</ele><time>2026-04-11T10:18:09.001Z</time></trkpt><trkpt lat="46.6435294991879" lon="6.56440670475239"><ele>590.0</ele><time>2026-04-11T10:18:10.001Z</time></trkpt><trkpt lat="46.64371362934362" lon="6.564541571703134"><ele>589.6666666666666</ele><time>2026-04-11T10:18:11.001Z</time></trkpt><trkpt lat="46.6438930553278" lon="6.5646716109897625"><ele>589.3333333333334</ele><time>2026-04-11T10:18:12.001Z</time></trkpt><trkpt lat="46.64406787720324" lon="6.564797627503241"><ele>589.0</ele><time>2026-04-11T10:18:13.001Z</time></trkpt><trkpt lat="46.64423880740296" lon="6.564923141535575"><ele>589.0</ele><time>2026-04-11T10:18:14.001Z</time></trkpt><trkpt lat="46.644409468567595" lon="6.565048772950572"><ele>589.0</ele><time>2026-04-11T10:18:15.001Z</time></trkpt><trkpt lat="46.6445782816407" lon="6.565173053525299"><ele>589.0</ele><time>2026-04-11T10:18:16.001Z</time></trkpt><trkpt lat="46.64474071085738" lon="6.5652951357618905"><ele>589.6666666666667</ele><time>2026-04-11T10:18:17.001Z</time></trkpt><trkpt lat="46.64489530645008" lon="6.565415837352118"><ele>590.3333333333334</ele><time>2026-04-11T10:18:18.001Z</time></trkpt><trkpt lat="46.645035682276465" lon="6.565523270204413"><ele>591.0</ele><time>2026-04-11T10:18:19.001Z</time></trkpt><trkpt lat="46.64516212750893" lon="6.565616734305393"><ele>591.0</ele><time>2026-04-11T10:18:20.001Z</time></trkpt><trkpt lat="46.645268303915316" lon="6.565697117854165"><ele>591.0</ele><time>2026-04-11T10:18:21.001Z</time></trkpt><trkpt lat="46.64535279144806" lon="6.5657626535945"><ele>591.0</ele><time>2026-04-11T10:18:22.001Z</time></trkpt><trkpt lat="46.64541279297971" lon="6.565809456840672"><ele>591.0</ele><time>2026-04-11T10:18:23.001Z</time></trkpt><trkpt lat="46.645514970827456" lon="6.565854237446302"><ele>591.0</ele><time>2026-04-11T10:18:26.001Z</time></trkpt><trkpt lat="46.645595276929186" lon="6.565866286316388"><ele>590.2</ele><time>2026-04-11T10:18:27.001Z</time></trkpt><trkpt lat="46.64565971466611" lon="6.565796534932241"><ele>589.4000000000001</ele><time>2026-04-11T10:18:28.002Z</time></trkpt><trkpt lat="46.64574668338959" lon="6.5657327273756305"><ele>588.6</ele><time>2026-04-11T10:18:29.002Z</time></trkpt><trkpt lat="46.645844076697365" lon="6.565651080977157"><ele>587.8000000000001</ele><time>2026-04-11T10:18:30.002Z</time></trkpt><trkpt lat="46.6459549159075" lon="6.565574414140418"><ele>587.0</ele><time>2026-04-11T10:18:31.002Z</time></trkpt><trkpt lat="46.646073114359886" lon="6.565500225472043"><ele>587.0</ele><time>2026-04-11T10:18:32.002Z</time></trkpt><trkpt lat="46.64619612063433" lon="6.565434216449821"><ele>587.0</ele><time>2026-04-11T10:18:33.002Z</time></trkpt><trkpt lat="46.6463266452303" lon="6.565369047405168"><ele>587.0</ele><time>2026-04-11T10:18:34.002Z</time></trkpt><trkpt lat="46.64646928887721" lon="6.565307144644413"><ele>587.0</ele><time>2026-04-11T10:18:35.002Z</time></trkpt><trkpt lat="46.646623101526934" lon="6.56529390298441"><ele>586.6666666666666</ele><time>2026-04-11T10:18:36.002Z</time></trkpt><trkpt lat="46.64677321281229" lon="6.565279316048708"><ele>586.3333333333334</ele><time>2026-04-11T10:18:37.002Z</time></trkpt><trkpt lat="46.64692682622376" lon="6.565274777779477"><ele>586.0</ele><time>2026-04-11T10:18:38.002Z</time></trkpt><trkpt lat="46.647110072368655" lon="6.565282790271938"><ele>585.6666666666667</ele><time>2026-04-11T10:18:39.002Z</time></trkpt><trkpt lat="46.64727232826559" lon="6.56531233269962"><ele>585.3333333333334</ele><time>2026-04-11T10:18:40.002Z</time></trkpt><trkpt lat="46.647421997914044" lon="6.56535477251918"><ele>585.0</ele><time>2026-04-11T10:18:41.002Z</time></trkpt><trkpt lat="46.64757132268791" lon="6.565422922805577"><ele>585.0</ele><time>2026-04-11T10:18:42.002Z</time></trkpt><trkpt lat="46.64771663114117" lon="6.565489168326684"><ele>585.0</ele><time>2026-04-11T10:18:43.002Z</time></trkpt><trkpt lat="46.64785239392288" lon="6.565557067917355"><ele>585.0</ele><time>2026-04-11T10:18:44.002Z</time></trkpt><trkpt lat="46.64798922657459" lon="6.56562428260063"><ele>585.0</ele><time>2026-04-11T10:18:45.002Z</time></trkpt><trkpt lat="46.64812574215885" lon="6.5656989152286185"><ele>584.25</ele><time>2026-04-11T10:18:46.002Z</time></trkpt><trkpt lat="46.64825822710121" lon="6.5657650098359674"><ele>583.5</ele><time>2026-04-11T10:18:47.002Z</time></trkpt><trkpt lat="46.648395563529704" lon="6.565829181926657"><ele>582.75</ele><time>2026-04-11T10:18:48.002Z</time></trkpt><trkpt lat="46.64852492304612" lon="6.565892464119565"><ele>582.0</ele><time>2026-04-11T10:18:49.002Z</time></trkpt><trkpt lat="46.64864561350082" lon="6.5659448770541164"><ele>580.75</ele><time>2026-04-11T10:18:50.002Z</time></trkpt><trkpt lat="46.648763616456776" lon="6.5660042334904185"><ele>579.5</ele><time>2026-04-11T10:18:51.002Z</time></trkpt><trkpt lat="46.64888122530367" lon="6.566065984795211"><ele>578.25</ele><time>2026-04-11T10:18:52.002Z</time></trkpt><trkpt lat="46.64900731372874" lon="6.566102756523003"><ele>577.0</ele><time>2026-04-11T10:18:53.002Z</time></trkpt><trkpt lat="46.649134730930314" lon="6.566116299736298"><ele>577.0</ele><time>2026-04-11T10:18:54.002Z</time></trkpt><trkpt lat="46.6492711195242" lon="6.566108665252628"><ele>577.0</ele><time>2026-04-11T10:18:55.002Z</time></trkpt><trkpt lat="46.64940444545509" lon="6.566095181791146"><ele>577.0</ele><time>2026-04-11T10:18:56.002Z</time></trkpt><trkpt lat="46.64952589464" lon="6.566091890408902"><ele>577.0</ele><time>2026-04-11T10:18:57.002Z</time></trkpt><trkpt lat="46.649605316771165" lon="6.566079845276476"><ele>577.6666666666667</ele><time>2026-04-11T10:18:58.002Z</time></trkpt><trkpt lat="46.64968231974194" lon="6.566066883297915"><ele>578.3333333333334</ele><time>2026-04-11T10:19:00.002Z</time></trkpt><trkpt lat="46.64975751918773" lon="6.566008320442769"><ele>579.0</ele><time>2026-04-11T10:19:51.001Z</time></trkpt><trkpt lat="46.64981563692014" lon="6.565969183605114"><ele>579.6666666666666</ele><time>2026-04-11T10:19:52.001Z</time></trkpt><trkpt lat="46.649901883546214" lon="6.565938000597193"><ele>580.3333333333333</ele><time>2026-04-11T10:19:53.001Z</time></trkpt><trkpt lat="46.65000110660825" lon="6.565886583035491"><ele>581.0</ele><time>2026-04-11T10:19:54.001Z</time></trkpt><trkpt lat="46.65011943369043" lon="6.565826313100761"><ele>581.0</ele><time>2026-04-11T10:19:55.001Z</time></trkpt><trkpt lat="46.65024509911482" lon="6.565745447137986"><ele>581.0</ele><time>2026-04-11T10:19:56.001Z</time></trkpt><trkpt lat="46.65038031756505" lon="6.565643860546317"><ele>581.0</ele><time>2026-04-11T10:19:57.001Z</time></trkpt><trkpt lat="46.65051261290477" lon="6.565525511397017"><ele>581.0</ele><time>2026-04-11T10:19:58.001Z</time></trkpt><trkpt lat="46.65063980011404" lon="6.565398007237226"><ele>580.6666666666666</ele><time>2026-04-11T10:19:59.001Z</time></trkpt><trkpt lat="46.65077802152967" lon="6.56525289390168"><ele>580.3333333333334</ele><time>2026-04-11T10:20:00.001Z</time></trkpt><trkpt lat="46.65091745228314" lon="6.565095576499741"><ele>580.0</ele><time>2026-04-11T10:20:01.001Z</time></trkpt><trkpt lat="46.65105912916878" lon="6.564929832304522"><ele>578.0</ele><time>2026-04-11T10:20:02.001Z</time></trkpt><trkpt lat="46.651196524384034" lon="6.5647692968068725"><ele>576.0</ele><time>2026-04-11T10:20:03.001Z</time></trkpt><trkpt lat="46.65132950265322" lon="6.56461923789012"><ele>574.0</ele><time>2026-04-11T10:20:04.001Z</time></trkpt><trkpt lat="46.65145323386088" lon="6.5644706704576965"><ele>574.0</ele><time>2026-04-11T10:20:05.001Z</time></trkpt><trkpt lat="46.65155296651413" lon="6.564331658339145"><ele>574.0</ele><time>2026-04-11T10:20:06.001Z</time></trkpt><trkpt lat="46.65162274540515" lon="6.564195714367839"><ele>574.0</ele><time>2026-04-11T10:20:07.001Z</time></trkpt><trkpt lat="46.651678180249384" lon="6.564077473154516"><ele>574.0</ele><time>2026-04-11T10:20:08.001Z</time></trkpt><trkpt lat="46.65173934419322" lon="6.563974819652402"><ele>574.0</ele><time>2026-04-11T10:20:09.001Z</time></trkpt><trkpt lat="46.651777607365595" lon="6.563851712465577"><ele>574.0</ele><time>2026-04-11T10:20:10.001Z</time></trkpt><trkpt lat="46.65180833609051" lon="6.563750162123066"><ele>574.0</ele><time>2026-04-11T10:20:11.001Z</time></trkpt><trkpt lat="46.65184480773053" lon="6.563620135306583"><ele>574.0</ele><time>2026-04-11T10:20:13.001Z</time></trkpt><trkpt lat="46.651900065300964" lon="6.5637266645493115"><ele>574.0</ele><time>2026-04-11T10:23:05.001Z</time></trkpt><trkpt lat="46.65185762757663" lon="6.563835504799292"><ele>574.0</ele><time>2026-04-11T10:23:07.001Z</time></trkpt><trkpt lat="46.65180604107586" lon="6.56390037307337"><ele>574.0</ele><time>2026-04-11T10:23:09.001Z</time></trkpt><trkpt lat="46.651745043390676" lon="6.5638478055522365"><ele>572.2</ele><time>2026-04-11T10:23:12.001Z</time></trkpt><trkpt lat="46.65178136658125" lon="6.5636785983970825"><ele>570.4</ele><time>2026-04-11T10:23:14.001Z</time></trkpt><trkpt lat="46.65182180075497" lon="6.563554187843041"><ele>568.6</ele><time>2026-04-11T10:23:15.001Z</time></trkpt><trkpt lat="46.65185894008966" lon="6.563415336970971"><ele>566.8</ele><time>2026-04-11T10:23:16.001Z</time></trkpt><trkpt lat="46.651892875227524" lon="6.563241702577064"><ele>565.0</ele><time>2026-04-11T10:23:17.001Z</time></trkpt><trkpt lat="46.651916439134986" lon="6.563037807275453"><ele>563.75</ele><time>2026-04-11T10:23:18.001Z</time></trkpt><trkpt lat="46.651929552488895" lon="6.562838296101916"><ele>562.5</ele><time>2026-04-11T10:23:19.001Z</time></trkpt><trkpt lat="46.651935164990505" lon="6.562623618336515"><ele>561.25</ele><time>2026-04-11T10:23:20.001Z</time></trkpt><trkpt lat="46.65193924039477" lon="6.562403148444915"><ele>560.0</ele><time>2026-04-11T10:23:21.001Z</time></trkpt><trkpt lat="46.65194701376236" lon="6.5621926768922245"><ele>557.3333333333333</ele><time>2026-04-11T10:23:22Z</time></trkpt><trkpt lat="46.65195817041871" lon="6.561975525132279"><ele>554.6666666666666</ele><time>2026-04-11T10:23:23Z</time></trkpt><trkpt lat="46.65196633480142" lon="6.561751417872486"><ele>552.0</ele><time>2026-04-11T10:23:24Z</time></trkpt><trkpt lat="46.651985286403665" lon="6.56153711327277"><ele>552.0</ele><time>2026-04-11T10:23:25Z</time></trkpt><trkpt lat="46.65199243911186" lon="6.561330463483986"><ele>552.0</ele><time>2026-04-11T10:23:26Z</time></trkpt><trkpt lat="46.65200056229087" lon="6.5611203479408635"><ele>552.0</ele><time>2026-04-11T10:23:27Z</time></trkpt><trkpt lat="46.65200188856259" lon="6.5609074434415025"><ele>552.0</ele><time>2026-04-11T10:23:28Z</time></trkpt><trkpt lat="46.6519903845124" lon="6.560701568473851"><ele>550.5</ele><time>2026-04-11T10:23:29Z</time></trkpt><trkpt lat="46.65196033419952" lon="6.560508105827001"><ele>549.0</ele><time>2026-04-11T10:23:30Z</time></trkpt><trkpt lat="46.65190864560849" lon="6.560326841695681"><ele>547.5</ele><time>2026-04-11T10:23:31Z</time></trkpt><trkpt lat="46.65183999606075" lon="6.5601524049584485"><ele>546.0</ele><time>2026-04-11T10:23:32Z</time></trkpt><trkpt lat="46.65175014830808" lon="6.559994757753975"><ele>544.25</ele><time>2026-04-11T10:23:33Z</time></trkpt><trkpt lat="46.65164603453987" lon="6.559850886987316"><ele>542.5</ele><time>2026-04-11T10:23:34Z</time></trkpt><trkpt lat="46.65153528115674" lon="6.559716742555038"><ele>540.75</ele><time>2026-04-11T10:23:35Z</time></trkpt><trkpt lat="46.65142270593876" lon="6.5595869944255005"><ele>539.0</ele><time>2026-04-11T10:23:36Z</time></trkpt><trkpt lat="46.65130539242661" lon="6.5594500679614525"><ele>539.0</ele><time>2026-04-11T10:23:37Z</time></trkpt><trkpt lat="46.65118541435113" lon="6.559312947167946"><ele>539.0</ele><time>2026-04-11T10:23:38Z</time></trkpt><trkpt lat="46.65107371106664" lon="6.55918129612425"><ele>539.0</ele><time>2026-04-11T10:23:39Z</time></trkpt><trkpt lat="46.65096930292579" lon="6.559050763046707"><ele>539.0</ele><time>2026-04-11T10:23:40Z</time></trkpt><trkpt lat="46.65086706187849" lon="6.558921030349577"><ele>538.75</ele><time>2026-04-11T10:23:41Z</time></trkpt><trkpt lat="46.650766990417104" lon="6.558798647513283"><ele>538.5</ele><time>2026-04-11T10:23:42Z</time></trkpt><trkpt lat="46.650666328311345" lon="6.558683345235161"><ele>538.25</ele><time>2026-04-11T10:23:43Z</time></trkpt><trkpt lat="46.650561914508735" lon="6.558574699829922"><ele>538.0</ele><time>2026-04-11T10:23:44Z</time></trkpt><trkpt lat="46.650440058802424" lon="6.558465864487967"><ele>538.0</ele><time>2026-04-11T10:23:45Z</time></trkpt><trkpt lat="46.65029856990864" lon="6.558353070192145"><ele>538.0</ele><time>2026-04-11T10:23:46Z</time></trkpt><trkpt lat="46.65016520179883" lon="6.558254014143463"><ele>538.0</ele><time>2026-04-11T10:23:47Z</time></trkpt><trkpt lat="46.650046701127025" lon="6.558161722812445"><ele>538.0</ele><time>2026-04-11T10:23:48Z</time></trkpt><trkpt lat="46.64994590773639" lon="6.558057197948828"><ele>536.75</ele><time>2026-04-11T10:23:49Z</time></trkpt><trkpt lat="46.64985353454367" lon="6.557925807211662"><ele>535.5</ele><time>2026-04-11T10:23:50Z</time></trkpt><trkpt lat="46.6497626351917" lon="6.557771079332833"><ele>534.25</ele><time>2026-04-11T10:23:51Z</time></trkpt><trkpt lat="46.64967112420614" lon="6.55760338491588"><ele>533.0</ele><time>2026-04-11T10:23:52Z</time></trkpt><trkpt lat="46.649600194810255" lon="6.557427552981803"><ele>533.0</ele><time>2026-04-11T10:23:53Z</time></trkpt><trkpt lat="46.64954465089729" lon="6.55723008727018"><ele>533.0</ele><time>2026-04-11T10:23:54Z</time></trkpt><trkpt lat="46.64951644079485" lon="6.5570248636914235"><ele>533.0</ele><time>2026-04-11T10:23:55Z</time></trkpt><trkpt lat="46.64950867521346" lon="6.556807693914411"><ele>533.0</ele><time>2026-04-11T10:23:56Z</time></trkpt><trkpt lat="46.649519969140215" lon="6.556580706985838"><ele>532.75</ele><time>2026-04-11T10:23:57Z</time></trkpt><trkpt lat="46.64954973039573" lon="6.556348495405306"><ele>532.5</ele><time>2026-04-11T10:23:58Z</time></trkpt><trkpt lat="46.649592051821536" lon="6.556153164034271"><ele>532.25</ele><time>2026-04-11T10:23:59Z</time></trkpt><trkpt lat="46.649647428629436" lon="6.555987320364423"><ele>532.0</ele><time>2026-04-11T10:24:00Z</time></trkpt><trkpt lat="46.64973712484296" lon="6.555822890643437"><ele>528.0</ele><time>2026-04-11T10:24:01Z</time></trkpt><trkpt lat="46.649844190635974" lon="6.555670754058309"><ele>524.0</ele><time>2026-04-11T10:24:02Z</time></trkpt><trkpt lat="46.649960804352396" lon="6.555536282279156"><ele>520.0</ele><time>2026-04-11T10:24:03Z</time></trkpt><trkpt lat="46.65008787802034" lon="6.555422396537954"><ele>516.0</ele><time>2026-04-11T10:24:04Z</time></trkpt><trkpt lat="46.65023447863597" lon="6.555320654016758"><ele>511.66666666666663</ele><time>2026-04-11T10:24:05Z</time></trkpt><trkpt lat="46.65039647796498" lon="6.555227589116148"><ele>507.3333333333333</ele><time>2026-04-11T10:24:06Z</time></trkpt><trkpt lat="46.65055410009419" lon="6.5551584436204635"><ele>503.0</ele><time>2026-04-11T10:24:07Z</time></trkpt><trkpt lat="46.65070401347073" lon="6.555097608154343"><ele>503.0</ele><time>2026-04-11T10:24:08Z</time></trkpt><trkpt lat="46.65083915540044" lon="6.555051986905982"><ele>503.0</ele><time>2026-04-11T10:24:09Z</time></trkpt><trkpt lat="46.650969949392326" lon="6.555027334627097"><ele>503.0</ele><time>2026-04-11T10:24:10.001Z</time></trkpt><trkpt lat="46.65110594294721" lon="6.5550384640810435"><ele>503.0</ele><time>2026-04-11T10:24:11.001Z</time></trkpt><trkpt lat="46.65125555372905" lon="6.555085788544439"><ele>504.66666666666663</ele><time>2026-04-11T10:24:12.001Z</time></trkpt><trkpt lat="46.65141148027254" lon="6.555167929707618"><ele>506.33333333333337</ele><time>2026-04-11T10:24:13.001Z</time></trkpt><trkpt lat="46.651563270843056" lon="6.555279911022183"><ele>508.0</ele><time>2026-04-11T10:24:14.001Z</time></trkpt><trkpt lat="46.651706844001346" lon="6.5554198671083075"><ele>508.0</ele><time>2026-04-11T10:24:15.001Z</time></trkpt><trkpt lat="46.65184960809818" lon="6.555578077101263"><ele>508.0</ele><time>2026-04-11T10:24:16.001Z</time></trkpt><trkpt lat="46.65198868874833" lon="6.555751785619425"><ele>508.0</ele><time>2026-04-11T10:24:17.001Z</time></trkpt><trkpt lat="46.65211506804544" lon="6.555945236879284"><ele>503.0</ele><time>2026-04-11T10:24:18.001Z</time></trkpt><trkpt lat="46.65224176345474" lon="6.556163107279152"><ele>498.0</ele><time>2026-04-11T10:24:19.001Z</time></trkpt><trkpt lat="46.65236653340205" lon="6.556398410754103"><ele>493.0</ele><time>2026-04-11T10:24:20.001Z</time></trkpt><trkpt lat="46.65248809140488" lon="6.556635742486592"><ele>493.0</ele><time>2026-04-11T10:24:21.001Z</time></trkpt><trkpt lat="46.65260237242503" lon="6.556864108139967"><ele>493.0</ele><time>2026-04-11T10:24:22.001Z</time></trkpt><trkpt lat="46.65271886088925" lon="6.557104136760174"><ele>493.0</ele><time>2026-04-11T10:24:23.001Z</time></trkpt><trkpt lat="46.65283099205529" lon="6.5573381780728255"><ele>491.0</ele><time>2026-04-11T10:24:24.001Z</time></trkpt><trkpt lat="46.652942910919684" lon="6.557566614786425"><ele>489.0</ele><time>2026-04-11T10:24:25.001Z</time></trkpt><trkpt lat="46.653049286803714" lon="6.557783479171308"><ele>487.0</ele><time>2026-04-11T10:24:26.001Z</time></trkpt><trkpt lat="46.65315262513616" lon="6.557997416949336"><ele>487.0</ele><time>2026-04-11T10:24:27.001Z</time></trkpt><trkpt lat="46.65325134168643" lon="6.558198787662791"><ele>487.0</ele><time>2026-04-11T10:24:28.001Z</time></trkpt><trkpt lat="46.65334335213277" lon="6.558363762986893"><ele>487.0</ele><time>2026-04-11T10:24:29.001Z</time></trkpt><trkpt lat="46.65344292892288" lon="6.558501683313888"><ele>487.0</ele><time>2026-04-11T10:24:30.001Z</time></trkpt><trkpt lat="46.653560369312515" lon="6.558611467730509"><ele>487.0</ele><time>2026-04-11T10:24:31.001Z</time></trkpt><trkpt lat="46.653696923438304" lon="6.5586915792585065"><ele>487.0</ele><time>2026-04-11T10:24:32.001Z</time></trkpt><trkpt lat="46.653842471764726" lon="6.55874199248324"><ele>487.0</ele><time>2026-04-11T10:24:33.001Z</time></trkpt><trkpt lat="46.654005341982405" lon="6.558763639287303"><ele>480.6666666666667</ele><time>2026-04-11T10:24:34.001Z</time></trkpt><trkpt lat="46.654166295133194" lon="6.558754688961093"><ele>474.33333333333337</ele><time>2026-04-11T10:24:35.001Z</time></trkpt><trkpt lat="46.6543158539018" lon="6.55871893676707"><ele>468.0</ele><time>2026-04-11T10:24:36.001Z</time></trkpt><trkpt lat="46.654456197458515" lon="6.558654536722122"><ele>463.0</ele><time>2026-04-11T10:24:37.001Z</time></trkpt><trkpt lat="46.65459053905662" lon="6.558559576395572"><ele>458.0</ele><time>2026-04-11T10:24:38.001Z</time></trkpt><trkpt lat="46.65472329060611" lon="6.558433719078052"><ele>453.0</ele><time>2026-04-11T10:24:39.001Z</time></trkpt><trkpt lat="46.65484326221992" lon="6.558280240369164"><ele>453.0</ele><time>2026-04-11T10:24:40.001Z</time></trkpt><trkpt lat="46.65495201627989" lon="6.558103432131656"><ele>453.0</ele><time>2026-04-11T10:24:41.001Z</time></trkpt><trkpt lat="46.65504266876279" lon="6.5579031419222895"><ele>453.0</ele><time>2026-04-11T10:24:42.001Z</time></trkpt><trkpt lat="46.655120720378136" lon="6.5576737461580565"><ele>452.33333333333337</ele><time>2026-04-11T10:24:43.001Z</time></trkpt><trkpt lat="46.65518689067291" lon="6.557420982267225"><ele>451.6666666666667</ele><time>2026-04-11T10:24:44.001Z</time></trkpt><trkpt lat="46.65525199952987" lon="6.5571618791463075"><ele>451.0</ele><time>2026-04-11T10:24:45.001Z</time></trkpt><trkpt lat="46.65531719632537" lon="6.556910736539495"><ele>449.6666666666667</ele><time>2026-04-11T10:24:46.001Z</time></trkpt><trkpt lat="46.65538420699878" lon="6.556648628061219"><ele>448.33333333333337</ele><time>2026-04-11T10:24:47.001Z</time></trkpt><trkpt lat="46.655455884895" lon="6.556378580954195"><ele>447.0</ele><time>2026-04-11T10:24:48.001Z</time></trkpt><trkpt lat="46.65552379646735" lon="6.556124927452599"><ele>446.66666666666663</ele><time>2026-04-11T10:24:49.001Z</time></trkpt><trkpt lat="46.65558804019373" lon="6.555887577115729"><ele>446.3333333333333</ele><time>2026-04-11T10:24:50.001Z</time></trkpt><trkpt lat="46.65565367232371" lon="6.555651095027426"><ele>446.0</ele><time>2026-04-11T10:24:51.001Z</time></trkpt><trkpt lat="46.65572518608611" lon="6.555400038726774"><ele>446.25</ele><time>2026-04-11T10:24:52.001Z</time></trkpt><trkpt lat="46.65579624687315" lon="6.55516468632219"><ele>446.5</ele><time>2026-04-11T10:24:53.001Z</time></trkpt><trkpt lat="46.65585878174979" lon="6.554962654111148"><ele>446.75</ele><time>2026-04-11T10:24:54.001Z</time></trkpt><trkpt lat="46.655909587512014" lon="6.554811694377969"><ele>447.0</ele><time>2026-04-11T10:24:55.001Z</time></trkpt><trkpt lat="46.655960121511164" lon="6.554683154969947"><ele>447.0</ele><time>2026-04-11T10:24:56.001Z</time></trkpt><trkpt lat="46.65604548598804" lon="6.554598579984102"><ele>447.00000000000006</ele><time>2026-04-11T10:24:57.001Z</time></trkpt><trkpt lat="46.65609743270994" lon="6.554501129435524"><ele>447.00000000000006</ele><time>2026-04-11T10:24:58.001Z</time></trkpt><trkpt lat="46.65612705333683" lon="6.5543658534603795"><ele>447.0</ele><time>2026-04-11T10:24:59.001Z</time></trkpt><trkpt lat="46.65610668111863" lon="6.554196174441675"><ele>447.0</ele><time>2026-04-11T10:25:00.001Z</time></trkpt><trkpt lat="46.656145480285815" lon="6.554040234785651"><ele>447.75</ele><time>2026-04-11T10:25:01.001Z</time></trkpt><trkpt lat="46.65619474060318" lon="6.553872271243919"><ele>448.5</ele><time>2026-04-11T10:25:02.001Z</time></trkpt><trkpt lat="46.65622730857609" lon="6.553702841262505"><ele>449.25</ele><time>2026-04-11T10:25:03.001Z</time></trkpt><trkpt lat="46.65626512754844" lon="6.5535617968418745"><ele>450.0</ele><time>2026-04-11T10:25:04.001Z</time></trkpt><trkpt lat="46.656279353989774" lon="6.553407125671967"><ele>450.25</ele><time>2026-04-11T10:25:05.001Z</time></trkpt><trkpt lat="46.65628414088861" lon="6.553232120922668"><ele>450.5</ele><time>2026-04-11T10:25:06.001Z</time></trkpt><trkpt lat="46.65622057833025" lon="6.553038510049466"><ele>450.75</ele><time>2026-04-11T10:25:07.001Z</time></trkpt><trkpt lat="46.65615595771625" lon="6.552839360439592"><ele>451.0</ele><time>2026-04-11T10:25:08.001Z</time></trkpt><trkpt lat="46.65608288471435" lon="6.552642266526626"><ele>449.6666666666667</ele><time>2026-04-11T10:25:09.001Z</time></trkpt><trkpt lat="46.65601574501286" lon="6.552440806251235"><ele>448.33333333333337</ele><time>2026-04-11T10:25:10.001Z</time></trkpt><trkpt lat="46.65591954854639" lon="6.552252548375058"><ele>447.0</ele><time>2026-04-11T10:25:11.001Z</time></trkpt><trkpt lat="46.655820043288514" lon="6.552052004977913"><ele>446.0</ele><time>2026-04-11T10:25:12.001Z</time></trkpt><trkpt lat="46.65571444747625" lon="6.55184285577685"><ele>445.0</ele><time>2026-04-11T10:25:13.001Z</time></trkpt><trkpt lat="46.65561577082632" lon="6.551636431499947"><ele>444.0</ele><time>2026-04-11T10:25:14.001Z</time></trkpt><trkpt lat="46.65552451312526" lon="6.551435604760117"><ele>444.0</ele><time>2026-04-11T10:25:15.001Z</time></trkpt><trkpt lat="46.65543448730552" lon="6.551233143418533"><ele>444.0</ele><time>2026-04-11T10:25:16.001Z</time></trkpt><trkpt lat="46.655340736189544" lon="6.551026423640611"><ele>444.0</ele><time>2026-04-11T10:25:17.001Z</time></trkpt><trkpt lat="46.65524341690644" lon="6.550819188309968"><ele>444.33333333333337</ele><time>2026-04-11T10:25:18.001Z</time></trkpt><trkpt lat="46.655138695565505" lon="6.550599390625119"><ele>444.6666666666667</ele><time>2026-04-11T10:25:19.001Z</time></trkpt><trkpt lat="46.655036731596276" lon="6.550376928949075"><ele>445.0</ele><time>2026-04-11T10:25:20.001Z</time></trkpt><trkpt lat="46.65493673428526" lon="6.550154130175373"><ele>445.0</ele><time>2026-04-11T10:25:21.001Z</time></trkpt><trkpt lat="46.654835772097584" lon="6.549930932384528"><ele>445.0</ele><time>2026-04-11T10:25:22.001Z</time></trkpt><trkpt lat="46.65472609609811" lon="6.549698208838078"><ele>445.0</ele><time>2026-04-11T10:25:23.001Z</time></trkpt><trkpt lat="46.654620283690136" lon="6.549477874875383"><ele>444.6666666666667</ele><time>2026-04-11T10:25:24.001Z</time></trkpt><trkpt lat="46.65451694660764" lon="6.549265897009253"><ele>444.33333333333337</ele><time>2026-04-11T10:25:25.001Z</time></trkpt><trkpt lat="46.65442173481395" lon="6.549066271982319"><ele>444.0</ele><time>2026-04-11T10:25:26.001Z</time></trkpt><trkpt lat="46.6543342676853" lon="6.548872544343347"><ele>444.25</ele><time>2026-04-11T10:25:27.001Z</time></trkpt><trkpt lat="46.65424880999293" lon="6.548685508128288"><ele>444.5</ele><time>2026-04-11T10:25:28Z</time></trkpt><trkpt lat="46.654169600659365" lon="6.548509076984333"><ele>444.75</ele><time>2026-04-11T10:25:29Z</time></trkpt><trkpt lat="46.6540908481502" lon="6.548341852344404"><ele>445.0</ele><time>2026-04-11T10:25:30Z</time></trkpt><trkpt lat="46.65401881849089" lon="6.54817799621976"><ele>445.0</ele><time>2026-04-11T10:25:31Z</time></trkpt><trkpt lat="46.6539516013935" lon="6.548026961675407"><ele>445.0</ele><time>2026-04-11T10:25:32Z</time></trkpt><trkpt lat="46.653894452499685" lon="6.547888339975595"><ele>445.0</ele><time>2026-04-11T10:25:33Z</time></trkpt><trkpt lat="46.65384935888745" lon="6.547747323866669"><ele>445.0</ele><time>2026-04-11T10:25:34Z</time></trkpt><trkpt lat="46.653826331741854" lon="6.547603794887005"><ele>445.0</ele><time>2026-04-11T10:25:35Z</time></trkpt><trkpt lat="46.6537853173233" lon="6.5474935202244655"><ele>445.0</ele><time>2026-04-11T10:25:36Z</time></trkpt><trkpt lat="46.653722601603285" lon="6.547387564826593"><ele>445.0</ele><time>2026-04-11T10:25:37Z</time></trkpt><trkpt lat="46.653641760531535" lon="6.54727381155744"><ele>445.0</ele><time>2026-04-11T10:25:38Z</time></trkpt><trkpt lat="46.65355396789019" lon="6.547132994373842"><ele>445.0</ele><time>2026-04-11T10:25:39Z</time></trkpt><trkpt lat="46.65347246225368" lon="6.546975959108425"><ele>445.0</ele><time>2026-04-11T10:25:40Z</time></trkpt><trkpt lat="46.65339209237134" lon="6.546804156079625"><ele>445.0</ele><time>2026-04-11T10:25:41Z</time></trkpt><trkpt lat="46.65330776364926" lon="6.54661540673907"><ele>445.0</ele><time>2026-04-11T10:25:42Z</time></trkpt><trkpt lat="46.65321789553846" lon="6.54642043176457"><ele>445.0</ele><time>2026-04-11T10:25:43Z</time></trkpt><trkpt lat="46.65312523421953" lon="6.546218324932153"><ele>445.0</ele><time>2026-04-11T10:25:44Z</time></trkpt><trkpt lat="46.653030698235405" lon="6.54600595794438"><ele>445.0</ele><time>2026-04-11T10:25:45Z</time></trkpt><trkpt lat="46.65293512136103" lon="6.545796689084585"><ele>445.0</ele><time>2026-04-11T10:25:46Z</time></trkpt><trkpt lat="46.65284199348879" lon="6.545587800364097"><ele>445.0</ele><time>2026-04-11T10:25:47Z</time></trkpt><trkpt lat="46.65274373651129" lon="6.545375245499932"><ele>445.0</ele><time>2026-04-11T10:25:48Z</time></trkpt><trkpt lat="46.65265341450597" lon="6.54517551680695"><ele>445.0</ele><time>2026-04-11T10:25:49Z</time></trkpt><trkpt lat="46.652560836802785" lon="6.544968758300031"><ele>445.0</ele><time>2026-04-11T10:25:50Z</time></trkpt><trkpt lat="46.65246468998127" lon="6.544758188308693"><ele>445.0</ele><time>2026-04-11T10:25:51Z</time></trkpt><trkpt lat="46.65236676202717" lon="6.544548271565418"><ele>446.6666666666667</ele><time>2026-04-11T10:25:52Z</time></trkpt><trkpt lat="46.65226860616285" lon="6.544334087346175"><ele>448.33333333333337</ele><time>2026-04-11T10:25:53Z</time></trkpt><trkpt lat="46.652170812501346" lon="6.544111736767049"><ele>450.0</ele><time>2026-04-11T10:25:54Z</time></trkpt><trkpt lat="46.65207187617248" lon="6.543891393301504"><ele>449.66666666666663</ele><time>2026-04-11T10:25:55Z</time></trkpt><trkpt lat="46.651967974646546" lon="6.543669594158629"><ele>449.3333333333333</ele><time>2026-04-11T10:25:56Z</time></trkpt><trkpt lat="46.65186801477864" lon="6.543450413337176"><ele>449.0</ele><time>2026-04-11T10:25:57Z</time></trkpt><trkpt lat="46.65176998683667" lon="6.543239252858356"><ele>449.0</ele><time>2026-04-11T10:25:58Z</time></trkpt><trkpt lat="46.65166622253904" lon="6.543031662013884"><ele>449.0</ele><time>2026-04-11T10:25:59Z</time></trkpt><trkpt lat="46.65156343401104" lon="6.542827923726415"><ele>449.0</ele><time>2026-04-11T10:26:00Z</time></trkpt><trkpt lat="46.65145659755472" lon="6.542633520663281"><ele>449.66666666666663</ele><time>2026-04-11T10:26:01Z</time></trkpt><trkpt lat="46.651349338049734" lon="6.542444363439584"><ele>450.33333333333337</ele><time>2026-04-11T10:26:02Z</time></trkpt><trkpt lat="46.65124438407567" lon="6.54226079230383"><ele>451.0</ele><time>2026-04-11T10:26:03Z</time></trkpt><trkpt lat="46.65113537519532" lon="6.54207832359456"><ele>449.33333333333337</ele><time>2026-04-11T10:26:04Z</time></trkpt><trkpt lat="46.651035704098994" lon="6.54191093822966"><ele>447.66666666666663</ele><time>2026-04-11T10:26:05Z</time></trkpt><trkpt lat="46.65093595110734" lon="6.541751329781465"><ele>446.0</ele><time>2026-04-11T10:26:06Z</time></trkpt><trkpt lat="46.65083287313201" lon="6.541581900846216"><ele>446.0</ele><time>2026-04-11T10:26:07Z</time></trkpt><trkpt lat="46.6507326523975" lon="6.541402650713876"><ele>446.0</ele><time>2026-04-11T10:26:08Z</time></trkpt><trkpt lat="46.65063773322679" lon="6.54120595456756"><ele>446.0</ele><time>2026-04-11T10:26:09Z</time></trkpt><trkpt lat="46.65055214460943" lon="6.540995763873096"><ele>448.66666666666663</ele><time>2026-04-11T10:26:10Z</time></trkpt><trkpt lat="46.650479668837406" lon="6.540777917189639"><ele>451.33333333333337</ele><time>2026-04-11T10:26:11Z</time></trkpt><trkpt lat="46.650422307728746" lon="6.540543274321087"><ele>454.0</ele><time>2026-04-11T10:26:12Z</time></trkpt><trkpt lat="46.6503767291759" lon="6.540297518654941"><ele>457.33333333333337</ele><time>2026-04-11T10:26:13Z</time></trkpt><trkpt lat="46.65035021826644" lon="6.540059997349824"><ele>460.66666666666663</ele><time>2026-04-11T10:26:14Z</time></trkpt><trkpt lat="46.65033947560712" lon="6.539829607339415"><ele>464.0</ele><time>2026-04-11T10:26:15Z</time></trkpt><trkpt lat="46.650341065714755" lon="6.539610792370464"><ele>465.0</ele><time>2026-04-11T10:26:16Z</time></trkpt><trkpt lat="46.650350441222685" lon="6.539396321678912"><ele>466.0</ele><time>2026-04-11T10:26:17Z</time></trkpt><trkpt lat="46.65036082384695" lon="6.539182052461829"><ele>467.0</ele><time>2026-04-11T10:26:18Z</time></trkpt><trkpt lat="46.650356118847114" lon="6.53896142553349"><ele>468.0</ele><time>2026-04-11T10:26:19Z</time></trkpt><trkpt lat="46.650346268140105" lon="6.538740689379871"><ele>468.0</ele><time>2026-04-11T10:26:20Z</time></trkpt><trkpt lat="46.65031929376302" lon="6.538517726870068"><ele>468.0</ele><time>2026-04-11T10:26:21Z</time></trkpt><trkpt lat="46.65027623521026" lon="6.538296091543924"><ele>468.0</ele><time>2026-04-11T10:26:22Z</time></trkpt><trkpt lat="46.65022492555442" lon="6.538078122505727"><ele>461.33333333333337</ele><time>2026-04-11T10:26:23Z</time></trkpt><trkpt lat="46.650194853140526" lon="6.537848796888008"><ele>454.6666666666667</ele><time>2026-04-11T10:26:24Z</time></trkpt><trkpt lat="46.65010315271792" lon="6.537651216226742"><ele>448.0</ele><time>2026-04-11T10:26:25Z</time></trkpt><trkpt lat="46.65004412520667" lon="6.537438046785627"><ele>448.0</ele><time>2026-04-11T10:26:26Z</time></trkpt><trkpt lat="46.6499922199894" lon="6.537240130453572"><ele>448.0</ele><time>2026-04-11T10:26:27Z</time></trkpt><trkpt lat="46.649936714007744" lon="6.537034088900933"><ele>448.0</ele><time>2026-04-11T10:26:28Z</time></trkpt><trkpt lat="46.649874925672414" lon="6.5368320447956645"><ele>448.0</ele><time>2026-04-11T10:26:29Z</time></trkpt><trkpt lat="46.649810628109705" lon="6.53662967001342"><ele>448.0</ele><time>2026-04-11T10:26:30Z</time></trkpt><trkpt lat="46.64974163701406" lon="6.536425782181596"><ele>448.0</ele><time>2026-04-11T10:26:31Z</time></trkpt><trkpt lat="46.64966853565144" lon="6.536222433007458"><ele>448.0</ele><time>2026-04-11T10:26:32.001Z</time></trkpt><trkpt lat="46.64959423138589" lon="6.536019484618852"><ele>448.0</ele><time>2026-04-11T10:26:33.001Z</time></trkpt><trkpt lat="46.649518682658766" lon="6.5358202029807435"><ele>448.0</ele><time>2026-04-11T10:26:34.001Z</time></trkpt><trkpt lat="46.64944321868484" lon="6.535632048365305"><ele>448.0</ele><time>2026-04-11T10:26:35.001Z</time></trkpt><trkpt lat="46.649373743795195" lon="6.535455081131936"><ele>448.0</ele><time>2026-04-11T10:26:36.001Z</time></trkpt><trkpt lat="46.64931076887512" lon="6.535267352233894"><ele>448.0</ele><time>2026-04-11T10:26:37.001Z</time></trkpt><trkpt lat="46.649252729956245" lon="6.535069012794546"><ele>448.0</ele><time>2026-04-11T10:26:38.001Z</time></trkpt><trkpt lat="46.64920402922005" lon="6.534878260968737"><ele>448.0</ele><time>2026-04-11T10:26:39.001Z</time></trkpt><trkpt lat="46.649161717787884" lon="6.534665833262308"><ele>448.0</ele><time>2026-04-11T10:26:40.001Z</time></trkpt><trkpt lat="46.64912977154283" lon="6.534444773048195"><ele>449.0</ele><time>2026-04-11T10:26:41.001Z</time></trkpt><trkpt lat="46.649105206959355" lon="6.534235801208498"><ele>450.0</ele><time>2026-04-11T10:26:42.001Z</time></trkpt><trkpt lat="46.64909208172468" lon="6.5340233076820695"><ele>451.0</ele><time>2026-04-11T10:26:43.001Z</time></trkpt><trkpt lat="46.64909019010239" lon="6.533799839962588"><ele>452.0</ele><time>2026-04-11T10:26:44.001Z</time></trkpt><trkpt lat="46.64909660743731" lon="6.533573364216854"><ele>452.25</ele><time>2026-04-11T10:26:45.001Z</time></trkpt><trkpt lat="46.64911584545678" lon="6.533358087694547"><ele>452.5</ele><time>2026-04-11T10:26:46.001Z</time></trkpt><trkpt lat="46.64914594615685" lon="6.533153648890769"><ele>452.75</ele><time>2026-04-11T10:26:47.001Z</time></trkpt><trkpt lat="46.64918331442463" lon="6.532946204879857"><ele>453.0</ele><time>2026-04-11T10:26:48.001Z</time></trkpt><trkpt lat="46.64922813176828" lon="6.532736474600541"><ele>452.5</ele><time>2026-04-11T10:26:49.001Z</time></trkpt><trkpt lat="46.64927399322497" lon="6.5325302337890125"><ele>452.0</ele><time>2026-04-11T10:26:50.001Z</time></trkpt><trkpt lat="46.6493138995204" lon="6.532339562672196"><ele>451.5</ele><time>2026-04-11T10:26:51.001Z</time></trkpt><trkpt lat="46.649355599711875" lon="6.532142257051915"><ele>451.0</ele><time>2026-04-11T10:26:52.001Z</time></trkpt><trkpt lat="46.6493993845472" lon="6.531943339124485"><ele>451.0</ele><time>2026-04-11T10:26:53.001Z</time></trkpt><trkpt lat="46.64944433563745" lon="6.531755081292374"><ele>451.0</ele><time>2026-04-11T10:26:54.001Z</time></trkpt><trkpt lat="46.64948965160866" lon="6.531578492500072"><ele>451.0</ele><time>2026-04-11T10:26:55.001Z</time></trkpt><trkpt lat="46.649536614970195" lon="6.531425690029209"><ele>451.0</ele><time>2026-04-11T10:26:56.001Z</time></trkpt><trkpt lat="46.64958714878942" lon="6.531301642764901"><ele>451.6</ele><time>2026-04-11T10:26:57.001Z</time></trkpt><trkpt lat="46.64964287522981" lon="6.531176303813109"><ele>452.20000000000005</ele><time>2026-04-11T10:26:58.001Z</time></trkpt><trkpt lat="46.64969797109489" lon="6.531067468950077"><ele>452.79999999999995</ele><time>2026-04-11T10:26:59.001Z</time></trkpt><trkpt lat="46.64974213937662" lon="6.53094649113389"><ele>453.4</ele><time>2026-04-11T10:27:00.001Z</time></trkpt><trkpt lat="46.64977536021657" lon="6.53081329542404"><ele>454.0</ele><time>2026-04-11T10:27:01.001Z</time></trkpt><trkpt lat="46.64983322593677" lon="6.530691633610781"><ele>454.0</ele><time>2026-04-11T10:27:02.001Z</time></trkpt><trkpt lat="46.64992192203664" lon="6.530569529547562"><ele>454.0</ele><time>2026-04-11T10:27:03.001Z</time></trkpt><trkpt lat="46.65002302816559" lon="6.530458770683581"><ele>454.0</ele><time>2026-04-11T10:27:04.001Z</time></trkpt><trkpt lat="46.6501285539425" lon="6.53032667826533"><ele>454.0</ele><time>2026-04-11T10:27:05.001Z</time></trkpt><trkpt lat="46.65023222668121" lon="6.530183068782477"><ele>454.75</ele><time>2026-04-11T10:27:06.001Z</time></trkpt><trkpt lat="46.65033803294629" lon="6.530040772762209"><ele>455.5</ele><time>2026-04-11T10:27:07.001Z</time></trkpt><trkpt lat="46.65044222295695" lon="6.529904070750731"><ele>456.25</ele><time>2026-04-11T10:27:08.001Z</time></trkpt><trkpt lat="46.650552168570094" lon="6.529765502070613"><ele>457.0</ele><time>2026-04-11T10:27:09.001Z</time></trkpt><trkpt lat="46.650657023956086" lon="6.529634113346145"><ele>456.25</ele><time>2026-04-11T10:27:10.001Z</time></trkpt><trkpt lat="46.65075064940113" lon="6.5295163972822845"><ele>455.5</ele><time>2026-04-11T10:27:11.001Z</time></trkpt><trkpt lat="46.65084433898888" lon="6.529407503235219"><ele>454.75</ele><time>2026-04-11T10:27:12.001Z</time></trkpt><trkpt lat="46.650941596158155" lon="6.529293995628947"><ele>454.0</ele><time>2026-04-11T10:27:13.001Z</time></trkpt><trkpt lat="46.65103317913248" lon="6.529166416892388"><ele>454.0</ele><time>2026-04-11T10:27:14.001Z</time></trkpt><trkpt lat="46.65110000739005" lon="6.529032563706346"><ele>454.0</ele><time>2026-04-11T10:27:15.001Z</time></trkpt><trkpt lat="46.65114265151936" lon="6.528894480123706"><ele>454.0</ele><time>2026-04-11T10:27:16.001Z</time></trkpt><trkpt lat="46.651182839200345" lon="6.528735183824266"><ele>454.0</ele><time>2026-04-11T10:27:17.001Z</time></trkpt><trkpt lat="46.65122745955309" lon="6.5285658084329015"><ele>455.0</ele><time>2026-04-11T10:27:18.001Z</time></trkpt><trkpt lat="46.651265608782964" lon="6.528411606491448"><ele>456.0</ele><time>2026-04-11T10:27:19.001Z</time></trkpt><trkpt lat="46.65131385309437" lon="6.528284982223851"><ele>457.0</ele><time>2026-04-11T10:27:20.001Z</time></trkpt><trkpt lat="46.65138071894747" lon="6.528168089313849"><ele>458.0</ele><time>2026-04-11T10:27:21.001Z</time></trkpt><trkpt lat="46.65146724151195" lon="6.528040615790372"><ele>459.0</ele><time>2026-04-11T10:27:22.001Z</time></trkpt><trkpt lat="46.65154164629814" lon="6.527922374030493"><ele>458.4</ele><time>2026-04-11T10:27:23.001Z</time></trkpt><trkpt lat="46.65160438281349" lon="6.527815870221672"><ele>457.79999999999995</ele><time>2026-04-11T10:27:24.001Z</time></trkpt><trkpt lat="46.65167244042234" lon="6.527703035238033"><ele>457.20000000000005</ele><time>2026-04-11T10:27:25.001Z</time></trkpt><trkpt lat="46.65173933144064" lon="6.527599233670669"><ele>456.6</ele><time>2026-04-11T10:27:26.001Z</time></trkpt><trkpt lat="46.65181957459225" lon="6.527493159957685"><ele>456.0</ele><time>2026-04-11T10:27:27.001Z</time></trkpt><trkpt lat="46.65190230545593" lon="6.527379737370754"><ele>457.20000000000005</ele><time>2026-04-11T10:27:28.001Z</time></trkpt><trkpt lat="46.65198076989371" lon="6.527249762484266"><ele>458.40000000000003</ele><time>2026-04-11T10:27:29.001Z</time></trkpt><trkpt lat="46.652050935872786" lon="6.527129682348316"><ele>459.6</ele><time>2026-04-11T10:27:30.001Z</time></trkpt><trkpt lat="46.65213025709048" lon="6.527004168688518"><ele>460.8</ele><time>2026-04-11T10:27:31.001Z</time></trkpt><trkpt lat="46.65219075844307" lon="6.5268802432179065"><ele>462.0</ele><time>2026-04-11T10:27:32.001Z</time></trkpt><trkpt lat="46.65224045411931" lon="6.526735179469736"><ele>462.0</ele><time>2026-04-11T10:27:33.001Z</time></trkpt><trkpt lat="46.65228581239699" lon="6.526611333308701"><ele>462.00000000000006</ele><time>2026-04-11T10:27:34Z</time></trkpt><trkpt lat="46.65231814054915" lon="6.526495659632793"><ele>462.00000000000006</ele><time>2026-04-11T10:27:35Z</time></trkpt><trkpt lat="46.65235662010914" lon="6.526374114714025"><ele>462.0</ele><time>2026-04-11T10:27:36Z</time></trkpt><trkpt lat="46.652404153895695" lon="6.526245454798285"><ele>462.0</ele><time>2026-04-11T10:27:37Z</time></trkpt><trkpt lat="46.65244942353034" lon="6.526108655038255"><ele>461.5</ele><time>2026-04-11T10:27:38Z</time></trkpt><trkpt lat="46.652496805460565" lon="6.526010646636156"><ele>461.0</ele><time>2026-04-11T10:27:39Z</time></trkpt><trkpt lat="46.652548173187" lon="6.525925112454948"><ele>460.5</ele><time>2026-04-11T10:27:40Z</time></trkpt><trkpt lat="46.65262222374814" lon="6.52585694460811"><ele>460.0</ele><time>2026-04-11T10:27:41Z</time></trkpt><trkpt lat="46.65270958775745" lon="6.525821569103361"><ele>459.5</ele><time>2026-04-11T10:27:42Z</time></trkpt><trkpt lat="46.65279625306858" lon="6.52582422829381"><ele>459.0</ele><time>2026-04-11T10:27:43Z</time></trkpt><trkpt lat="46.65287653547655" lon="6.525849691255033"><ele>460.14285714285717</ele><time>2026-04-11T10:27:44Z</time></trkpt><trkpt lat="46.65293986039684" lon="6.525884249931061"><ele>461.2857142857142</ele><time>2026-04-11T10:27:45Z</time></trkpt><trkpt lat="46.65299950881135" lon="6.525916094076364"><ele>462.4285714285714</ele><time>2026-04-11T10:27:46Z</time></trkpt><trkpt lat="46.6530641848708" lon="6.525952305414168"><ele>463.57142857142856</ele><time>2026-04-11T10:27:47Z</time></trkpt><trkpt lat="46.65313295615365" lon="6.526004524737284"><ele>464.71428571428567</ele><time>2026-04-11T10:27:48Z</time></trkpt><trkpt lat="46.65319607837539" lon="6.526030511387715"><ele>465.8571428571428</ele><time>2026-04-11T10:27:49Z</time></trkpt><trkpt lat="46.653260299877964" lon="6.52600976213971"><ele>466.99999999999994</ele><time>2026-04-11T10:27:50Z</time></trkpt><trkpt lat="46.65332142963489" lon="6.525934024323327"><ele>467.0</ele><time>2026-04-11T10:27:51Z</time></trkpt><trkpt lat="46.65338565333071" lon="6.525830280251002"><ele>467.00000000000006</ele><time>2026-04-11T10:27:52Z</time></trkpt><trkpt lat="46.653461168974346" lon="6.525735218288127"><ele>467.00000000000006</ele><time>2026-04-11T10:27:53Z</time></trkpt><trkpt lat="46.653536330698124" lon="6.525630870124098"><ele>467.0</ele><time>2026-04-11T10:27:54Z</time></trkpt><trkpt lat="46.65361053966779" lon="6.525513015489254"><ele>467.0</ele><time>2026-04-11T10:27:55Z</time></trkpt><trkpt lat="46.6536867031364" lon="6.525388772022435"><ele>469.0</ele><time>2026-04-11T10:27:56Z</time></trkpt><trkpt lat="46.6537519364819" lon="6.52524966000601"><ele>471.0</ele><time>2026-04-11T10:27:57Z</time></trkpt><trkpt lat="46.65381590909034" lon="6.525107833087566"><ele>473.0</ele><time>2026-04-11T10:27:58Z</time></trkpt><trkpt lat="46.653883649506376" lon="6.524950719277424"><ele>475.0</ele><time>2026-04-11T10:27:59Z</time></trkpt><trkpt lat="46.65395961368181" lon="6.524787730907224"><ele>475.0</ele><time>2026-04-11T10:28:00Z</time></trkpt><trkpt lat="46.6540411229154" lon="6.524625451303298"><ele>475.0</ele><time>2026-04-11T10:28:01Z</time></trkpt><trkpt lat="46.65411785762029" lon="6.524457712594982"><ele>475.0</ele><time>2026-04-11T10:28:02Z</time></trkpt><trkpt lat="46.65420126704589" lon="6.5242846930735015"><ele>475.0</ele><time>2026-04-11T10:28:03Z</time></trkpt><trkpt lat="46.654283170981884" lon="6.524118910676253"><ele>473.6666666666667</ele><time>2026-04-11T10:28:04Z</time></trkpt><trkpt lat="46.654365336561646" lon="6.523939078751122"><ele>472.33333333333337</ele><time>2026-04-11T10:28:05Z</time></trkpt><trkpt lat="46.65446085419019" lon="6.523750901331787"><ele>471.0</ele><time>2026-04-11T10:28:06Z</time></trkpt><trkpt lat="46.65455529412823" lon="6.523549848548291"><ele>473.66666666666663</ele><time>2026-04-11T10:28:07Z</time></trkpt><trkpt lat="46.654654206293806" lon="6.523342881520376"><ele>476.3333333333333</ele><time>2026-04-11T10:28:08Z</time></trkpt><trkpt lat="46.654751900704646" lon="6.52314621522917"><ele>479.0</ele><time>2026-04-11T10:28:09Z</time></trkpt><trkpt lat="46.654847808203066" lon="6.522951350783385"><ele>477.66666666666663</ele><time>2026-04-11T10:28:10Z</time></trkpt><trkpt lat="46.65494963174335" lon="6.5227619028780985"><ele>476.33333333333337</ele><time>2026-04-11T10:28:11Z</time></trkpt><trkpt lat="46.655055638833176" lon="6.5225769982580415"><ele>475.0</ele><time>2026-04-11T10:28:12Z</time></trkpt><trkpt lat="46.6551749084557" lon="6.522398027321858"><ele>476.6666666666667</ele><time>2026-04-11T10:28:13Z</time></trkpt><trkpt lat="46.65529409016583" lon="6.522220604028764"><ele>478.33333333333337</ele><time>2026-04-11T10:28:14Z</time></trkpt><trkpt lat="46.65542070481498" lon="6.52204860826695"><ele>480.0</ele><time>2026-04-11T10:28:15Z</time></trkpt><trkpt lat="46.655551375375836" lon="6.521887804593084"><ele>480.0</ele><time>2026-04-11T10:28:16Z</time></trkpt><trkpt lat="46.65567607056589" lon="6.5217151187348215"><ele>480.0</ele><time>2026-04-11T10:28:17Z</time></trkpt><trkpt lat="46.65580671502594" lon="6.521554963596038"><ele>480.0</ele><time>2026-04-11T10:28:18Z</time></trkpt><trkpt lat="46.6559413053847" lon="6.521398900584503"><ele>480.66666666666663</ele><time>2026-04-11T10:28:19Z</time></trkpt><trkpt lat="46.65606594352225" lon="6.5212262501172855"><ele>481.3333333333333</ele><time>2026-04-11T10:28:20Z</time></trkpt><trkpt lat="46.656193405288334" lon="6.521056828750077"><ele>482.0</ele><time>2026-04-11T10:28:21Z</time></trkpt><trkpt lat="46.656319852082575" lon="6.520897426339977"><ele>482.0</ele><time>2026-04-11T10:28:22Z</time></trkpt><trkpt lat="46.65642977696664" lon="6.520734348332526"><ele>482.0</ele><time>2026-04-11T10:28:23Z</time></trkpt><trkpt lat="46.65653366686682" lon="6.520572746266232"><ele>482.0</ele><time>2026-04-11T10:28:24Z</time></trkpt><trkpt lat="46.656645600485035" lon="6.520404274942653"><ele>483.0</ele><time>2026-04-11T10:28:25Z</time></trkpt><trkpt lat="46.65675521928159" lon="6.520226441540788"><ele>484.0</ele><time>2026-04-11T10:28:26Z</time></trkpt><trkpt lat="46.65686134999653" lon="6.520052694834415"><ele>485.0</ele><time>2026-04-11T10:28:27Z</time></trkpt><trkpt lat="46.65695895723559" lon="6.519892986588389"><ele>485.0</ele><time>2026-04-11T10:28:28Z</time></trkpt><trkpt lat="46.65705676380519" lon="6.519730429716229"><ele>485.0</ele><time>2026-04-11T10:28:29Z</time></trkpt><trkpt lat="46.65715048563712" lon="6.519573701036735"><ele>485.0</ele><time>2026-04-11T10:28:30Z</time></trkpt><trkpt lat="46.65723807251863" lon="6.519425214862344"><ele>485.0</ele><time>2026-04-11T10:28:31Z</time></trkpt><trkpt lat="46.65732197654559" lon="6.519286532256112"><ele>483.75</ele><time>2026-04-11T10:28:32Z</time></trkpt><trkpt lat="46.657410457445025" lon="6.5191458498831185"><ele>482.5</ele><time>2026-04-11T10:28:33Z</time></trkpt><trkpt lat="46.657504562999236" lon="6.518992645762224"><ele>481.25</ele><time>2026-04-11T10:28:34Z</time></trkpt><trkpt lat="46.65759468922411" lon="6.51884449832937"><ele>480.0</ele><time>2026-04-11T10:28:35Z</time></trkpt><trkpt lat="46.657680299433956" lon="6.518700000826856"><ele>480.8</ele><time>2026-04-11T10:28:36Z</time></trkpt><trkpt lat="46.65776132658581" lon="6.5185691817095455"><ele>481.6</ele><time>2026-04-11T10:28:37Z</time></trkpt><trkpt lat="46.657833815145736" lon="6.518452833201589"><ele>482.4</ele><time>2026-04-11T10:28:38Z</time></trkpt><trkpt lat="46.657899670293176" lon="6.518343201380458"><ele>483.2</ele><time>2026-04-11T10:28:39Z</time></trkpt><trkpt lat="46.65795837548461" lon="6.51824501211685"><ele>484.0</ele><time>2026-04-11T10:28:40Z</time></trkpt><trkpt lat="46.65801457111621" lon="6.518153212010392"><ele>484.00000000000006</ele><time>2026-04-11T10:28:41Z</time></trkpt><trkpt lat="46.65807600709521" lon="6.518059701355455"><ele>484.0</ele><time>2026-04-11T10:28:42Z</time></trkpt><trkpt lat="46.65813947131513" lon="6.517958834235867"><ele>484.0</ele><time>2026-04-11T10:28:43Z</time></trkpt><trkpt lat="46.65819602304727" lon="6.517864728459231"><ele>484.0</ele><time>2026-04-11T10:28:44Z</time></trkpt><trkpt lat="46.658238027112866" lon="6.517795717577574"><ele>484.00000000000006</ele><time>2026-04-11T10:28:45Z</time></trkpt><trkpt lat="46.658297607478374" lon="6.5177062248497935"><ele>484.0</ele><time>2026-04-11T10:28:47Z</time></trkpt><trkpt lat="46.658355638133685" lon="6.517630684993725"><ele>483.1666666666667</ele><time>2026-04-11T10:28:49Z</time></trkpt><trkpt lat="46.658416604383476" lon="6.517554180740618"><ele>482.33333333333337</ele><time>2026-04-11T10:28:52Z</time></trkpt><trkpt lat="46.65847599593411" lon="6.517471784377804"><ele>481.5</ele><time>2026-04-11T10:28:54Z</time></trkpt><trkpt lat="46.658536025192426" lon="6.5173962682308835"><ele>480.66666666666663</ele><time>2026-04-11T10:28:57Z</time></trkpt><trkpt lat="46.65860820458504" lon="6.5173119061642915"><ele>479.8333333333333</ele><time>2026-04-11T10:29:01.001Z</time></trkpt><trkpt lat="46.6587011728149" lon="6.517213433766409"><ele>479.0</ele><time>2026-04-11T10:29:03.001Z</time></trkpt><trkpt lat="46.65877822125891" lon="6.517125103379697"><ele>480.6</ele><time>2026-04-11T10:29:05.001Z</time></trkpt><trkpt lat="46.65885062608753" lon="6.5170445252757405"><ele>482.2</ele><time>2026-04-11T10:29:07.001Z</time></trkpt><trkpt lat="46.65891778836487" lon="6.516966409749385"><ele>483.80000000000007</ele><time>2026-04-11T10:29:09.001Z</time></trkpt><trkpt lat="46.65898457020427" lon="6.516877627821251"><ele>485.40000000000003</ele><time>2026-04-11T10:29:11.001Z</time></trkpt><trkpt lat="46.65904499269646" lon="6.516798218245274"><ele>487.0</ele><time>2026-04-11T10:29:13.001Z</time></trkpt><trkpt lat="46.659125346859696" lon="6.516680155757784"><ele>487.0</ele><time>2026-04-11T10:29:15.001Z</time></trkpt><trkpt lat="46.65918903352364" lon="6.516597100606981"><ele>487.00000000000006</ele><time>2026-04-11T10:29:16.001Z</time></trkpt><trkpt lat="46.659257395864124" lon="6.516498631317407"><ele>487.00000000000006</ele><time>2026-04-11T10:29:17.001Z</time></trkpt><trkpt lat="46.65934298184933" lon="6.516388171326324"><ele>487.0</ele><time>2026-04-11T10:29:18.001Z</time></trkpt><trkpt lat="46.65942158661036" lon="6.516286487856962"><ele>487.0</ele><time>2026-04-11T10:29:19.001Z</time></trkpt><trkpt lat="46.65948787213167" lon="6.516203313808047"><ele>488.33333333333337</ele><time>2026-04-11T10:29:20.001Z</time></trkpt><trkpt lat="46.659552841422645" lon="6.516116916881619"><ele>489.6666666666667</ele><time>2026-04-11T10:29:21.001Z</time></trkpt><trkpt lat="46.659610768758704" lon="6.5160382367536425"><ele>491.0</ele><time>2026-04-11T10:29:22.001Z</time></trkpt><trkpt lat="46.659661089528655" lon="6.515974482298664"><ele>492.33333333333337</ele><time>2026-04-11T10:29:23.001Z</time></trkpt><trkpt lat="46.65971125260093" lon="6.515915870317673"><ele>493.6666666666667</ele><time>2026-04-11T10:29:24.001Z</time></trkpt><trkpt lat="46.65976465112517" lon="6.5158596345901"><ele>495.0</ele><time>2026-04-11T10:29:25.001Z</time></trkpt><trkpt lat="46.659840036039455" lon="6.515774960303902"><ele>495.0</ele><time>2026-04-11T10:29:27.001Z</time></trkpt><trkpt lat="46.65990217658743" lon="6.51567343653134"><ele>495.0</ele><time>2026-04-11T10:29:30.001Z</time></trkpt><trkpt lat="46.659993346716476" lon="6.515591782595287"><ele>495.0</ele><time>2026-04-11T10:29:32.001Z</time></trkpt><trkpt lat="46.66005763449271" lon="6.515579085263511"><ele>495.0</ele><time>2026-04-11T10:29:33.001Z</time></trkpt><trkpt lat="46.66013020645506" lon="6.515570716887285"><ele>495.0</ele><time>2026-04-11T10:29:34.001Z</time></trkpt><trkpt lat="46.66020610758208" lon="6.515556161082771"><ele>495.0</ele><time>2026-04-11T10:29:35.001Z</time></trkpt><trkpt lat="46.66027933404615" lon="6.515514956310298"><ele>496.0</ele><time>2026-04-11T10:29:36.001Z</time></trkpt><trkpt lat="46.66033973607868" lon="6.515453752304161"><ele>497.0</ele><time>2026-04-11T10:29:37.001Z</time></trkpt><trkpt lat="46.66038900117542" lon="6.5153740839994905"><ele>498.0</ele><time>2026-04-11T10:29:38.001Z</time></trkpt><trkpt lat="46.66043548547013" lon="6.515275293412741"><ele>499.0</ele><time>2026-04-11T10:29:39.001Z</time></trkpt><trkpt lat="46.66049513231959" lon="6.515168673125566"><ele>500.0</ele><time>2026-04-11T10:29:40Z</time></trkpt><trkpt lat="46.66058065837949" lon="6.515062449383566"><ele>501.0</ele><time>2026-04-11T10:29:41Z</time></trkpt><trkpt lat="46.66067523467418" lon="6.514950202271594"><ele>501.0</ele><time>2026-04-11T10:29:42Z</time></trkpt><trkpt lat="46.66075684272037" lon="6.514835650444785"><ele>501.0</ele><time>2026-04-11T10:29:43Z</time></trkpt><trkpt lat="46.6608338889789" lon="6.514714646056092"><ele>501.0</ele><time>2026-04-11T10:29:44Z</time></trkpt><trkpt lat="46.66091842573705" lon="6.514595172577504"><ele>501.0</ele><time>2026-04-11T10:29:45Z</time></trkpt><trkpt lat="46.66100103659172" lon="6.514490676691541"><ele>499.4</ele><time>2026-04-11T10:29:46Z</time></trkpt><trkpt lat="46.66108435551234" lon="6.514396193209404"><ele>497.8</ele><time>2026-04-11T10:29:47Z</time></trkpt><trkpt lat="46.661171354979736" lon="6.514330289916137"><ele>496.19999999999993</ele><time>2026-04-11T10:29:48Z</time></trkpt><trkpt lat="46.66127628504434" lon="6.514279597539062"><ele>494.59999999999997</ele><time>2026-04-11T10:29:49Z</time></trkpt><trkpt lat="46.661375196841185" lon="6.514269113485979"><ele>493.0</ele><time>2026-04-11T10:29:50Z</time></trkpt><trkpt lat="46.66148725271787" lon="6.514283967478726"><ele>492.5</ele><time>2026-04-11T10:29:51Z</time></trkpt><trkpt lat="46.661592624956256" lon="6.514329050939418"><ele>492.0</ele><time>2026-04-11T10:29:52Z</time></trkpt><trkpt lat="46.66169256017899" lon="6.514394963085719"><ele>491.5</ele><time>2026-04-11T10:29:53Z</time></trkpt><trkpt lat="46.66179642361089" lon="6.514491455868448"><ele>491.0</ele><time>2026-04-11T10:29:54Z</time></trkpt><trkpt lat="46.661905361555455" lon="6.514612514213246"><ele>492.0</ele><time>2026-04-11T10:29:55Z</time></trkpt><trkpt lat="46.66201610345205" lon="6.514766960377396"><ele>493.0</ele><time>2026-04-11T10:29:56Z</time></trkpt><trkpt lat="46.66213031029044" lon="6.514903267654197"><ele>494.0</ele><time>2026-04-11T10:29:57Z</time></trkpt><trkpt lat="46.662246040940815" lon="6.515036217186458"><ele>495.0</ele><time>2026-04-11T10:29:58Z</time></trkpt><trkpt lat="46.662358304893914" lon="6.5151600812674575"><ele>495.0</ele><time>2026-04-11T10:29:59Z</time></trkpt><trkpt lat="46.66246961024706" lon="6.5152678468173635"><ele>495.0</ele><time>2026-04-11T10:30:00Z</time></trkpt><trkpt lat="46.662589640239524" lon="6.515360920019997"><ele>495.0</ele><time>2026-04-11T10:30:01Z</time></trkpt><trkpt lat="46.66271830227254" lon="6.515428838919706"><ele>495.0</ele><time>2026-04-11T10:30:02Z</time></trkpt><trkpt lat="46.662851981548464" lon="6.515461317103366"><ele>494.25</ele><time>2026-04-11T10:30:03Z</time></trkpt><trkpt lat="46.66298966550723" lon="6.5154686597386435"><ele>493.5</ele><time>2026-04-11T10:30:04Z</time></trkpt><trkpt lat="46.66312718247821" lon="6.515453536876326"><ele>492.75</ele><time>2026-04-11T10:30:05Z</time></trkpt><trkpt lat="46.66326083613416" lon="6.51541278891739"><ele>492.0</ele><time>2026-04-11T10:30:06Z</time></trkpt><trkpt lat="46.66339882770786" lon="6.515353305682575"><ele>490.5</ele><time>2026-04-11T10:30:07Z</time></trkpt><trkpt lat="46.66353822192506" lon="6.515282782581453"><ele>489.0</ele><time>2026-04-11T10:30:08Z</time></trkpt><trkpt lat="46.66367334478344" lon="6.515204553294368"><ele>487.5</ele><time>2026-04-11T10:30:09Z</time></trkpt><trkpt lat="46.66380172782336" lon="6.5151134530448065"><ele>486.0</ele><time>2026-04-11T10:30:10Z</time></trkpt><trkpt lat="46.663921036925665" lon="6.515004689584734"><ele>485.75</ele><time>2026-04-11T10:30:11Z</time></trkpt><trkpt lat="46.664029195595724" lon="6.5148793962804"><ele>485.5</ele><time>2026-04-11T10:30:12Z</time></trkpt><trkpt lat="46.66412990635685" lon="6.514747626352134"><ele>485.25</ele><time>2026-04-11T10:30:13Z</time></trkpt><trkpt lat="46.66422523085703" lon="6.514604934168755"><ele>485.0</ele><time>2026-04-11T10:30:14Z</time></trkpt><trkpt lat="46.66432282472441" lon="6.514445576808587"><ele>485.0</ele><time>2026-04-11T10:30:15Z</time></trkpt><trkpt lat="46.664420788066565" lon="6.514279722776008"><ele>485.0</ele><time>2026-04-11T10:30:16Z</time></trkpt><trkpt lat="46.66450851086087" lon="6.514119481024598"><ele>485.0</ele><time>2026-04-11T10:30:17Z</time></trkpt><trkpt lat="46.664596184633346" lon="6.5139523477192505"><ele>485.0</ele><time>2026-04-11T10:30:18Z</time></trkpt><trkpt lat="46.66468013075355" lon="6.5137893328484004"><ele>486.0</ele><time>2026-04-11T10:30:19Z</time></trkpt><trkpt lat="46.664757134492916" lon="6.513637655780472"><ele>487.0</ele><time>2026-04-11T10:30:20Z</time></trkpt><trkpt lat="46.66483039310825" lon="6.513502244471034"><ele>488.0</ele><time>2026-04-11T10:30:21Z</time></trkpt><trkpt lat="46.66490137356643" lon="6.5133640548630325"><ele>489.0</ele><time>2026-04-11T10:30:22Z</time></trkpt><trkpt lat="46.66497064150622" lon="6.513220440294252"><ele>489.0</ele><time>2026-04-11T10:30:23Z</time></trkpt><trkpt lat="46.66504403065257" lon="6.5130609420745875"><ele>489.0</ele><time>2026-04-11T10:30:24Z</time></trkpt><trkpt lat="46.66512277737226" lon="6.512897812770808"><ele>489.0</ele><time>2026-04-11T10:30:25Z</time></trkpt><trkpt lat="46.665200905807126" lon="6.512725923915071"><ele>489.0</ele><time>2026-04-11T10:30:26Z</time></trkpt><trkpt lat="46.66530455085941" lon="6.512583916234837"><ele>489.25</ele><time>2026-04-11T10:30:27Z</time></trkpt><trkpt lat="46.665393861028065" lon="6.512430151340211"><ele>489.5</ele><time>2026-04-11T10:30:28Z</time></trkpt><trkpt lat="46.6654929128624" lon="6.512279521109303"><ele>489.75</ele><time>2026-04-11T10:30:29Z</time></trkpt><trkpt lat="46.66557859904977" lon="6.51213905266815"><ele>490.0</ele><time>2026-04-11T10:30:30Z</time></trkpt><trkpt lat="46.66565978283918" lon="6.512002952066555"><ele>490.25</ele><time>2026-04-11T10:30:31Z</time></trkpt><trkpt lat="46.66574122106409" lon="6.511864119656543"><ele>490.5</ele><time>2026-04-11T10:30:32Z</time></trkpt><trkpt lat="46.66582864813237" lon="6.511725900354395"><ele>490.75</ele><time>2026-04-11T10:30:33Z</time></trkpt><trkpt lat="46.66591550853108" lon="6.511587607739958"><ele>491.0</ele><time>2026-04-11T10:30:34Z</time></trkpt><trkpt lat="46.66600014263799" lon="6.511443629613852"><ele>491.0</ele><time>2026-04-11T10:30:35Z</time></trkpt><trkpt lat="46.66608445545026" lon="6.511303620264353"><ele>491.0</ele><time>2026-04-11T10:30:36Z</time></trkpt><trkpt lat="46.666160458471" lon="6.5111551202848"><ele>491.0</ele><time>2026-04-11T10:30:37Z</time></trkpt><trkpt lat="46.66626171816372" lon="6.511035007746148"><ele>491.0</ele><time>2026-04-11T10:30:38Z</time></trkpt><trkpt lat="46.66633998217504" lon="6.510922004355382"><ele>490.66666666666663</ele><time>2026-04-11T10:30:39Z</time></trkpt><trkpt lat="46.666414778357925" lon="6.5108218945178695"><ele>490.3333333333333</ele><time>2026-04-11T10:30:40Z</time></trkpt><trkpt lat="46.666484751034005" lon="6.510751123451491"><ele>490.0</ele><time>2026-04-11T10:30:41Z</time></trkpt><trkpt lat="46.66655429607869" lon="6.510709368725567"><ele>489.66666666666663</ele><time>2026-04-11T10:30:42Z</time></trkpt><trkpt lat="46.66662914758547" lon="6.5106929158432125"><ele>489.3333333333333</ele><time>2026-04-11T10:30:43Z</time></trkpt><trkpt lat="46.666713158804235" lon="6.51069141388215"><ele>489.0</ele><time>2026-04-11T10:30:44Z</time></trkpt><trkpt lat="46.66679133470612" lon="6.510722713770409"><ele>489.0</ele><time>2026-04-11T10:30:45Z</time></trkpt><trkpt lat="46.6668745954742" lon="6.510771438761064"><ele>489.0</ele><time>2026-04-11T10:30:46Z</time></trkpt><trkpt lat="46.666949407027545" lon="6.510841936580348"><ele>489.0</ele><time>2026-04-11T10:30:47Z</time></trkpt><trkpt lat="46.667028508110384" lon="6.510973356501441"><ele>489.0</ele><time>2026-04-11T10:30:48Z</time></trkpt><trkpt lat="46.667109292983525" lon="6.511113489818487"><ele>489.0</ele><time>2026-04-11T10:30:49Z</time></trkpt><trkpt lat="46.667189981743306" lon="6.511228580885006"><ele>490.25</ele><time>2026-04-11T10:30:50Z</time></trkpt><trkpt lat="46.66726402685959" lon="6.511356348067491"><ele>491.5</ele><time>2026-04-11T10:30:51Z</time></trkpt><trkpt lat="46.66733076370241" lon="6.511497949378651"><ele>492.75</ele><time>2026-04-11T10:30:52Z</time></trkpt><trkpt lat="46.66739438086288" lon="6.511656868880614"><ele>494.0</ele><time>2026-04-11T10:30:53Z</time></trkpt><trkpt lat="46.66746402102355" lon="6.5118275705757105"><ele>494.0</ele><time>2026-04-11T10:30:54Z</time></trkpt><trkpt lat="46.667526980853964" lon="6.512015833821328"><ele>494.0</ele><time>2026-04-11T10:30:55Z</time></trkpt><trkpt lat="46.66758841758966" lon="6.512195857629726"><ele>494.0</ele><time>2026-04-11T10:30:56Z</time></trkpt><trkpt lat="46.66765235268472" lon="6.512373098663127"><ele>494.0</ele><time>2026-04-11T10:30:57Z</time></trkpt><trkpt lat="46.667711758364206" lon="6.512531963487467"><ele>493.79999999999995</ele><time>2026-04-11T10:30:58Z</time></trkpt><trkpt lat="46.667772822318426" lon="6.51269214792939"><ele>493.59999999999997</ele><time>2026-04-11T10:30:59Z</time></trkpt><trkpt lat="46.66783210894264" lon="6.5128341662570275"><ele>493.4</ele><time>2026-04-11T10:31:00Z</time></trkpt><trkpt lat="46.66790056338375" lon="6.512960649531243"><ele>493.2</ele><time>2026-04-11T10:31:01Z</time></trkpt><trkpt lat="46.66797468933945" lon="6.513036051931527"><ele>493.0</ele><time>2026-04-11T10:31:02Z</time></trkpt><trkpt lat="46.66806576464806" lon="6.513090219583994"><ele>494.25</ele><time>2026-04-11T10:31:03Z</time></trkpt><trkpt lat="46.66818012354032" lon="6.513138861288789"><ele>495.5</ele><time>2026-04-11T10:31:04Z</time></trkpt><trkpt lat="46.66831263473603" lon="6.513174418623844"><ele>496.75</ele><time>2026-04-11T10:31:05Z</time></trkpt><trkpt lat="46.668446737775305" lon="6.513166656939596"><ele>498.0</ele><time>2026-04-11T10:31:06Z</time></trkpt><trkpt lat="46.668564337351164" lon="6.513132039542987"><ele>499.25</ele><time>2026-04-11T10:31:07Z</time></trkpt><trkpt lat="46.66868495493171" lon="6.513079116402992"><ele>500.5</ele><time>2026-04-11T10:31:08Z</time></trkpt><trkpt lat="46.66879807040129" lon="6.513014179549946"><ele>501.75</ele><time>2026-04-11T10:31:09Z</time></trkpt><trkpt lat="46.66890324752763" lon="6.512937364706811"><ele>503.0</ele><time>2026-04-11T10:31:10Z</time></trkpt><trkpt lat="46.6689997137362" lon="6.512831636237289"><ele>504.0</ele><time>2026-04-11T10:31:11Z</time></trkpt><trkpt lat="46.66909539789787" lon="6.512710400406474"><ele>505.0</ele><time>2026-04-11T10:31:12Z</time></trkpt><trkpt lat="46.66918975195736" lon="6.5126000458131506"><ele>506.0</ele><time>2026-04-11T10:31:13Z</time></trkpt><trkpt lat="46.66927996872701" lon="6.512471803690273"><ele>507.0</ele><time>2026-04-11T10:31:14Z</time></trkpt><trkpt lat="46.66935479516236" lon="6.512324367150372"><ele>507.0</ele><time>2026-04-11T10:31:15Z</time></trkpt><trkpt lat="46.66941518115208" lon="6.5121632862511"><ele>507.0</ele><time>2026-04-11T10:31:16Z</time></trkpt><trkpt lat="46.669456624648795" lon="6.511998624469971"><ele>507.0</ele><time>2026-04-11T10:31:17Z</time></trkpt><trkpt lat="46.66947944442158" lon="6.511846691000391"><ele>507.0</ele><time>2026-04-11T10:31:18Z</time></trkpt><trkpt lat="46.669482269466414" lon="6.511702091411136"><ele>508.75</ele><time>2026-04-11T10:31:19Z</time></trkpt><trkpt lat="46.66947012932804" lon="6.511548758136589"><ele>510.5</ele><time>2026-04-11T10:31:20Z</time></trkpt><trkpt lat="46.66944294401838" lon="6.511387195661391"><ele>512.25</ele><time>2026-04-11T10:31:21Z</time></trkpt><trkpt lat="46.669395200266834" lon="6.51121399854844"><ele>514.0</ele><time>2026-04-11T10:31:22.001Z</time></trkpt><trkpt lat="46.66934078314838" lon="6.511041304234783"><ele>514.0</ele><time>2026-04-11T10:31:23.001Z</time></trkpt><trkpt lat="46.6692736006774" lon="6.510857767190175"><ele>514.0</ele><time>2026-04-11T10:31:24.001Z</time></trkpt><trkpt lat="46.66920735073662" lon="6.51067162068934"><ele>514.0</ele><time>2026-04-11T10:31:25.001Z</time></trkpt><trkpt lat="46.66914679663401" lon="6.510493066594751"><ele>514.0</ele><time>2026-04-11T10:31:26.001Z</time></trkpt><trkpt lat="46.6691052554215" lon="6.510317447572154"><ele>515.0</ele><time>2026-04-11T10:31:27.001Z</time></trkpt><trkpt lat="46.6690868702699" lon="6.510130859680871"><ele>516.0</ele><time>2026-04-11T10:31:28.001Z</time></trkpt><trkpt lat="46.66908694911923" lon="6.509927947155097"><ele>517.0</ele><time>2026-04-11T10:31:29.001Z</time></trkpt><trkpt lat="46.669095197684555" lon="6.509729872450269"><ele>518.0</ele><time>2026-04-11T10:31:30.001Z</time></trkpt><trkpt lat="46.66912602150262" lon="6.509565225073668"><ele>518.75</ele><time>2026-04-11T10:31:31.001Z</time></trkpt><trkpt lat="46.66916760421527" lon="6.509395635598435"><ele>519.5</ele><time>2026-04-11T10:31:32.001Z</time></trkpt><trkpt lat="46.669218636658904" lon="6.509210752707113"><ele>520.25</ele><time>2026-04-11T10:31:33.001Z</time></trkpt><trkpt lat="46.66928702844591" lon="6.509038903383355"><ele>521.0</ele><time>2026-04-11T10:31:34.001Z</time></trkpt><trkpt lat="46.66935746572794" lon="6.508883510362199"><ele>521.25</ele><time>2026-04-11T10:31:35.001Z</time></trkpt><trkpt lat="46.66943823934047" lon="6.508730796872349"><ele>521.5</ele><time>2026-04-11T10:31:36.001Z</time></trkpt><trkpt lat="46.66953094383236" lon="6.508570610048876"><ele>521.75</ele><time>2026-04-11T10:31:37.001Z</time></trkpt><trkpt lat="46.66964187873193" lon="6.508416879941234"><ele>522.0</ele><time>2026-04-11T10:31:38.001Z</time></trkpt><trkpt lat="46.66976214806292" lon="6.508262157065821"><ele>522.6666666666666</ele><time>2026-04-11T10:31:39.001Z</time></trkpt><trkpt lat="46.66987788778812" lon="6.508103215228334"><ele>523.3333333333333</ele><time>2026-04-11T10:31:40.001Z</time></trkpt><trkpt lat="46.66999486145754" lon="6.507928924663673"><ele>524.0</ele><time>2026-04-11T10:31:41.001Z</time></trkpt><trkpt lat="46.67011914803904" lon="6.507749415763161"><ele>524.3333333333333</ele><time>2026-04-11T10:31:42.001Z</time></trkpt><trkpt lat="46.670237586041544" lon="6.507586256545691"><ele>524.6666666666666</ele><time>2026-04-11T10:31:43.001Z</time></trkpt><trkpt lat="46.67035744495304" lon="6.507419832902091"><ele>525.0</ele><time>2026-04-11T10:31:44.001Z</time></trkpt><trkpt lat="46.670478794806684" lon="6.507254193979832"><ele>525.3333333333334</ele><time>2026-04-11T10:31:45.001Z</time></trkpt><trkpt lat="46.67059980169475" lon="6.507084584401121"><ele>525.6666666666667</ele><time>2026-04-11T10:31:46Z</time></trkpt><trkpt lat="46.67072157878105" lon="6.5069143094975415"><ele>526.0</ele><time>2026-04-11T10:31:47Z</time></trkpt><trkpt lat="46.67084250464257" lon="6.5067519790638535"><ele>527.75</ele><time>2026-04-11T10:31:48Z</time></trkpt><trkpt lat="46.670955558198784" lon="6.506607670780442"><ele>529.5</ele><time>2026-04-11T10:31:49Z</time></trkpt><trkpt lat="46.671057664721445" lon="6.506483881834489"><ele>531.25</ele><time>2026-04-11T10:31:50Z</time></trkpt><trkpt lat="46.671137689160425" lon="6.50639566835982"><ele>533.0</ele><time>2026-04-11T10:31:51Z</time></trkpt><trkpt lat="46.671224479653205" lon="6.50631983309887"><ele>533.5</ele><time>2026-04-11T10:31:52Z</time></trkpt><trkpt lat="46.6713354223511" lon="6.506253946792103"><ele>534.0</ele><time>2026-04-11T10:31:53Z</time></trkpt><trkpt lat="46.67146597473175" lon="6.5062041997519655"><ele>534.5</ele><time>2026-04-11T10:31:54Z</time></trkpt><trkpt lat="46.671609883067205" lon="6.506173448171827"><ele>535.0</ele><time>2026-04-11T10:31:55Z</time></trkpt><trkpt lat="46.671759625111044" lon="6.506159955935721"><ele>536.6666666666667</ele><time>2026-04-11T10:31:56Z</time></trkpt><trkpt lat="46.67191739952756" lon="6.506166421603709"><ele>538.3333333333334</ele><time>2026-04-11T10:31:56.999Z</time></trkpt><trkpt lat="46.67207972895005" lon="6.506203138745066"><ele>540.0</ele><time>2026-04-11T10:31:57.999Z</time></trkpt><trkpt lat="46.67224426519497" lon="6.506266063384418"><ele>540.0</ele><time>2026-04-11T10:31:59Z</time></trkpt><trkpt lat="46.67241163440346" lon="6.506330573619666"><ele>540.0</ele><time>2026-04-11T10:32:00Z</time></trkpt><trkpt lat="46.67257589807626" lon="6.506384992320672"><ele>540.0</ele><time>2026-04-11T10:32:01Z</time></trkpt><trkpt lat="46.6727462817269" lon="6.506432642925419"><ele>539.6666666666666</ele><time>2026-04-11T10:32:02Z</time></trkpt><trkpt lat="46.67292254769047" lon="6.506489806896869"><ele>539.3333333333333</ele><time>2026-04-11T10:32:03Z</time></trkpt><trkpt lat="46.673091991313576" lon="6.506551358265669"><ele>539.0</ele><time>2026-04-11T10:32:04Z</time></trkpt><trkpt lat="46.67326551425097" lon="6.50661900967012"><ele>539.0</ele><time>2026-04-11T10:32:05Z</time></trkpt><trkpt lat="46.673450164330134" lon="6.506703578644369"><ele>539.0</ele><time>2026-04-11T10:32:06Z</time></trkpt><trkpt lat="46.67363576514945" lon="6.50678031144669"><ele>539.0</ele><time>2026-04-11T10:32:07Z</time></trkpt><trkpt lat="46.67380767417937" lon="6.506843952650715"><ele>538.6666666666666</ele><time>2026-04-11T10:32:08Z</time></trkpt><trkpt lat="46.67397961290862" lon="6.506891569087176"><ele>538.3333333333334</ele><time>2026-04-11T10:32:09Z</time></trkpt><trkpt lat="46.67414897310407" lon="6.506921289342954"><ele>538.0</ele><time>2026-04-11T10:32:10Z</time></trkpt><trkpt lat="46.6743164720769" lon="6.506929112699242"><ele>537.3333333333334</ele><time>2026-04-11T10:32:11Z</time></trkpt><trkpt lat="46.67449304397423" lon="6.506917331369255"><ele>536.6666666666666</ele><time>2026-04-11T10:32:12Z</time></trkpt><trkpt lat="46.674675712068684" lon="6.506877127570154"><ele>536.0</ele><time>2026-04-11T10:32:13Z</time></trkpt><trkpt lat="46.67485895271375" lon="6.50681239975335"><ele>536.0</ele><time>2026-04-11T10:32:14Z</time></trkpt><trkpt lat="46.675036747437694" lon="6.506741620774563"><ele>536.0</ele><time>2026-04-11T10:32:15Z</time></trkpt><trkpt lat="46.67520002684674" lon="6.506671359421691"><ele>536.0</ele><time>2026-04-11T10:32:16Z</time></trkpt><trkpt lat="46.67535813926061" lon="6.506634603134761"><ele>536.0</ele><time>2026-04-11T10:32:17Z</time></trkpt><trkpt lat="46.6755345173607" lon="6.506634914669511"><ele>536.0</ele><time>2026-04-11T10:32:18Z</time></trkpt><trkpt lat="46.67571556232122" lon="6.506680456277855"><ele>536.0</ele><time>2026-04-11T10:32:19Z</time></trkpt><trkpt lat="46.675896384562186" lon="6.506762596592878"><ele>536.0</ele><time>2026-04-11T10:32:20Z</time></trkpt><trkpt lat="46.67606869896213" lon="6.5068754856051765"><ele>536.0</ele><time>2026-04-11T10:32:21Z</time></trkpt><trkpt lat="46.676242158199706" lon="6.506998126111232"><ele>536.0</ele><time>2026-04-11T10:32:22Z</time></trkpt><trkpt lat="46.67641894910564" lon="6.507105829692482"><ele>535.0</ele><time>2026-04-11T10:32:23Z</time></trkpt><trkpt lat="46.67660058121374" lon="6.507197765996059"><ele>534.0</ele><time>2026-04-11T10:32:24Z</time></trkpt><trkpt lat="46.67678742640142" lon="6.507282225371439"><ele>533.0</ele><time>2026-04-11T10:32:25Z</time></trkpt><trkpt lat="46.67696951754457" lon="6.507356314201346"><ele>536.3333333333333</ele><time>2026-04-11T10:32:26Z</time></trkpt><trkpt lat="46.677155405091085" lon="6.50742680248031"><ele>539.6666666666666</ele><time>2026-04-11T10:32:27Z</time></trkpt><trkpt lat="46.677339021602315" lon="6.507507535536044"><ele>543.0</ele><time>2026-04-11T10:32:28Z</time></trkpt><trkpt lat="46.67752095377577" lon="6.5075970319070295"><ele>543.0</ele><time>2026-04-11T10:32:29Z</time></trkpt><trkpt lat="46.67769460248455" lon="6.507687002395866"><ele>543.0</ele><time>2026-04-11T10:32:30Z</time></trkpt><trkpt lat="46.67785159995484" lon="6.507773029539897"><ele>543.0</ele><time>2026-04-11T10:32:31Z</time></trkpt><trkpt lat="46.67798770957528" lon="6.5078486500803825"><ele>542.25</ele><time>2026-04-11T10:32:32Z</time></trkpt><trkpt lat="46.678115289604" lon="6.507902125392184"><ele>541.5</ele><time>2026-04-11T10:32:33Z</time></trkpt><trkpt lat="46.678250832612605" lon="6.507927699292737"><ele>540.75</ele><time>2026-04-11T10:32:34Z</time></trkpt><trkpt lat="46.678391204227445" lon="6.507921590880213"><ele>540.0</ele><time>2026-04-11T10:32:35Z</time></trkpt><trkpt lat="46.67853348985603" lon="6.507883490213673"><ele>542.75</ele><time>2026-04-11T10:32:36Z</time></trkpt><trkpt lat="46.678670580815464" lon="6.507813495614583"><ele>545.5</ele><time>2026-04-11T10:32:37Z</time></trkpt><trkpt lat="46.678799176018735" lon="6.507706860682949"><ele>548.25</ele><time>2026-04-11T10:32:38Z</time></trkpt><trkpt lat="46.67891165564281" lon="6.507577218153599"><ele>551.0</ele><time>2026-04-11T10:32:39Z</time></trkpt><trkpt lat="46.67900482249577" lon="6.50743532936211"><ele>551.0</ele><time>2026-04-11T10:32:40Z</time></trkpt><trkpt lat="46.6790772465062" lon="6.507280033996526"><ele>551.0</ele><time>2026-04-11T10:32:41Z</time></trkpt><trkpt lat="46.679139969021364" lon="6.507088125773486"><ele>551.0</ele><time>2026-04-11T10:32:42Z</time></trkpt><trkpt lat="46.67919175922948" lon="6.506870354443737"><ele>551.0</ele><time>2026-04-11T10:32:43Z</time></trkpt><trkpt lat="46.679243642130174" lon="6.506640494311032"><ele>551.0</ele><time>2026-04-11T10:32:44Z</time></trkpt><trkpt lat="46.67928862547768" lon="6.506392072987874"><ele>551.0</ele><time>2026-04-11T10:32:45Z</time></trkpt><trkpt lat="46.679328200856375" lon="6.506124641393215"><ele>551.0</ele><time>2026-04-11T10:32:46Z</time></trkpt><trkpt lat="46.67936791536935" lon="6.505860108314585"><ele>551.0</ele><time>2026-04-11T10:32:47Z</time></trkpt><trkpt lat="46.679410892728576" lon="6.5056072523435295"><ele>551.0</ele><time>2026-04-11T10:32:48Z</time></trkpt><trkpt lat="46.67945591385631" lon="6.505353754158443"><ele>551.0</ele><time>2026-04-11T10:32:49Z</time></trkpt><trkpt lat="46.67949336082208" lon="6.50511959307001"><ele>551.3333333333333</ele><time>2026-04-11T10:32:50Z</time></trkpt><trkpt lat="46.679521969178445" lon="6.504898556931279"><ele>551.6666666666666</ele><time>2026-04-11T10:32:51Z</time></trkpt><trkpt lat="46.679541810550226" lon="6.504665787811063"><ele>552.0</ele><time>2026-04-11T10:32:52Z</time></trkpt><trkpt lat="46.67955408218373" lon="6.504426962508071"><ele>552.25</ele><time>2026-04-11T10:32:53Z</time></trkpt><trkpt lat="46.67955667771346" lon="6.504202781079958"><ele>552.5</ele><time>2026-04-11T10:32:54Z</time></trkpt><trkpt lat="46.67955066579148" lon="6.504002967984677"><ele>552.75</ele><time>2026-04-11T10:32:55Z</time></trkpt><trkpt lat="46.67953894007065" lon="6.503795959618838"><ele>553.0</ele><time>2026-04-11T10:32:56Z</time></trkpt><trkpt lat="46.6795190284798" lon="6.503578418232324"><ele>553.0</ele><time>2026-04-11T10:32:57Z</time></trkpt><trkpt lat="46.679486186840485" lon="6.503358746270809"><ele>553.0</ele><time>2026-04-11T10:32:58Z</time></trkpt><trkpt lat="46.6794427722766" lon="6.503136212120408"><ele>553.0</ele><time>2026-04-11T10:32:59Z</time></trkpt><trkpt lat="46.67939367747656" lon="6.502898315403874"><ele>552.6666666666667</ele><time>2026-04-11T10:33:00Z</time></trkpt><trkpt lat="46.67933490010142" lon="6.5026621681076255"><ele>552.3333333333334</ele><time>2026-04-11T10:33:01Z</time></trkpt><trkpt lat="46.679265498095674" lon="6.502443418283777"><ele>552.0</ele><time>2026-04-11T10:33:02Z</time></trkpt><trkpt lat="46.679178321711206" lon="6.502217267887222"><ele>552.6666666666666</ele><time>2026-04-11T10:33:03Z</time></trkpt><trkpt lat="46.67907772303515" lon="6.501988776046961"><ele>553.3333333333333</ele><time>2026-04-11T10:33:04Z</time></trkpt><trkpt lat="46.67896515300299" lon="6.501771020843579"><ele>554.0</ele><time>2026-04-11T10:33:05Z</time></trkpt><trkpt lat="46.678838913410985" lon="6.501557715745014"><ele>554.0</ele><time>2026-04-11T10:33:06Z</time></trkpt><trkpt lat="46.67870464020973" lon="6.501351014026606"><ele>554.0</ele><time>2026-04-11T10:33:07Z</time></trkpt><trkpt lat="46.678570918676485" lon="6.501156396055235"><ele>554.0</ele><time>2026-04-11T10:33:08Z</time></trkpt><trkpt lat="46.67843794291062" lon="6.500971689085267"><ele>557.3333333333333</ele><time>2026-04-11T10:33:09Z</time></trkpt><trkpt lat="46.67830687836769" lon="6.5007816017266205"><ele>560.6666666666666</ele><time>2026-04-11T10:33:10Z</time></trkpt><trkpt lat="46.67819231305937" lon="6.500599625952208"><ele>564.0</ele><time>2026-04-11T10:33:11Z</time></trkpt><trkpt lat="46.678097936457306" lon="6.500430769287009"><ele>563.0</ele><time>2026-04-11T10:33:12Z</time></trkpt><trkpt lat="46.67802584157556" lon="6.500269071075606"><ele>562.0</ele><time>2026-04-11T10:33:13Z</time></trkpt><trkpt lat="46.6779744000916" lon="6.500109473108075"><ele>561.0</ele><time>2026-04-11T10:33:14Z</time></trkpt><trkpt lat="46.67793868269519" lon="6.499952285324741"><ele>560.0</ele><time>2026-04-11T10:33:15Z</time></trkpt><trkpt lat="46.67791730739536" lon="6.499786285129502"><ele>560.0</ele><time>2026-04-11T10:33:16Z</time></trkpt><trkpt lat="46.6779154229346" lon="6.499603864931418"><ele>560.0</ele><time>2026-04-11T10:33:17Z</time></trkpt><trkpt lat="46.67793221192896" lon="6.4994081473904775"><ele>560.0</ele><time>2026-04-11T10:33:18Z</time></trkpt><trkpt lat="46.67797856083601" lon="6.499220519778458"><ele>560.0</ele><time>2026-04-11T10:33:19Z</time></trkpt><trkpt lat="46.678051727918096" lon="6.499043077701159"><ele>560.5</ele><time>2026-04-11T10:33:20Z</time></trkpt><trkpt lat="46.67814418881771" lon="6.498886995525991"><ele>561.0</ele><time>2026-04-11T10:33:21Z</time></trkpt><trkpt lat="46.678256062091585" lon="6.4987517081169734"><ele>561.5</ele><time>2026-04-11T10:33:22Z</time></trkpt><trkpt lat="46.678388722686265" lon="6.498641173998674"><ele>562.0</ele><time>2026-04-11T10:33:23Z</time></trkpt><trkpt lat="46.678537287244026" lon="6.498557555785499"><ele>564.6666666666667</ele><time>2026-04-11T10:33:24Z</time></trkpt><trkpt lat="46.67870280766905" lon="6.498507855945289"><ele>567.3333333333334</ele><time>2026-04-11T10:33:25Z</time></trkpt><trkpt lat="46.67887526113948" lon="6.498494925103072"><ele>570.0</ele><time>2026-04-11T10:33:26Z</time></trkpt><trkpt lat="46.6790485333184" lon="6.498498616671073"><ele>570.0</ele><time>2026-04-11T10:33:27Z</time></trkpt><trkpt lat="46.67922577030518" lon="6.498517675806168"><ele>570.0</ele><time>2026-04-11T10:33:28Z</time></trkpt><trkpt lat="46.679391297337844" lon="6.498534681686395"><ele>570.0</ele><time>2026-04-11T10:33:29Z</time></trkpt><trkpt lat="46.67953195152707" lon="6.498538354917106"><ele>570.5</ele><time>2026-04-11T10:33:30Z</time></trkpt><trkpt lat="46.67964953712134" lon="6.498525574946361"><ele>571.0</ele><time>2026-04-11T10:33:31Z</time></trkpt><trkpt lat="46.679757773580455" lon="6.498479882586757"><ele>571.5</ele><time>2026-04-11T10:33:32Z</time></trkpt><trkpt lat="46.67985975606122" lon="6.498389831344082"><ele>572.0</ele><time>2026-04-11T10:33:33Z</time></trkpt><trkpt lat="46.67994282583457" lon="6.4982684114205815"><ele>572.0</ele><time>2026-04-11T10:33:34Z</time></trkpt><trkpt lat="46.680007194194424" lon="6.498124040850495"><ele>572.0</ele><time>2026-04-11T10:33:35Z</time></trkpt><trkpt lat="46.68004398885197" lon="6.4979637979429254"><ele>572.0</ele><time>2026-04-11T10:33:36Z</time></trkpt><trkpt lat="46.680044614739884" lon="6.497800743735721"><ele>572.0</ele><time>2026-04-11T10:33:37Z</time></trkpt><trkpt lat="46.6800110143608" lon="6.497638390922945"><ele>572.0</ele><time>2026-04-11T10:33:38Z</time></trkpt><trkpt lat="46.67994690366525" lon="6.497466219035342"><ele>572.0</ele><time>2026-04-11T10:33:39.001Z</time></trkpt><trkpt lat="46.67985646275532" lon="6.497299647885395"><ele>572.0</ele><time>2026-04-11T10:33:40.001Z</time></trkpt><trkpt lat="46.67974578406305" lon="6.4971348567064195"><ele>572.0</ele><time>2026-04-11T10:33:41.001Z</time></trkpt><trkpt lat="46.67963888459841" lon="6.496952028097344"><ele>572.0</ele><time>2026-04-11T10:33:42.001Z</time></trkpt><trkpt lat="46.67953409881963" lon="6.4967445478737424"><ele>572.0</ele><time>2026-04-11T10:33:43.001Z</time></trkpt><trkpt lat="46.67942863398971" lon="6.496547452033569"><ele>572.0</ele><time>2026-04-11T10:33:44.001Z</time></trkpt><trkpt lat="46.679319462592915" lon="6.496340817282677"><ele>575.3333333333333</ele><time>2026-04-11T10:33:45.001Z</time></trkpt><trkpt lat="46.679224488171826" lon="6.496132848009197"><ele>578.6666666666666</ele><time>2026-04-11T10:33:46.001Z</time></trkpt><trkpt lat="46.67913183201663" lon="6.495933823441497"><ele>582.0</ele><time>2026-04-11T10:33:47.001Z</time></trkpt><trkpt lat="46.679033610130816" lon="6.495737873571196"><ele>582.0</ele><time>2026-04-11T10:33:48.001Z</time></trkpt><trkpt lat="46.67891767842149" lon="6.495545176188771"><ele>582.0</ele><time>2026-04-11T10:33:49.001Z</time></trkpt><trkpt lat="46.67880016082178" lon="6.495371290679284"><ele>582.0</ele><time>2026-04-11T10:33:50.001Z</time></trkpt><trkpt lat="46.67869178704586" lon="6.495217475635807"><ele>583.2</ele><time>2026-04-11T10:33:51.001Z</time></trkpt><trkpt lat="46.67859856954122" lon="6.495075233349953"><ele>584.4000000000001</ele><time>2026-04-11T10:33:52Z</time></trkpt><trkpt lat="46.678529262013406" lon="6.49494671536912"><ele>585.5999999999999</ele><time>2026-04-11T10:33:53Z</time></trkpt><trkpt lat="46.678480528613335" lon="6.494817340043678"><ele>586.8</ele><time>2026-04-11T10:33:54Z</time></trkpt><trkpt lat="46.67845260882744" lon="6.49467777854557"><ele>588.0</ele><time>2026-04-11T10:33:55Z</time></trkpt><trkpt lat="46.678454830142556" lon="6.494513247151395"><ele>588.0</ele><time>2026-04-11T10:33:56Z</time></trkpt><trkpt lat="46.678486277306135" lon="6.494342810979056"><ele>588.0</ele><time>2026-04-11T10:33:57Z</time></trkpt><trkpt lat="46.678550271565534" lon="6.4941926101173335"><ele>588.0</ele><time>2026-04-11T10:33:58Z</time></trkpt><trkpt lat="46.67864150899693" lon="6.494074513656851"><ele>588.0</ele><time>2026-04-11T10:33:59Z</time></trkpt><trkpt lat="46.67875307558791" lon="6.493990396779896"><ele>588.25</ele><time>2026-04-11T10:34:00Z</time></trkpt><trkpt lat="46.67888385977503" lon="6.493940591457539"><ele>588.5</ele><time>2026-04-11T10:34:01Z</time></trkpt><trkpt lat="46.6790311657642" lon="6.4939388473927115"><ele>588.75</ele><time>2026-04-11T10:34:02Z</time></trkpt><trkpt lat="46.67918565354438" lon="6.493968718366607"><ele>589.0</ele><time>2026-04-11T10:34:03Z</time></trkpt><trkpt lat="46.679349318114454" lon="6.493992986242608"><ele>590.3333333333334</ele><time>2026-04-11T10:34:04Z</time></trkpt><trkpt lat="46.67950977638241" lon="6.493994296042708"><ele>591.6666666666666</ele><time>2026-04-11T10:34:05Z</time></trkpt><trkpt lat="46.67967526238495" lon="6.4939963637157225"><ele>593.0</ele><time>2026-04-11T10:34:06Z</time></trkpt><trkpt lat="46.67983748929172" lon="6.493998084478908"><ele>593.0</ele><time>2026-04-11T10:34:07Z</time></trkpt><trkpt lat="46.67998302503767" lon="6.49398872558224"><ele>593.0</ele><time>2026-04-11T10:34:08Z</time></trkpt><trkpt lat="46.68013091620754" lon="6.493952499764531"><ele>593.0</ele><time>2026-04-11T10:34:09Z</time></trkpt><trkpt lat="46.68028560626656" lon="6.493883632897314"><ele>594.0</ele><time>2026-04-11T10:34:10Z</time></trkpt><trkpt lat="46.680439083952415" lon="6.493797398657501"><ele>595.0</ele><time>2026-04-11T10:34:11Z</time></trkpt><trkpt lat="46.68058974700279" lon="6.493696766944036"><ele>596.0</ele><time>2026-04-11T10:34:12Z</time></trkpt><trkpt lat="46.68074602887305" lon="6.493578813254802"><ele>597.6666666666666</ele><time>2026-04-11T10:34:13Z</time></trkpt><trkpt lat="46.680909615820056" lon="6.493464889055191"><ele>599.3333333333334</ele><time>2026-04-11T10:34:14Z</time></trkpt><trkpt lat="46.68108018941178" lon="6.493353936146014"><ele>601.0</ele><time>2026-04-11T10:34:15Z</time></trkpt><trkpt lat="46.681254948866886" lon="6.493243765480914"><ele>601.3333333333334</ele><time>2026-04-11T10:34:16Z</time></trkpt><trkpt lat="46.68142883101306" lon="6.493136618867495"><ele>601.6666666666666</ele><time>2026-04-11T10:34:17Z</time></trkpt><trkpt lat="46.68160004260675" lon="6.493044045202169"><ele>602.0</ele><time>2026-04-11T10:34:18Z</time></trkpt><trkpt lat="46.68177954412343" lon="6.4929762479235364"><ele>605.3333333333333</ele><time>2026-04-11T10:34:19Z</time></trkpt><trkpt lat="46.68194395705885" lon="6.492917433046375"><ele>608.6666666666666</ele><time>2026-04-11T10:34:20Z</time></trkpt><trkpt lat="46.6820939015065" lon="6.4928576928532555"><ele>612.0</ele><time>2026-04-11T10:34:21Z</time></trkpt><trkpt lat="46.682224312885104" lon="6.492792013085586"><ele>612.0</ele><time>2026-04-11T10:34:22Z</time></trkpt><trkpt lat="46.68235320532281" lon="6.492694575016567"><ele>612.0</ele><time>2026-04-11T10:34:23Z</time></trkpt><trkpt lat="46.68246962204843" lon="6.492559496545179"><ele>612.0</ele><time>2026-04-11T10:34:24Z</time></trkpt><trkpt lat="46.68257512382618" lon="6.492401936537841"><ele>612.0</ele><time>2026-04-11T10:34:25Z</time></trkpt><trkpt lat="46.68266734127164" lon="6.49221181684143"><ele>612.6666666666666</ele><time>2026-04-11T10:34:26Z</time></trkpt><trkpt lat="46.682739806192956" lon="6.49199201077922"><ele>613.3333333333333</ele><time>2026-04-11T10:34:27Z</time></trkpt><trkpt lat="46.68281465450596" lon="6.491765386728994"><ele>614.0</ele><time>2026-04-11T10:34:28Z</time></trkpt><trkpt lat="46.68289678047879" lon="6.4915386707404625"><ele>614.0</ele><time>2026-04-11T10:34:29Z</time></trkpt><trkpt lat="46.68298252520458" lon="6.4913173969757905"><ele>614.0</ele><time>2026-04-11T10:34:30Z</time></trkpt><trkpt lat="46.68307448264198" lon="6.491108414884077"><ele>614.0</ele><time>2026-04-11T10:34:31Z</time></trkpt><trkpt lat="46.68317971128424" lon="6.490900842725058"><ele>614.0</ele><time>2026-04-11T10:34:32Z</time></trkpt><trkpt lat="46.683293798374464" lon="6.490689225527549"><ele>614.0</ele><time>2026-04-11T10:34:33Z</time></trkpt><trkpt lat="46.68340841846462" lon="6.490473095562704"><ele>614.0</ele><time>2026-04-11T10:34:34Z</time></trkpt><trkpt lat="46.68352800857769" lon="6.490252325690131"><ele>615.6666666666666</ele><time>2026-04-11T10:34:35Z</time></trkpt><trkpt lat="46.6836424655967" lon="6.490045669278284"><ele>617.3333333333334</ele><time>2026-04-11T10:34:36Z</time></trkpt><trkpt lat="46.683761965894824" lon="6.489840173831301"><ele>619.0</ele><time>2026-04-11T10:34:37Z</time></trkpt><trkpt lat="46.68386839903738" lon="6.489631152120186"><ele>621.3333333333334</ele><time>2026-04-11T10:34:38Z</time></trkpt><trkpt lat="46.68397173578627" lon="6.489448009321051"><ele>623.6666666666666</ele><time>2026-04-11T10:34:39Z</time></trkpt><trkpt lat="46.684086265898536" lon="6.489263396153507"><ele>626.0</ele><time>2026-04-11T10:34:40Z</time></trkpt><trkpt lat="46.6842133522795" lon="6.489094648018303"><ele>626.0</ele><time>2026-04-11T10:34:41Z</time></trkpt><trkpt lat="46.68435656036432" lon="6.488941804676503"><ele>626.0</ele><time>2026-04-11T10:34:42Z</time></trkpt><trkpt lat="46.68450251181095" lon="6.4887979096535275"><ele>626.0</ele><time>2026-04-11T10:34:43Z</time></trkpt><trkpt lat="46.6846602495234" lon="6.48866494671079"><ele>626.3333333333333</ele><time>2026-04-11T10:34:44Z</time></trkpt><trkpt lat="46.68481943707848" lon="6.488542046409679"><ele>626.6666666666666</ele><time>2026-04-11T10:34:45Z</time></trkpt><trkpt lat="46.684974724257025" lon="6.488421949410775"><ele>627.0</ele><time>2026-04-11T10:34:46Z</time></trkpt><trkpt lat="46.68512897589288" lon="6.488300387814302"><ele>625.6666666666666</ele><time>2026-04-11T10:34:47Z</time></trkpt><trkpt lat="46.685277211837" lon="6.488178834205623"><ele>624.3333333333333</ele><time>2026-04-11T10:34:48Z</time></trkpt><trkpt lat="46.685424431479" lon="6.4880583472383435"><ele>623.0</ele><time>2026-04-11T10:34:49Z</time></trkpt><trkpt lat="46.685563656894914" lon="6.487937182262566"><ele>625.3333333333333</ele><time>2026-04-11T10:34:50Z</time></trkpt><trkpt lat="46.68569512766678" lon="6.487793109936122"><ele>627.6666666666666</ele><time>2026-04-11T10:34:51Z</time></trkpt><trkpt lat="46.6858174565909" lon="6.4876157644125"><ele>630.0</ele><time>2026-04-11T10:34:52Z</time></trkpt><trkpt lat="46.68594277002381" lon="6.487418312377301"><ele>630.0</ele><time>2026-04-11T10:34:53Z</time></trkpt><trkpt lat="46.68606019759138" lon="6.487202740047413"><ele>630.0</ele><time>2026-04-11T10:34:54Z</time></trkpt><trkpt lat="46.686180937536506" lon="6.486984666856202"><ele>630.0</ele><time>2026-04-11T10:34:55Z</time></trkpt><trkpt lat="46.686301267308586" lon="6.486770740224039"><ele>630.3333333333334</ele><time>2026-04-11T10:34:56Z</time></trkpt><trkpt lat="46.6864209475325" lon="6.486545407043588"><ele>630.6666666666667</ele><time>2026-04-11T10:34:57Z</time></trkpt><trkpt lat="46.68655407947778" lon="6.486326378896772"><ele>631.0</ele><time>2026-04-11T10:34:58Z</time></trkpt><trkpt lat="46.68668536813942" lon="6.486094478463982"><ele>631.0</ele><time>2026-04-11T10:34:59Z</time></trkpt><trkpt lat="46.68681511076238" lon="6.485852966422144"><ele>631.0</ele><time>2026-04-11T10:35:00Z</time></trkpt><trkpt lat="46.68694751207756" lon="6.485607206708772"><ele>631.0</ele><time>2026-04-11T10:35:01Z</time></trkpt><trkpt lat="46.68705100983691" lon="6.485368077023187"><ele>631.0</ele><time>2026-04-11T10:35:02Z</time></trkpt><trkpt lat="46.687150847042396" lon="6.485122337539207"><ele>631.0</ele><time>2026-04-11T10:35:03Z</time></trkpt><trkpt lat="46.6872525843112" lon="6.484866668770379"><ele>631.0</ele><time>2026-04-11T10:35:04Z</time></trkpt><trkpt lat="46.687349342710334" lon="6.484610662637923"><ele>631.3333333333334</ele><time>2026-04-11T10:35:05Z</time></trkpt><trkpt lat="46.68744310651615" lon="6.4843424700737815"><ele>631.6666666666666</ele><time>2026-04-11T10:35:06Z</time></trkpt><trkpt lat="46.687529621246455" lon="6.484110506808943"><ele>632.0</ele><time>2026-04-11T10:35:07Z</time></trkpt><trkpt lat="46.687626610899656" lon="6.483878995118609"><ele>633.3333333333333</ele><time>2026-04-11T10:35:08Z</time></trkpt><trkpt lat="46.68773327285037" lon="6.483656604118269"><ele>634.6666666666666</ele><time>2026-04-11T10:35:09Z</time></trkpt><trkpt lat="46.68784876905949" lon="6.483437629368128"><ele>636.0</ele><time>2026-04-11T10:35:10Z</time></trkpt><trkpt lat="46.687970715652924" lon="6.4832490839094845"><ele>636.0</ele><time>2026-04-11T10:35:11Z</time></trkpt><trkpt lat="46.68809822928379" lon="6.483088209293499"><ele>636.0</ele><time>2026-04-11T10:35:12Z</time></trkpt><trkpt lat="46.68823146285765" lon="6.482945882715894"><ele>636.0</ele><time>2026-04-11T10:35:13Z</time></trkpt><trkpt lat="46.688384878044644" lon="6.482819562268448"><ele>636.3333333333334</ele><time>2026-04-11T10:35:14Z</time></trkpt><trkpt lat="46.688554284519945" lon="6.4827170944727435"><ele>636.6666666666667</ele><time>2026-04-11T10:35:15Z</time></trkpt><trkpt lat="46.68873667817206" lon="6.482631022945728"><ele>637.0</ele><time>2026-04-11T10:35:16Z</time></trkpt><trkpt lat="46.68892792725037" lon="6.482568131642177"><ele>637.0</ele><time>2026-04-11T10:35:17Z</time></trkpt><trkpt lat="46.68912400063448" lon="6.482519868721433"><ele>637.0</ele><time>2026-04-11T10:35:18Z</time></trkpt><trkpt lat="46.689326603998715" lon="6.482480149243886"><ele>637.0</ele><time>2026-04-11T10:35:19Z</time></trkpt><trkpt lat="46.68952955761678" lon="6.482446857735715"><ele>638.6666666666667</ele><time>2026-04-11T10:35:20Z</time></trkpt><trkpt lat="46.68973397435716" lon="6.482411395452116"><ele>640.3333333333334</ele><time>2026-04-11T10:35:21Z</time></trkpt><trkpt lat="46.689935083412976" lon="6.482371051562931"><ele>642.0</ele><time>2026-04-11T10:35:22Z</time></trkpt><trkpt lat="46.69012469842334" lon="6.48232708386222"><ele>644.3333333333334</ele><time>2026-04-11T10:35:23Z</time></trkpt><trkpt lat="46.69031053067678" lon="6.482278966940162"><ele>646.6666666666667</ele><time>2026-04-11T10:35:24Z</time></trkpt><trkpt lat="46.69050469749524" lon="6.482208568965847"><ele>649.0</ele><time>2026-04-11T10:35:25Z</time></trkpt><trkpt lat="46.690703937619396" lon="6.482120815451024"><ele>647.3333333333334</ele><time>2026-04-11T10:35:26Z</time></trkpt><trkpt lat="46.690902210163394" lon="6.482025724767641"><ele>645.6666666666666</ele><time>2026-04-11T10:35:27Z</time></trkpt><trkpt lat="46.69109080753246" lon="6.481915946490783"><ele>644.0</ele><time>2026-04-11T10:35:28Z</time></trkpt><trkpt lat="46.69126155362511" lon="6.481801475559517"><ele>644.0</ele><time>2026-04-11T10:35:29Z</time></trkpt><trkpt lat="46.691432454848965" lon="6.481694278648699"><ele>644.0</ele><time>2026-04-11T10:35:30Z</time></trkpt><trkpt lat="46.69160449487498" lon="6.4816018450608"><ele>644.0</ele><time>2026-04-11T10:35:31Z</time></trkpt><trkpt lat="46.69177185204264" lon="6.481513198136656"><ele>644.3333333333333</ele><time>2026-04-11T10:35:32Z</time></trkpt><trkpt lat="46.69193943904425" lon="6.481413339011295"><ele>644.6666666666666</ele><time>2026-04-11T10:35:33Z</time></trkpt><trkpt lat="46.692106275204985" lon="6.481312337494851"><ele>645.0</ele><time>2026-04-11T10:35:34Z</time></trkpt><trkpt lat="46.69228172753328" lon="6.4812108659599925"><ele>645.0</ele><time>2026-04-11T10:35:35Z</time></trkpt><trkpt lat="46.69246287154804" lon="6.48110074551961"><ele>645.0</ele><time>2026-04-11T10:35:36Z</time></trkpt><trkpt lat="46.69263596119893" lon="6.480995668522522"><ele>645.0</ele><time>2026-04-11T10:35:37Z</time></trkpt><trkpt lat="46.69281240883641" lon="6.480891881673637"><ele>645.0</ele><time>2026-04-11T10:35:38Z</time></trkpt><trkpt lat="46.692993766997176" lon="6.480785157500864"><ele>645.0</ele><time>2026-04-11T10:35:39Z</time></trkpt><trkpt lat="46.69318129437093" lon="6.480677767736277"><ele>645.0</ele><time>2026-04-11T10:35:40Z</time></trkpt><trkpt lat="46.69337411284033" lon="6.480569208094071"><ele>645.0</ele><time>2026-04-11T10:35:41Z</time></trkpt><trkpt lat="46.693560369729695" lon="6.480473101409074"><ele>645.0</ele><time>2026-04-11T10:35:42Z</time></trkpt><trkpt lat="46.69374454922458" lon="6.480380216386588"><ele>645.0</ele><time>2026-04-11T10:35:43Z</time></trkpt><trkpt lat="46.69392804514162" lon="6.480290631526755"><ele>644.3333333333334</ele><time>2026-04-11T10:35:44Z</time></trkpt><trkpt lat="46.69411209131006" lon="6.480204443751557"><ele>643.6666666666667</ele><time>2026-04-11T10:35:45Z</time></trkpt><trkpt lat="46.694299111702385" lon="6.480123424263145"><ele>643.0</ele><time>2026-04-11T10:35:46Z</time></trkpt><trkpt lat="46.69448760680591" lon="6.48004876634112"><ele>643.0</ele><time>2026-04-11T10:35:47Z</time></trkpt><trkpt lat="46.694671002124174" lon="6.4799761086933"><ele>643.0</ele><time>2026-04-11T10:35:48Z</time></trkpt><trkpt lat="46.69484623859816" lon="6.479908048808302"><ele>643.0</ele><time>2026-04-11T10:35:49Z</time></trkpt><trkpt lat="46.69501835582271" lon="6.47984284444402"><ele>643.0</ele><time>2026-04-11T10:35:50Z</time></trkpt><trkpt lat="46.695188252010766" lon="6.479775969485293"><ele>643.0</ele><time>2026-04-11T10:35:51Z</time></trkpt><trkpt lat="46.695353019858956" lon="6.479722516567692"><ele>643.0</ele><time>2026-04-11T10:35:52Z</time></trkpt><trkpt lat="46.69552181769897" lon="6.4796767585398465"><ele>644.0</ele><time>2026-04-11T10:35:53.001Z</time></trkpt><trkpt lat="46.695696790543415" lon="6.4796243979705945"><ele>645.0</ele><time>2026-04-11T10:35:54.001Z</time></trkpt><trkpt lat="46.69584933731131" lon="6.479583097637629"><ele>646.0</ele><time>2026-04-11T10:35:55.001Z</time></trkpt><trkpt lat="46.695980634228704" lon="6.479547695319908"><ele>645.1999999999999</ele><time>2026-04-11T10:35:56.001Z</time></trkpt><trkpt lat="46.696097120390576" lon="6.479512091241716"><ele>644.4</ele><time>2026-04-11T10:35:57.001Z</time></trkpt><trkpt lat="46.69619195050189" lon="6.479489024458568"><ele>643.6</ele><time>2026-04-11T10:35:58Z</time></trkpt><trkpt lat="46.69626096857926" lon="6.479468833264236"><ele>642.8</ele><time>2026-04-11T10:35:59Z</time></trkpt><trkpt lat="46.696327470103114" lon="6.47944237360123"><ele>642.0</ele><time>2026-04-11T10:36:00Z</time></trkpt><trkpt lat="46.696411737128145" lon="6.479353192230743"><ele>642.0</ele><time>2026-04-11T10:36:02Z</time></trkpt><trkpt lat="46.696451900076866" lon="6.479242145618581"><ele>642.0</ele><time>2026-04-11T10:36:04Z</time></trkpt><trkpt lat="46.69636853576448" lon="6.479258073869737"><ele>642.0</ele><time>2026-04-11T10:41:20Z</time></trkpt><trkpt lat="46.69646808872193" lon="6.479254485962382"><ele>642.0</ele><time>2026-04-11T10:42:17Z</time></trkpt><trkpt lat="46.69659476781567" lon="6.479301559300333"><ele>642.0</ele><time>2026-04-11T10:42:19Z</time></trkpt><trkpt lat="46.69668397218293" lon="6.479313530524856"><ele>642.0</ele><time>2026-04-11T10:42:20Z</time></trkpt><trkpt lat="46.696801134174564" lon="6.479300027418461"><ele>642.0</ele><time>2026-04-11T10:42:21Z</time></trkpt><trkpt lat="46.69693806091655" lon="6.479270865944853"><ele>642.0</ele><time>2026-04-11T10:42:22Z</time></trkpt><trkpt lat="46.69707694384648" lon="6.4792374416152185"><ele>642.0</ele><time>2026-04-11T10:42:23Z</time></trkpt><trkpt lat="46.697158537019206" lon="6.47924242018667"><ele>641.0</ele><time>2026-04-11T10:42:24Z</time></trkpt><trkpt lat="46.69731761128156" lon="6.479209821465448"><ele>640.0</ele><time>2026-04-11T10:42:25Z</time></trkpt><trkpt lat="46.69748814891669" lon="6.479185360383902"><ele>639.0</ele><time>2026-04-11T10:42:26Z</time></trkpt><trkpt lat="46.697665735666526" lon="6.479140868361922"><ele>638.0</ele><time>2026-04-11T10:42:27Z</time></trkpt><trkpt lat="46.69784324523737" lon="6.479102783353327"><ele>637.0</ele><time>2026-04-11T10:42:28Z</time></trkpt><trkpt lat="46.698031214349534" lon="6.479055651943323"><ele>636.0</ele><time>2026-04-11T10:42:29Z</time></trkpt><trkpt lat="46.69821681612969" lon="6.479010000167659"><ele>636.0</ele><time>2026-04-11T10:42:30Z</time></trkpt><trkpt lat="46.698408202264574" lon="6.478956906750608"><ele>636.0</ele><time>2026-04-11T10:42:31Z</time></trkpt><trkpt lat="46.6986025438142" lon="6.478904840177124"><ele>636.0</ele><time>2026-04-11T10:42:32Z</time></trkpt><trkpt lat="46.698791319531544" lon="6.478857327194323"><ele>635.6666666666666</ele><time>2026-04-11T10:42:33Z</time></trkpt><trkpt lat="46.69898918231372" lon="6.4788086860394305"><ele>635.3333333333333</ele><time>2026-04-11T10:42:34Z</time></trkpt><trkpt lat="46.69918687494615" lon="6.478756797045998"><ele>635.0</ele><time>2026-04-11T10:42:35Z</time></trkpt><trkpt lat="46.699381933387144" lon="6.478704107287438"><ele>636.0</ele><time>2026-04-11T10:42:36Z</time></trkpt><trkpt lat="46.699583175329124" lon="6.478644812987986"><ele>637.0</ele><time>2026-04-11T10:42:37Z</time></trkpt><trkpt lat="46.699781623663924" lon="6.478570403036296"><ele>638.0</ele><time>2026-04-11T10:42:38Z</time></trkpt><trkpt lat="46.699985310121434" lon="6.478500610779557"><ele>638.0</ele><time>2026-04-11T10:42:39Z</time></trkpt><trkpt lat="46.700191547146396" lon="6.478441502907105"><ele>638.0</ele><time>2026-04-11T10:42:40Z</time></trkpt><trkpt lat="46.700393572486476" lon="6.478375390151718"><ele>638.0</ele><time>2026-04-11T10:42:41Z</time></trkpt><trkpt lat="46.70060693122604" lon="6.47830941911286"><ele>636.6666666666666</ele><time>2026-04-11T10:42:42Z</time></trkpt><trkpt lat="46.700809215221675" lon="6.478229015036991"><ele>635.3333333333334</ele><time>2026-04-11T10:42:43Z</time></trkpt><trkpt lat="46.701014212858084" lon="6.478143600148871"><ele>634.0</ele><time>2026-04-11T10:42:44Z</time></trkpt><trkpt lat="46.70121639216049" lon="6.478050127155428"><ele>633.3333333333334</ele><time>2026-04-11T10:42:45Z</time></trkpt><trkpt lat="46.70142284619604" lon="6.477942662696489"><ele>632.6666666666666</ele><time>2026-04-11T10:42:46Z</time></trkpt><trkpt lat="46.70163306154189" lon="6.477846043439934"><ele>632.0</ele><time>2026-04-11T10:42:47Z</time></trkpt><trkpt lat="46.70183732841587" lon="6.477743567465657"><ele>631.3333333333333</ele><time>2026-04-11T10:42:48Z</time></trkpt><trkpt lat="46.70203706647204" lon="6.477635526314024"><ele>630.6666666666666</ele><time>2026-04-11T10:42:49Z</time></trkpt><trkpt lat="46.70223463892009" lon="6.477520469714514"><ele>630.0</ele><time>2026-04-11T10:42:50Z</time></trkpt><trkpt lat="46.702432430953536" lon="6.477404943956813"><ele>630.0</ele><time>2026-04-11T10:42:51Z</time></trkpt><trkpt lat="46.7026286398556" lon="6.477288000096536"><ele>630.0</ele><time>2026-04-11T10:42:52Z</time></trkpt><trkpt lat="46.7028234607278" lon="6.4771670468381615"><ele>630.0</ele><time>2026-04-11T10:42:53Z</time></trkpt><trkpt lat="46.70301615374683" lon="6.477040695719001"><ele>630.0</ele><time>2026-04-11T10:42:54Z</time></trkpt><trkpt lat="46.70321020823003" lon="6.476910536449639"><ele>630.0</ele><time>2026-04-11T10:42:55Z</time></trkpt><trkpt lat="46.703405634398784" lon="6.4767836087513695"><ele>630.0</ele><time>2026-04-11T10:42:56Z</time></trkpt><trkpt lat="46.703599764871434" lon="6.476658795000613"><ele>630.0</ele><time>2026-04-11T10:42:57Z</time></trkpt><trkpt lat="46.70379419446399" lon="6.476527003423629"><ele>630.0</ele><time>2026-04-11T10:42:58Z</time></trkpt><trkpt lat="46.70398904456961" lon="6.476392562800856"><ele>630.0</ele><time>2026-04-11T10:42:59Z</time></trkpt><trkpt lat="46.70418306497847" lon="6.476257515872691"><ele>630.6666666666666</ele><time>2026-04-11T10:43:00Z</time></trkpt><trkpt lat="46.70436574611648" lon="6.476132373026996"><ele>631.3333333333333</ele><time>2026-04-11T10:43:01Z</time></trkpt><trkpt lat="46.704553076766565" lon="6.476010896543829"><ele>632.0</ele><time>2026-04-11T10:43:02Z</time></trkpt><trkpt lat="46.70474660711143" lon="6.475896695489152"><ele>632.0</ele><time>2026-04-11T10:43:03Z</time></trkpt><trkpt lat="46.70494255735292" lon="6.47578271362987"><ele>632.0</ele><time>2026-04-11T10:43:04Z</time></trkpt><trkpt lat="46.705139555631426" lon="6.475669892363079"><ele>632.0</ele><time>2026-04-11T10:43:05Z</time></trkpt><trkpt lat="46.70533802008327" lon="6.47556593845842"><ele>631.6666666666666</ele><time>2026-04-11T10:43:06Z</time></trkpt><trkpt lat="46.70553659888075" lon="6.475466801406502"><ele>631.3333333333334</ele><time>2026-04-11T10:43:07Z</time></trkpt><trkpt lat="46.70573520540101" lon="6.475368342572256"><ele>631.0</ele><time>2026-04-11T10:43:08Z</time></trkpt><trkpt lat="46.70593355885523" lon="6.475276583908502"><ele>632.3333333333334</ele><time>2026-04-11T10:43:09Z</time></trkpt><trkpt lat="46.70613444225997" lon="6.475193367600369"><ele>633.6666666666666</ele><time>2026-04-11T10:43:10Z</time></trkpt><trkpt lat="46.706338730006266" lon="6.475117828397646"><ele>635.0</ele><time>2026-04-11T10:43:11Z</time></trkpt><trkpt lat="46.70654758620352" lon="6.475052919084407"><ele>635.0</ele><time>2026-04-11T10:43:12Z</time></trkpt><trkpt lat="46.706762467323365" lon="6.475000231340926"><ele>635.0</ele><time>2026-04-11T10:43:13Z</time></trkpt><trkpt lat="46.706980454097724" lon="6.474954292092386"><ele>635.0</ele><time>2026-04-11T10:43:14Z</time></trkpt><trkpt lat="46.707196326858416" lon="6.474916915843771"><ele>635.3333333333333</ele><time>2026-04-11T10:43:15Z</time></trkpt><trkpt lat="46.707409662211724" lon="6.474885640548586"><ele>635.6666666666666</ele><time>2026-04-11T10:43:16Z</time></trkpt><trkpt lat="46.70762465894313" lon="6.474869589886943"><ele>636.0</ele><time>2026-04-11T10:43:17Z</time></trkpt><trkpt lat="46.70783910335576" lon="6.474869231540426"><ele>637.6666666666666</ele><time>2026-04-11T10:43:18Z</time></trkpt><trkpt lat="46.7080523085111" lon="6.474875720630874"><ele>639.3333333333333</ele><time>2026-04-11T10:43:19Z</time></trkpt><trkpt lat="46.70826549151903" lon="6.474884939441486"><ele>641.0</ele><time>2026-04-11T10:43:20Z</time></trkpt><trkpt lat="46.70847334803702" lon="6.4748979637103385"><ele>643.0</ele><time>2026-04-11T10:43:21Z</time></trkpt><trkpt lat="46.70868113435244" lon="6.474919639833882"><ele>645.0</ele><time>2026-04-11T10:43:22Z</time></trkpt><trkpt lat="46.70888560507476" lon="6.474953138261842"><ele>647.0</ele><time>2026-04-11T10:43:23Z</time></trkpt><trkpt lat="46.709086908957865" lon="6.474999570227407"><ele>647.0</ele><time>2026-04-11T10:43:24Z</time></trkpt><trkpt lat="46.70928601117468" lon="6.475054135672061"><ele>647.0</ele><time>2026-04-11T10:43:25Z</time></trkpt><trkpt lat="46.70948351152277" lon="6.47511162455295"><ele>647.0</ele><time>2026-04-11T10:43:26Z</time></trkpt><trkpt lat="46.70967931720663" lon="6.475173904949495"><ele>650.3333333333333</ele><time>2026-04-11T10:43:27Z</time></trkpt><trkpt lat="46.70987498426672" lon="6.475243997317099"><ele>653.6666666666666</ele><time>2026-04-11T10:43:28Z</time></trkpt><trkpt lat="46.710069255803795" lon="6.475314149971702"><ele>657.0</ele><time>2026-04-11T10:43:29Z</time></trkpt><trkpt lat="46.71025838081024" lon="6.475384776756643"><ele>655.0</ele><time>2026-04-11T10:43:30Z</time></trkpt><trkpt lat="46.71044694742171" lon="6.475459401569344"><ele>653.0</ele><time>2026-04-11T10:43:31Z</time></trkpt><trkpt lat="46.71062485944202" lon="6.475530499391162"><ele>651.0</ele><time>2026-04-11T10:43:32Z</time></trkpt><trkpt lat="46.710791687619405" lon="6.475600333395942"><ele>651.0</ele><time>2026-04-11T10:43:33Z</time></trkpt><trkpt lat="46.710968161910515" lon="6.475665424968369"><ele>651.0</ele><time>2026-04-11T10:43:34Z</time></trkpt><trkpt lat="46.7111450902498" lon="6.475720980140626"><ele>651.0</ele><time>2026-04-11T10:43:35Z</time></trkpt><trkpt lat="46.711327015878446" lon="6.475763993646382"><ele>654.0</ele><time>2026-04-11T10:43:36Z</time></trkpt><trkpt lat="46.71151328367446" lon="6.475797893324973"><ele>657.0</ele><time>2026-04-11T10:43:37Z</time></trkpt><trkpt lat="46.71169840172508" lon="6.475819258770668"><ele>660.0</ele><time>2026-04-11T10:43:38Z</time></trkpt><trkpt lat="46.71189316015038" lon="6.475818268229248"><ele>661.6666666666666</ele><time>2026-04-11T10:43:39Z</time></trkpt><trkpt lat="46.712075753054485" lon="6.475830132129695"><ele>663.3333333333333</ele><time>2026-04-11T10:43:40Z</time></trkpt><trkpt lat="46.71225889658891" lon="6.475816360169154"><ele>665.0</ele><time>2026-04-11T10:43:41.001Z</time></trkpt><trkpt lat="46.712448510196964" lon="6.475794758778109"><ele>665.0</ele><time>2026-04-11T10:43:42.001Z</time></trkpt><trkpt lat="46.71263797956327" lon="6.4757604670035835"><ele>665.0</ele><time>2026-04-11T10:43:43.001Z</time></trkpt><trkpt lat="46.71282895290636" lon="6.475704589387379"><ele>665.0</ele><time>2026-04-11T10:43:44.001Z</time></trkpt><trkpt lat="46.71301903382144" lon="6.475637640254564"><ele>664.0</ele><time>2026-04-11T10:43:45.001Z</time></trkpt><trkpt lat="46.713210748013886" lon="6.475567954519101"><ele>663.0</ele><time>2026-04-11T10:43:46.001Z</time></trkpt><trkpt lat="46.71340330514358" lon="6.475503832323198"><ele>662.0</ele><time>2026-04-11T10:43:47.001Z</time></trkpt><trkpt lat="46.713596300277665" lon="6.475440195475594"><ele>664.6666666666666</ele><time>2026-04-11T10:43:48.001Z</time></trkpt><trkpt lat="46.71379213131025" lon="6.475375661148019"><ele>667.3333333333334</ele><time>2026-04-11T10:43:49.001Z</time></trkpt><trkpt lat="46.713993222777766" lon="6.4753111936672605"><ele>670.0</ele><time>2026-04-11T10:43:50.001Z</time></trkpt><trkpt lat="46.714194349195786" lon="6.47524672533973"><ele>670.0</ele><time>2026-04-11T10:43:51.001Z</time></trkpt><trkpt lat="46.71439307230002" lon="6.475179301512255"><ele>670.0</ele><time>2026-04-11T10:43:52.001Z</time></trkpt><trkpt lat="46.7145919514558" lon="6.475117574690114"><ele>670.0</ele><time>2026-04-11T10:43:53.001Z</time></trkpt><trkpt lat="46.714793499893844" lon="6.475057486482866"><ele>669.6666666666667</ele><time>2026-04-11T10:43:54.001Z</time></trkpt><trkpt lat="46.714997745275895" lon="6.475006943475719"><ele>669.3333333333334</ele><time>2026-04-11T10:43:55.001Z</time></trkpt><trkpt lat="46.715204942894886" lon="6.4749640153840575"><ele>669.0</ele><time>2026-04-11T10:43:56.001Z</time></trkpt><trkpt lat="46.715413813805164" lon="6.474924531644211"><ele>669.6666666666666</ele><time>2026-04-11T10:43:57.001Z</time></trkpt><trkpt lat="46.71562532642278" lon="6.474889241107325"><ele>670.3333333333333</ele><time>2026-04-11T10:43:58.001Z</time></trkpt><trkpt lat="46.71583893205113" lon="6.474869445341275"><ele>671.0</ele><time>2026-04-11T10:43:59.001Z</time></trkpt><trkpt lat="46.71605882171249" lon="6.474863309614217"><ele>671.6666666666666</ele><time>2026-04-11T10:44:00.001Z</time></trkpt><trkpt lat="46.71628130584967" lon="6.47486796693395"><ele>672.3333333333334</ele><time>2026-04-11T10:44:01.001Z</time></trkpt><trkpt lat="46.71650247937518" lon="6.474884332980324"><ele>673.0</ele><time>2026-04-11T10:44:02.001Z</time></trkpt><trkpt lat="46.716723229353725" lon="6.474906999648967"><ele>673.3333333333334</ele><time>2026-04-11T10:44:03.001Z</time></trkpt><trkpt lat="46.71694154551049" lon="6.474932237992358"><ele>673.6666666666666</ele><time>2026-04-11T10:44:04.001Z</time></trkpt><trkpt lat="46.71716280989481" lon="6.474956605041822"><ele>674.0</ele><time>2026-04-11T10:44:05.001Z</time></trkpt><trkpt lat="46.71738303706579" lon="6.474971289255044"><ele>674.0</ele><time>2026-04-11T10:44:06.001Z</time></trkpt><trkpt lat="46.717592082372676" lon="6.4749859784316754"><ele>674.0</ele><time>2026-04-11T10:44:07.001Z</time></trkpt><trkpt lat="46.71780355705864" lon="6.475001464107225"><ele>674.0</ele><time>2026-04-11T10:44:08.001Z</time></trkpt><trkpt lat="46.71801266515171" lon="6.475020353732293"><ele>674.6666666666666</ele><time>2026-04-11T10:44:09.001Z</time></trkpt><trkpt lat="46.71822557523985" lon="6.475031790927479"><ele>675.3333333333334</ele><time>2026-04-11T10:44:10.001Z</time></trkpt><trkpt lat="46.71844590121796" lon="6.4750276620822715"><ele>676.0</ele><time>2026-04-11T10:44:11.001Z</time></trkpt><trkpt lat="46.71866254508136" lon="6.4750088963757015"><ele>677.0</ele><time>2026-04-11T10:44:12.001Z</time></trkpt><trkpt lat="46.71888218373658" lon="6.474978673159141"><ele>678.0</ele><time>2026-04-11T10:44:13.001Z</time></trkpt><trkpt lat="46.71909119394022" lon="6.474940995718847"><ele>679.0</ele><time>2026-04-11T10:44:14.001Z</time></trkpt><trkpt lat="46.71929819319803" lon="6.474898451303562"><ele>679.0</ele><time>2026-04-11T10:44:15.001Z</time></trkpt><trkpt lat="46.71950454902652" lon="6.474849891739237"><ele>679.0</ele><time>2026-04-11T10:44:16.001Z</time></trkpt><trkpt lat="46.7197113238947" lon="6.474784537491036"><ele>679.0</ele><time>2026-04-11T10:44:17.001Z</time></trkpt><trkpt lat="46.719923582523684" lon="6.474712786845356"><ele>679.0</ele><time>2026-04-11T10:44:18.001Z</time></trkpt><trkpt lat="46.72013608225384" lon="6.474636215926581"><ele>679.0</ele><time>2026-04-11T10:44:19.001Z</time></trkpt><trkpt lat="46.72035213721501" lon="6.47454803828565"><ele>679.0</ele><time>2026-04-11T10:44:20.001Z</time></trkpt><trkpt lat="46.720568698625684" lon="6.474450269537335"><ele>679.6666666666667</ele><time>2026-04-11T10:44:21.001Z</time></trkpt><trkpt lat="46.72077748676991" lon="6.474350228341098"><ele>680.3333333333334</ele><time>2026-04-11T10:44:22.001Z</time></trkpt><trkpt lat="46.720975498392896" lon="6.474255568970359"><ele>681.0</ele><time>2026-04-11T10:44:23.001Z</time></trkpt><trkpt lat="46.72116783229702" lon="6.474163825986843"><ele>681.0</ele><time>2026-04-11T10:44:24.001Z</time></trkpt><trkpt lat="46.72135211664986" lon="6.474070340051583"><ele>681.0</ele><time>2026-04-11T10:44:25.001Z</time></trkpt><trkpt lat="46.72153095823783" lon="6.473965026558803"><ele>681.0</ele><time>2026-04-11T10:44:26.001Z</time></trkpt><trkpt lat="46.721712510852335" lon="6.473843356557247"><ele>683.0</ele><time>2026-04-11T10:44:27.001Z</time></trkpt><trkpt lat="46.721886421803866" lon="6.473706024840008"><ele>685.0</ele><time>2026-04-11T10:44:28.001Z</time></trkpt><trkpt lat="46.72205496731119" lon="6.4735500743289265"><ele>687.0</ele><time>2026-04-11T10:44:29.001Z</time></trkpt><trkpt lat="46.72221321336906" lon="6.473379488899293"><ele>688.0</ele><time>2026-04-11T10:44:30.001Z</time></trkpt><trkpt lat="46.7223712284617" lon="6.473192788656888"><ele>689.0</ele><time>2026-04-11T10:44:31.001Z</time></trkpt><trkpt lat="46.72253049250586" lon="6.4730051326943645"><ele>690.0</ele><time>2026-04-11T10:44:32.001Z</time></trkpt><trkpt lat="46.72269308228873" lon="6.4728164584335"><ele>689.0</ele><time>2026-04-11T10:44:33.001Z</time></trkpt><trkpt lat="46.72285321216837" lon="6.472622439066179"><ele>688.0</ele><time>2026-04-11T10:44:34.001Z</time></trkpt><trkpt lat="46.72301459805567" lon="6.472428218616076"><ele>687.0</ele><time>2026-04-11T10:44:35.001Z</time></trkpt><trkpt lat="46.72317769925139" lon="6.472234218993627"><ele>687.0</ele><time>2026-04-11T10:44:36.001Z</time></trkpt><trkpt lat="46.72334519533171" lon="6.472042701117951"><ele>687.0</ele><time>2026-04-11T10:44:37.001Z</time></trkpt><trkpt lat="46.72350855021867" lon="6.471862520479141"><ele>687.0</ele><time>2026-04-11T10:44:38.001Z</time></trkpt><trkpt lat="46.723668073055684" lon="6.471687372151464"><ele>687.0</ele><time>2026-04-11T10:44:39.001Z</time></trkpt><trkpt lat="46.723823973620625" lon="6.471508788928234"><ele>687.0</ele><time>2026-04-11T10:44:40.001Z</time></trkpt><trkpt lat="46.72395431870717" lon="6.471348459150894"><ele>687.0</ele><time>2026-04-11T10:44:41.001Z</time></trkpt><trkpt lat="46.724078498144756" lon="6.4711767885910865"><ele>685.6666666666666</ele><time>2026-04-11T10:44:42.001Z</time></trkpt><trkpt lat="46.72420636468105" lon="6.470973345271407"><ele>684.3333333333333</ele><time>2026-04-11T10:44:43.001Z</time></trkpt><trkpt lat="46.72432939931405" lon="6.470753117540143"><ele>683.0</ele><time>2026-04-11T10:44:44.001Z</time></trkpt><trkpt lat="46.72444716178161" lon="6.470516464979886"><ele>684.6666666666666</ele><time>2026-04-11T10:44:45.001Z</time></trkpt><trkpt lat="46.72455626659043" lon="6.470265739842099"><ele>686.3333333333334</ele><time>2026-04-11T10:44:46.001Z</time></trkpt><trkpt lat="46.72465070623483" lon="6.470006437234429"><ele>688.0</ele><time>2026-04-11T10:44:47.001Z</time></trkpt><trkpt lat="46.72473429734814" lon="6.469758057748619"><ele>690.0</ele><time>2026-04-11T10:44:48.001Z</time></trkpt><trkpt lat="46.724809784373214" lon="6.4695017204236756"><ele>692.0</ele><time>2026-04-11T10:44:49.001Z</time></trkpt><trkpt lat="46.72488104009998" lon="6.469230973220566"><ele>694.0</ele><time>2026-04-11T10:44:50.001Z</time></trkpt><trkpt lat="46.72495148740639" lon="6.468947931096073"><ele>695.6666666666667</ele><time>2026-04-11T10:44:51.001Z</time></trkpt><trkpt lat="46.725023310475144" lon="6.46866118066598"><ele>697.3333333333334</ele><time>2026-04-11T10:44:52.001Z</time></trkpt><trkpt lat="46.725093561489274" lon="6.468379614263363"><ele>699.0</ele><time>2026-04-11T10:44:53.001Z</time></trkpt><trkpt lat="46.7251681342184" lon="6.468095291344517"><ele>694.0</ele><time>2026-04-11T10:44:54.001Z</time></trkpt><trkpt lat="46.72524659732858" lon="6.467805419895809"><ele>689.0</ele><time>2026-04-11T10:44:55.001Z</time></trkpt><trkpt lat="46.7253224521966" lon="6.467505720648276"><ele>684.0</ele><time>2026-04-11T10:44:56.001Z</time></trkpt><trkpt lat="46.725395426705674" lon="6.467210533280837"><ele>687.0</ele><time>2026-04-11T10:44:57.001Z</time></trkpt><trkpt lat="46.725471413005046" lon="6.466917544329284"><ele>690.0</ele><time>2026-04-11T10:44:58.001Z</time></trkpt><trkpt lat="46.72554802175321" lon="6.466617968297751"><ele>693.0</ele><time>2026-04-11T10:44:59.001Z</time></trkpt><trkpt lat="46.725619619209404" lon="6.466334133639537"><ele>695.0</ele><time>2026-04-11T10:45:00.001Z</time></trkpt><trkpt lat="46.72568984517487" lon="6.466057461446935"><ele>697.0</ele><time>2026-04-11T10:45:01.001Z</time></trkpt><trkpt lat="46.7257610350167" lon="6.4657668556551675"><ele>699.0</ele><time>2026-04-11T10:45:02.001Z</time></trkpt><trkpt lat="46.7258269115979" lon="6.465473246263466"><ele>700.3333333333334</ele><time>2026-04-11T10:45:03.001Z</time></trkpt><trkpt lat="46.72587992960521" lon="6.46517286004618"><ele>701.6666666666667</ele><time>2026-04-11T10:45:04.001Z</time></trkpt><trkpt lat="46.72592231933626" lon="6.464870689555172"><ele>703.0</ele><time>2026-04-11T10:45:05.001Z</time></trkpt><trkpt lat="46.72595496631915" lon="6.464569737222567"><ele>705.0</ele><time>2026-04-11T10:45:06.001Z</time></trkpt><trkpt lat="46.72597562292769" lon="6.464286983300612"><ele>707.0</ele><time>2026-04-11T10:45:07.001Z</time></trkpt><trkpt lat="46.7259903256923" lon="6.463998923398713"><ele>709.0</ele><time>2026-04-11T10:45:08.001Z</time></trkpt><trkpt lat="46.72600034631659" lon="6.463735409171266"><ele>709.6666666666667</ele><time>2026-04-11T10:45:09.001Z</time></trkpt><trkpt lat="46.72599360191016" lon="6.463484960987684"><ele>710.3333333333334</ele><time>2026-04-11T10:45:10.001Z</time></trkpt><trkpt lat="46.72596657354306" lon="6.463218354228169"><ele>711.0</ele><time>2026-04-11T10:45:11.001Z</time></trkpt><trkpt lat="46.725927918064784" lon="6.462950125564103"><ele>710.0</ele><time>2026-04-11T10:45:12.001Z</time></trkpt><trkpt lat="46.72587901933751" lon="6.462678522725909"><ele>709.0</ele><time>2026-04-11T10:45:13.001Z</time></trkpt><trkpt lat="46.72581755130082" lon="6.462400925199137"><ele>708.0</ele><time>2026-04-11T10:45:14.001Z</time></trkpt><trkpt lat="46.72575232598629" lon="6.462115435898895"><ele>707.0</ele><time>2026-04-11T10:45:15.001Z</time></trkpt><trkpt lat="46.72568988197188" lon="6.461823212980651"><ele>706.0</ele><time>2026-04-11T10:45:16.001Z</time></trkpt><trkpt lat="46.725627069418614" lon="6.461520270720901"><ele>705.0</ele><time>2026-04-11T10:45:17.001Z</time></trkpt><trkpt lat="46.72556314599813" lon="6.4612135777291835"><ele>704.3333333333334</ele><time>2026-04-11T10:45:18.001Z</time></trkpt><trkpt lat="46.725498611558194" lon="6.460925715214822"><ele>703.6666666666667</ele><time>2026-04-11T10:45:19.001Z</time></trkpt><trkpt lat="46.725433252789244" lon="6.460632896795087"><ele>703.0</ele><time>2026-04-11T10:45:20.001Z</time></trkpt><trkpt lat="46.72536757239461" lon="6.460336815538172"><ele>705.6666666666667</ele><time>2026-04-11T10:45:21.001Z</time></trkpt><trkpt lat="46.725305292553145" lon="6.460042020617319"><ele>708.3333333333334</ele><time>2026-04-11T10:45:22.001Z</time></trkpt><trkpt lat="46.72524543785014" lon="6.459759557301186"><ele>711.0</ele><time>2026-04-11T10:45:23.001Z</time></trkpt><trkpt lat="46.72518738212178" lon="6.4594720866848325"><ele>713.6666666666666</ele><time>2026-04-11T10:45:24.001Z</time></trkpt><trkpt lat="46.725130405643284" lon="6.45919266312553"><ele>716.3333333333333</ele><time>2026-04-11T10:45:25.001Z</time></trkpt><trkpt lat="46.72506950668346" lon="6.458914057425574"><ele>719.0</ele><time>2026-04-11T10:45:26.001Z</time></trkpt><trkpt lat="46.725007872739646" lon="6.458638075020555"><ele>719.0</ele><time>2026-04-11T10:45:27.001Z</time></trkpt><trkpt lat="46.72494689793961" lon="6.458363698444439"><ele>719.0</ele><time>2026-04-11T10:45:28.001Z</time></trkpt><trkpt lat="46.72488693016677" lon="6.458084112871005"><ele>719.0</ele><time>2026-04-11T10:45:29.001Z</time></trkpt><trkpt lat="46.72483455254088" lon="6.457810043337544"><ele>718.6666666666666</ele><time>2026-04-11T10:45:30.001Z</time></trkpt><trkpt lat="46.724796374066855" lon="6.457540200952641"><ele>718.3333333333334</ele><time>2026-04-11T10:45:31.001Z</time></trkpt><trkpt lat="46.72477498710454" lon="6.457279542228904"><ele>718.0</ele><time>2026-04-11T10:45:32.001Z</time></trkpt><trkpt lat="46.72474238561516" lon="6.45699348711315"><ele>719.0</ele><time>2026-04-11T10:45:33.001Z</time></trkpt><trkpt lat="46.72473358994406" lon="6.456708687376604"><ele>720.0</ele><time>2026-04-11T10:45:34.001Z</time></trkpt><trkpt lat="46.72473706084539" lon="6.4564297196586296"><ele>721.0</ele><time>2026-04-11T10:45:35.001Z</time></trkpt><trkpt lat="46.72474929069189" lon="6.456159078554311"><ele>721.0</ele><time>2026-04-11T10:45:36.001Z</time></trkpt><trkpt lat="46.72476949239535" lon="6.455873885529296"><ele>721.0</ele><time>2026-04-11T10:45:37.001Z</time></trkpt><trkpt lat="46.724797941779826" lon="6.455600524429888"><ele>721.0</ele><time>2026-04-11T10:45:38.001Z</time></trkpt><trkpt lat="46.72483879774725" lon="6.455333095809628"><ele>719.6666666666667</ele><time>2026-04-11T10:45:39.001Z</time></trkpt><trkpt lat="46.72489134838768" lon="6.455068799934499"><ele>718.3333333333334</ele><time>2026-04-11T10:45:40.001Z</time></trkpt><trkpt lat="46.72495360105709" lon="6.4548117441251645"><ele>717.0</ele><time>2026-04-11T10:45:41.001Z</time></trkpt><trkpt lat="46.72502773628174" lon="6.4545564976864025"><ele>717.0</ele><time>2026-04-11T10:45:42.001Z</time></trkpt><trkpt lat="46.72511186160412" lon="6.454318619410125"><ele>717.0</ele><time>2026-04-11T10:45:43.001Z</time></trkpt><trkpt lat="46.72521133703857" lon="6.4540882280968805"><ele>717.0</ele><time>2026-04-11T10:45:44.001Z</time></trkpt><trkpt lat="46.72532317689745" lon="6.453877591075927"><ele>720.3333333333334</ele><time>2026-04-11T10:45:45.001Z</time></trkpt><trkpt lat="46.725452683061334" lon="6.453697364345129"><ele>723.6666666666667</ele><time>2026-04-11T10:45:46.001Z</time></trkpt><trkpt lat="46.72559174789528" lon="6.453522012028769"><ele>727.0</ele><time>2026-04-11T10:45:47.001Z</time></trkpt><trkpt lat="46.72573928108346" lon="6.453356852578615"><ele>727.0</ele><time>2026-04-11T10:45:48.001Z</time></trkpt><trkpt lat="46.725874378058265" lon="6.453192938221093"><ele>727.0</ele><time>2026-04-11T10:45:49.001Z</time></trkpt><trkpt lat="46.7259983174007" lon="6.453027807692732"><ele>727.0</ele><time>2026-04-11T10:45:50.001Z</time></trkpt><trkpt lat="46.72611197972955" lon="6.452879093008022"><ele>725.3333333333334</ele><time>2026-04-11T10:45:51.001Z</time></trkpt><trkpt lat="46.72620597274975" lon="6.45270932705001"><ele>723.6666666666666</ele><time>2026-04-11T10:45:52.001Z</time></trkpt><trkpt lat="46.726276951741625" lon="6.452511655554692"><ele>722.0</ele><time>2026-04-11T10:45:53.001Z</time></trkpt><trkpt lat="46.72633864009296" lon="6.45229538095053"><ele>722.6666666666666</ele><time>2026-04-11T10:45:54.001Z</time></trkpt><trkpt lat="46.7263885864586" lon="6.452051643371298"><ele>723.3333333333334</ele><time>2026-04-11T10:45:55.001Z</time></trkpt><trkpt lat="46.726417424446126" lon="6.451795062043033"><ele>724.0</ele><time>2026-04-11T10:45:56.001Z</time></trkpt><trkpt lat="46.72644826130681" lon="6.451529695975245"><ele>724.3333333333334</ele><time>2026-04-11T10:45:57.001Z</time></trkpt><trkpt lat="46.72648234168989" lon="6.45125773221365"><ele>724.6666666666666</ele><time>2026-04-11T10:45:58.001Z</time></trkpt><trkpt lat="46.72652103692075" lon="6.450980059352841"><ele>725.0</ele><time>2026-04-11T10:45:59.001Z</time></trkpt><trkpt lat="46.72656764916784" lon="6.450698484677046"><ele>728.3333333333333</ele><time>2026-04-11T10:46:00.001Z</time></trkpt><trkpt lat="46.72662330965215" lon="6.450422429394957"><ele>731.6666666666666</ele><time>2026-04-11T10:46:01.001Z</time></trkpt><trkpt lat="46.726690217432896" lon="6.450155139904114"><ele>735.0</ele><time>2026-04-11T10:46:02.001Z</time></trkpt><trkpt lat="46.7267663696676" lon="6.449879722051591"><ele>731.0</ele><time>2026-04-11T10:46:03.001Z</time></trkpt><trkpt lat="46.7268508807112" lon="6.449612130308532"><ele>727.0</ele><time>2026-04-11T10:46:04.001Z</time></trkpt><trkpt lat="46.72693874547119" lon="6.449343431999571"><ele>723.0</ele><time>2026-04-11T10:46:05.001Z</time></trkpt><trkpt lat="46.72702760569665" lon="6.44908514827266"><ele>723.0</ele><time>2026-04-11T10:46:06.001Z</time></trkpt><trkpt lat="46.7271167891672" lon="6.448824950525136"><ele>723.0</ele><time>2026-04-11T10:46:07.001Z</time></trkpt><trkpt lat="46.72720544327461" lon="6.448557464643839"><ele>723.0</ele><time>2026-04-11T10:46:08.001Z</time></trkpt><trkpt lat="46.72729674143424" lon="6.44829526550835"><ele>726.6666666666666</ele><time>2026-04-11T10:46:09.001Z</time></trkpt><trkpt lat="46.727381723384454" lon="6.448027068680983"><ele>730.3333333333333</ele><time>2026-04-11T10:46:10.001Z</time></trkpt><trkpt lat="46.727471526357085" lon="6.447774028233162"><ele>734.0</ele><time>2026-04-11T10:46:11.001Z</time></trkpt><trkpt lat="46.7275677967985" lon="6.4475121315713535"><ele>736.3333333333333</ele><time>2026-04-11T10:46:12.001Z</time></trkpt><trkpt lat="46.72767088928322" lon="6.447238930997012"><ele>738.6666666666666</ele><time>2026-04-11T10:46:13.001Z</time></trkpt><trkpt lat="46.72776340011309" lon="6.446978080063081"><ele>741.0</ele><time>2026-04-11T10:46:14.001Z</time></trkpt><trkpt lat="46.72785254008188" lon="6.446716989477242"><ele>739.6666666666666</ele><time>2026-04-11T10:46:15.001Z</time></trkpt><trkpt lat="46.72794458993774" lon="6.446450527956972"><ele>738.3333333333333</ele><time>2026-04-11T10:46:16.001Z</time></trkpt><trkpt lat="46.728035403471495" lon="6.4461913826269495"><ele>737.0</ele><time>2026-04-11T10:46:17.001Z</time></trkpt><trkpt lat="46.72812632301545" lon="6.44594262984468"><ele>737.0</ele><time>2026-04-11T10:46:18.001Z</time></trkpt><trkpt lat="46.728221905632466" lon="6.4457132123592045"><ele>737.0</ele><time>2026-04-11T10:46:19.001Z</time></trkpt><trkpt lat="46.72832999342315" lon="6.44550276974715"><ele>737.0</ele><time>2026-04-11T10:46:20.001Z</time></trkpt><trkpt lat="46.72845054426906" lon="6.445302404463609"><ele>732.3333333333333</ele><time>2026-04-11T10:46:21.001Z</time></trkpt><trkpt lat="46.72858093500276" lon="6.445114757718133"><ele>727.6666666666666</ele><time>2026-04-11T10:46:22.001Z</time></trkpt><trkpt lat="46.728691114407845" lon="6.444953089307256"><ele>723.0</ele><time>2026-04-11T10:46:23.001Z</time></trkpt><trkpt lat="46.7287742031999" lon="6.444798378871705"><ele>725.6666666666666</ele><time>2026-04-11T10:46:24.001Z</time></trkpt><trkpt lat="46.728843664981426" lon="6.444607731883469"><ele>728.3333333333333</ele><time>2026-04-11T10:46:25.001Z</time></trkpt><trkpt lat="46.728900166917335" lon="6.444386003504244"><ele>731.0</ele><time>2026-04-11T10:46:26.001Z</time></trkpt><trkpt lat="46.72893553693044" lon="6.444163101660336"><ele>731.0</ele><time>2026-04-11T10:46:27.001Z</time></trkpt><trkpt lat="46.72894148357128" lon="6.443931733613971"><ele>731.0</ele><time>2026-04-11T10:46:28.001Z</time></trkpt><trkpt lat="46.72892139039404" lon="6.4436886640218045"><ele>731.0</ele><time>2026-04-11T10:46:29.001Z</time></trkpt><trkpt lat="46.728888486664786" lon="6.443432439994918"><ele>731.3333333333333</ele><time>2026-04-11T10:46:30.001Z</time></trkpt><trkpt lat="46.72885409456442" lon="6.443171302002761"><ele>731.6666666666666</ele><time>2026-04-11T10:46:31.001Z</time></trkpt><trkpt lat="46.72882027133102" lon="6.442902647648949"><ele>732.0</ele><time>2026-04-11T10:46:32.001Z</time></trkpt><trkpt lat="46.728784449542346" lon="6.442634183162682"><ele>728.6666666666666</ele><time>2026-04-11T10:46:33.001Z</time></trkpt><trkpt lat="46.72875221224879" lon="6.442364218949257"><ele>725.3333333333333</ele><time>2026-04-11T10:46:34.001Z</time></trkpt><trkpt lat="46.72871655910176" lon="6.442089939830114"><ele>722.0</ele><time>2026-04-11T10:46:35.001Z</time></trkpt><trkpt lat="46.72867188822745" lon="6.441818499514306"><ele>719.3333333333333</ele><time>2026-04-11T10:46:36.001Z</time></trkpt><trkpt lat="46.728621129840526" lon="6.441545848096556"><ele>716.6666666666666</ele><time>2026-04-11T10:46:37.001Z</time></trkpt><trkpt lat="46.72857206918019" lon="6.441279277285697"><ele>714.0</ele><time>2026-04-11T10:46:38.001Z</time></trkpt><trkpt lat="46.72852137031587" lon="6.441006931574122"><ele>722.6666666666666</ele><time>2026-04-11T10:46:39.001Z</time></trkpt><trkpt lat="46.728465562884814" lon="6.440736590332215"><ele>731.3333333333333</ele><time>2026-04-11T10:46:40.001Z</time></trkpt><trkpt lat="46.72840647705856" lon="6.440477318132401"><ele>740.0</ele><time>2026-04-11T10:46:41.001Z</time></trkpt><trkpt lat="46.72834681948522" lon="6.440245350143664"><ele>740.0</ele><time>2026-04-11T10:46:42.001Z</time></trkpt><trkpt lat="46.72826616916664" lon="6.44003559401789"><ele>740.0</ele><time>2026-04-11T10:46:43.001Z</time></trkpt><trkpt lat="46.72815773510306" lon="6.43983706402698"><ele>740.0</ele><time>2026-04-11T10:46:44.001Z</time></trkpt><trkpt lat="46.72803175422865" lon="6.439641208663317"><ele>743.0</ele><time>2026-04-11T10:46:45.001Z</time></trkpt><trkpt lat="46.72790190877972" lon="6.439444119720481"><ele>746.0</ele><time>2026-04-11T10:46:46.001Z</time></trkpt><trkpt lat="46.727773695639485" lon="6.439242217783453"><ele>749.0</ele><time>2026-04-11T10:46:47.001Z</time></trkpt><trkpt lat="46.72764054840019" lon="6.439042432478276"><ele>749.0</ele><time>2026-04-11T10:46:48.001Z</time></trkpt><trkpt lat="46.72749247028052" lon="6.438854809185486"><ele>749.0</ele><time>2026-04-11T10:46:49.001Z</time></trkpt><trkpt lat="46.72733216829121" lon="6.43867933960126"><ele>749.0</ele><time>2026-04-11T10:46:50.001Z</time></trkpt><trkpt lat="46.72715687411422" lon="6.438514915694067"><ele>751.3333333333333</ele><time>2026-04-11T10:46:51.001Z</time></trkpt><trkpt lat="46.726979339571635" lon="6.438363304088854"><ele>753.6666666666666</ele><time>2026-04-11T10:46:52.001Z</time></trkpt><trkpt lat="46.72679332095718" lon="6.438212609018651"><ele>756.0</ele><time>2026-04-11T10:46:53.001Z</time></trkpt><trkpt lat="46.726609741312174" lon="6.438065210380388"><ele>750.3333333333334</ele><time>2026-04-11T10:46:54.001Z</time></trkpt><trkpt lat="46.72642549294945" lon="6.437919163078556"><ele>744.6666666666667</ele><time>2026-04-11T10:46:55.001Z</time></trkpt><trkpt lat="46.72624194121123" lon="6.4377652374870955"><ele>739.0</ele><time>2026-04-11T10:46:56.001Z</time></trkpt><trkpt lat="46.72606416740377" lon="6.437587145164684"><ele>741.6666666666667</ele><time>2026-04-11T10:46:57.001Z</time></trkpt><trkpt lat="46.725893695303434" lon="6.437389424282329"><ele>744.3333333333334</ele><time>2026-04-11T10:46:58.001Z</time></trkpt><trkpt lat="46.72572564846962" lon="6.437184035731813"><ele>747.0</ele><time>2026-04-11T10:46:59.001Z</time></trkpt><trkpt lat="46.72555434808736" lon="6.43699087887306"><ele>747.0</ele><time>2026-04-11T10:47:00.001Z</time></trkpt><trkpt lat="46.72537678157541" lon="6.436795963485912"><ele>747.0</ele><time>2026-04-11T10:47:01.001Z</time></trkpt><trkpt lat="46.72520853963409" lon="6.436592587507255"><ele>747.0</ele><time>2026-04-11T10:47:02.001Z</time></trkpt><trkpt lat="46.72504060167658" lon="6.436389822254217"><ele>749.3333333333334</ele><time>2026-04-11T10:47:03.001Z</time></trkpt><trkpt lat="46.724870081349025" lon="6.436201794808685"><ele>751.6666666666667</ele><time>2026-04-11T10:47:04.001Z</time></trkpt><trkpt lat="46.72469804264823" lon="6.4360200530107585"><ele>754.0</ele><time>2026-04-11T10:47:05.001Z</time></trkpt><trkpt lat="46.72452981575214" lon="6.435839096596293"><ele>754.3333333333334</ele><time>2026-04-11T10:47:06.001Z</time></trkpt><trkpt lat="46.72436232550609" lon="6.435656653531165"><ele>754.6666666666666</ele><time>2026-04-11T10:47:07.001Z</time></trkpt><trkpt lat="46.724196101948245" lon="6.43547713970422"><ele>755.0</ele><time>2026-04-11T10:47:08.001Z</time></trkpt><trkpt lat="46.72402995271194" lon="6.4353067607415415"><ele>755.0</ele><time>2026-04-11T10:47:09.001Z</time></trkpt><trkpt lat="46.7238625870342" lon="6.435139159637173"><ele>755.0</ele><time>2026-04-11T10:47:10.001Z</time></trkpt><trkpt lat="46.723708847665485" lon="6.434984304615412"><ele>755.0</ele><time>2026-04-11T10:47:11.001Z</time></trkpt><trkpt lat="46.72355529461495" lon="6.434850465514245"><ele>751.3333333333333</ele><time>2026-04-11T10:47:12.001Z</time></trkpt><trkpt lat="46.72338662123963" lon="6.434728043428581"><ele>747.6666666666666</ele><time>2026-04-11T10:47:13.001Z</time></trkpt><trkpt lat="46.72320120185459" lon="6.4346083460346275"><ele>744.0</ele><time>2026-04-11T10:47:14.001Z</time></trkpt><trkpt lat="46.7230157204585" lon="6.434486438496212"><ele>744.0</ele><time>2026-04-11T10:47:15.001Z</time></trkpt><trkpt lat="46.72283675997028" lon="6.43436409290408"><ele>744.0</ele><time>2026-04-11T10:47:16.001Z</time></trkpt><trkpt lat="46.72265053268485" lon="6.434233691845873"><ele>744.0</ele><time>2026-04-11T10:47:17.001Z</time></trkpt><trkpt lat="46.72246277007937" lon="6.434095195931142"><ele>742.0</ele><time>2026-04-11T10:47:18.001Z</time></trkpt><trkpt lat="46.7222894034122" lon="6.433939995562331"><ele>740.0</ele><time>2026-04-11T10:47:19.001Z</time></trkpt><trkpt lat="46.72212741757975" lon="6.433766337535576"><ele>738.0</ele><time>2026-04-11T10:47:20.001Z</time></trkpt><trkpt lat="46.72196114292953" lon="6.433575515815026"><ele>746.3333333333334</ele><time>2026-04-11T10:47:21.001Z</time></trkpt><trkpt lat="46.72179705191845" lon="6.433379213308263"><ele>754.6666666666667</ele><time>2026-04-11T10:47:22.001Z</time></trkpt><trkpt lat="46.721626534780974" lon="6.43318293338209"><ele>763.0</ele><time>2026-04-11T10:47:23.001Z</time></trkpt><trkpt lat="46.721458176015375" lon="6.4329989028178804"><ele>767.3333333333334</ele><time>2026-04-11T10:47:24.001Z</time></trkpt><trkpt lat="46.7212917143749" lon="6.4328179796156695"><ele>771.6666666666667</ele><time>2026-04-11T10:47:25.001Z</time></trkpt><trkpt lat="46.72113132784928" lon="6.432630443436264"><ele>776.0</ele><time>2026-04-11T10:47:26.001Z</time></trkpt><trkpt lat="46.72097786152104" lon="6.432425563149473"><ele>776.0</ele><time>2026-04-11T10:47:27.001Z</time></trkpt><trkpt lat="46.720836585757425" lon="6.432201923739967"><ele>776.0</ele><time>2026-04-11T10:47:28.001Z</time></trkpt><trkpt lat="46.72070786485278" lon="6.431953352924664"><ele>776.0</ele><time>2026-04-11T10:47:29.001Z</time></trkpt><trkpt lat="46.7205853902772" lon="6.431689427324067"><ele>767.0</ele><time>2026-04-11T10:47:30.001Z</time></trkpt><trkpt lat="46.72047177185356" lon="6.431422716218387"><ele>758.0</ele><time>2026-04-11T10:47:31.001Z</time></trkpt><trkpt lat="46.72037416623342" lon="6.431148772658003"><ele>749.0</ele><time>2026-04-11T10:47:32.001Z</time></trkpt><trkpt lat="46.720285362450724" lon="6.430864098519749"><ele>753.0</ele><time>2026-04-11T10:47:33.001Z</time></trkpt><trkpt lat="46.72019933824997" lon="6.430579656085481"><ele>757.0</ele><time>2026-04-11T10:47:34.001Z</time></trkpt><trkpt lat="46.72011416555692" lon="6.430295109433488"><ele>761.0</ele><time>2026-04-11T10:47:35.001Z</time></trkpt><trkpt lat="46.720027327841514" lon="6.430017634391586"><ele>761.0</ele><time>2026-04-11T10:47:36.001Z</time></trkpt><trkpt lat="46.719940654069056" lon="6.4297370892710735"><ele>761.0</ele><time>2026-04-11T10:47:37.001Z</time></trkpt><trkpt lat="46.719854553659204" lon="6.429462527538217"><ele>761.0</ele><time>2026-04-11T10:47:38.001Z</time></trkpt><trkpt lat="46.719771195675236" lon="6.429193993787317"><ele>756.6666666666666</ele><time>2026-04-11T10:47:39.001Z</time></trkpt><trkpt lat="46.719691339793556" lon="6.428931566515335"><ele>752.3333333333334</ele><time>2026-04-11T10:47:40.001Z</time></trkpt><trkpt lat="46.719614981249144" lon="6.428679089238471"><ele>748.0</ele><time>2026-04-11T10:47:41.001Z</time></trkpt><trkpt lat="46.71954925299886" lon="6.428410486649306"><ele>747.6666666666667</ele><time>2026-04-11T10:47:42.001Z</time></trkpt><trkpt lat="46.71949757859759" lon="6.428124984836695"><ele>747.3333333333334</ele><time>2026-04-11T10:47:43.001Z</time></trkpt><trkpt lat="46.7194634462804" lon="6.427837738365809"><ele>747.0</ele><time>2026-04-11T10:47:44.001Z</time></trkpt><trkpt lat="46.71943752204609" lon="6.427544955305354"><ele>747.0</ele><time>2026-04-11T10:47:45.001Z</time></trkpt><trkpt lat="46.71942117974798" lon="6.427247741880284"><ele>747.0</ele><time>2026-04-11T10:47:46.001Z</time></trkpt><trkpt lat="46.719426421407924" lon="6.426954777319764"><ele>747.0</ele><time>2026-04-11T10:47:47.001Z</time></trkpt><trkpt lat="46.719454225768395" lon="6.426659123482335"><ele>747.6666666666666</ele><time>2026-04-11T10:47:48.001Z</time></trkpt><trkpt lat="46.71949100895159" lon="6.426387239168717"><ele>748.3333333333333</ele><time>2026-04-11T10:47:49.001Z</time></trkpt><trkpt lat="46.71952583707034" lon="6.426138611982314"><ele>749.0</ele><time>2026-04-11T10:47:50.001Z</time></trkpt><trkpt lat="46.71954603298773" lon="6.425888006849354"><ele>749.3333333333333</ele><time>2026-04-11T10:47:51.001Z</time></trkpt><trkpt lat="46.7195542009436" lon="6.42562610232406"><ele>749.6666666666666</ele><time>2026-04-11T10:47:52.001Z</time></trkpt><trkpt lat="46.71955021540402" lon="6.425352569182958"><ele>750.0</ele><time>2026-04-11T10:47:53.001Z</time></trkpt><trkpt lat="46.71952730271591" lon="6.425084298968871"><ele>748.3333333333334</ele><time>2026-04-11T10:47:54.001Z</time></trkpt><trkpt lat="46.71949663485377" lon="6.424807367965342"><ele>746.6666666666667</ele><time>2026-04-11T10:47:55.001Z</time></trkpt><trkpt lat="46.719464466646784" lon="6.424540030041088"><ele>745.0</ele><time>2026-04-11T10:47:56.001Z</time></trkpt><trkpt lat="46.71942936920421" lon="6.424270980897309"><ele>752.0</ele><time>2026-04-11T10:47:57.001Z</time></trkpt><trkpt lat="46.71938149627157" lon="6.424002157772328"><ele>759.0</ele><time>2026-04-11T10:47:58.001Z</time></trkpt><trkpt lat="46.71931910275051" lon="6.423738626651717"><ele>766.0</ele><time>2026-04-11T10:47:59.001Z</time></trkpt><trkpt lat="46.71924458505649" lon="6.423485172601405"><ele>766.3333333333334</ele><time>2026-04-11T10:48:00.001Z</time></trkpt><trkpt lat="46.719157063731" lon="6.423236217348344"><ele>766.6666666666666</ele><time>2026-04-11T10:48:01.001Z</time></trkpt><trkpt lat="46.71905308883622" lon="6.422997579389251"><ele>767.0</ele><time>2026-04-11T10:48:02.001Z</time></trkpt><trkpt lat="46.718935522253254" lon="6.422771199765651"><ele>766.6666666666666</ele><time>2026-04-11T10:48:03.001Z</time></trkpt><trkpt lat="46.71881043033619" lon="6.422553084850138"><ele>766.3333333333334</ele><time>2026-04-11T10:48:04.001Z</time></trkpt><trkpt lat="46.718681665889235" lon="6.422333419773753"><ele>766.0</ele><time>2026-04-11T10:48:05.001Z</time></trkpt><trkpt lat="46.71855270414762" lon="6.422112915938138"><ele>766.0</ele><time>2026-04-11T10:48:06.001Z</time></trkpt><trkpt lat="46.71842781821408" lon="6.421902518762603"><ele>766.0</ele><time>2026-04-11T10:48:07.001Z</time></trkpt><trkpt lat="46.71831230602394" lon="6.421689705567375"><ele>766.0</ele><time>2026-04-11T10:48:08.001Z</time></trkpt><trkpt lat="46.71820917777651" lon="6.421469844428752"><ele>765.0</ele><time>2026-04-11T10:48:09.001Z</time></trkpt><trkpt lat="46.71811450549159" lon="6.421238160633173"><ele>764.0</ele><time>2026-04-11T10:48:10.001Z</time></trkpt><trkpt lat="46.71803544550885" lon="6.420998514984423"><ele>763.0</ele><time>2026-04-11T10:48:11.001Z</time></trkpt><trkpt lat="46.717965576087884" lon="6.4207463250619625"><ele>763.0</ele><time>2026-04-11T10:48:12.001Z</time></trkpt><trkpt lat="46.717908223770046" lon="6.420493429288463"><ele>763.0</ele><time>2026-04-11T10:48:13.001Z</time></trkpt><trkpt lat="46.717860793954785" lon="6.420232943752613"><ele>763.0</ele><time>2026-04-11T10:48:14.001Z</time></trkpt><trkpt lat="46.71781944105553" lon="6.419971241920968"><ele>763.6666666666667</ele><time>2026-04-11T10:48:15.001Z</time></trkpt><trkpt lat="46.7177750688515" lon="6.4197072941343185"><ele>764.3333333333334</ele><time>2026-04-11T10:48:16.001Z</time></trkpt><trkpt lat="46.7177286243128" lon="6.419436614547726"><ele>765.0</ele><time>2026-04-11T10:48:17.001Z</time></trkpt><trkpt lat="46.71768108178498" lon="6.419178057922783"><ele>766.3333333333333</ele><time>2026-04-11T10:48:18.001Z</time></trkpt><trkpt lat="46.71762946840392" lon="6.418917445259363"><ele>767.6666666666666</ele><time>2026-04-11T10:48:19.001Z</time></trkpt><trkpt lat="46.717565741157394" lon="6.418651519927457"><ele>769.0</ele><time>2026-04-11T10:48:20.001Z</time></trkpt><trkpt lat="46.717484760623684" lon="6.418394698968273"><ele>769.0</ele><time>2026-04-11T10:48:21.001Z</time></trkpt><trkpt lat="46.71738919972731" lon="6.4181496949328825"><ele>769.0</ele><time>2026-04-11T10:48:22.001Z</time></trkpt><trkpt lat="46.71727782967068" lon="6.417903721352141"><ele>769.0</ele><time>2026-04-11T10:48:23.001Z</time></trkpt><trkpt lat="46.717166184510134" lon="6.417656904000054"><ele>767.0</ele><time>2026-04-11T10:48:24.001Z</time></trkpt><trkpt lat="46.71704737468928" lon="6.417411792910484"><ele>765.0</ele><time>2026-04-11T10:48:25.001Z</time></trkpt><trkpt lat="46.71693352528166" lon="6.417161066199427"><ele>763.0</ele><time>2026-04-11T10:48:26.001Z</time></trkpt><trkpt lat="46.71682791993154" lon="6.416899759747786"><ele>766.0</ele><time>2026-04-11T10:48:27.001Z</time></trkpt><trkpt lat="46.71673341025108" lon="6.416637618266787"><ele>769.0</ele><time>2026-04-11T10:48:28.001Z</time></trkpt><trkpt lat="46.71665162937838" lon="6.416374817038165"><ele>772.0</ele><time>2026-04-11T10:48:29.001Z</time></trkpt><trkpt lat="46.716583123902545" lon="6.4161108490481435"><ele>772.0</ele><time>2026-04-11T10:48:30.001Z</time></trkpt><trkpt lat="46.71653333303412" lon="6.415835738156945"><ele>772.0</ele><time>2026-04-11T10:48:31.001Z</time></trkpt><trkpt lat="46.71649522442448" lon="6.415551957002236"><ele>772.0</ele><time>2026-04-11T10:48:32.001Z</time></trkpt><trkpt lat="46.71646838352714" lon="6.415272579054788"><ele>770.6666666666666</ele><time>2026-04-11T10:48:33.001Z</time></trkpt><trkpt lat="46.71645426142158" lon="6.415007466311311"><ele>769.3333333333333</ele><time>2026-04-11T10:48:34Z</time></trkpt><trkpt lat="46.71643056554045" lon="6.414759652362255"><ele>768.0</ele><time>2026-04-11T10:48:35Z</time></trkpt><trkpt lat="46.71638895255072" lon="6.414522333231907"><ele>767.0</ele><time>2026-04-11T10:48:36Z</time></trkpt><trkpt lat="46.716324383477804" lon="6.414286362209044"><ele>766.0</ele><time>2026-04-11T10:48:37Z</time></trkpt><trkpt lat="46.71623531997853" lon="6.414051421418144"><ele>765.0</ele><time>2026-04-11T10:48:38Z</time></trkpt><trkpt lat="46.716128015499024" lon="6.413828073889696"><ele>768.3333333333333</ele><time>2026-04-11T10:48:39Z</time></trkpt><trkpt lat="46.716010951584494" lon="6.413599978057774"><ele>771.6666666666666</ele><time>2026-04-11T10:48:40Z</time></trkpt><trkpt lat="46.71589443419813" lon="6.413365516306484"><ele>775.0</ele><time>2026-04-11T10:48:41Z</time></trkpt><trkpt lat="46.71578050419124" lon="6.413122747821993"><ele>772.6666666666666</ele><time>2026-04-11T10:48:42Z</time></trkpt><trkpt lat="46.715666742649034" lon="6.4128771094789725"><ele>770.3333333333333</ele><time>2026-04-11T10:48:43Z</time></trkpt><trkpt lat="46.71555404839096" lon="6.412637133008688"><ele>768.0</ele><time>2026-04-11T10:48:44Z</time></trkpt><trkpt lat="46.715445671963835" lon="6.4124127949619965"><ele>768.0</ele><time>2026-04-11T10:48:45Z</time></trkpt><trkpt lat="46.715341555602166" lon="6.412199005404586"><ele>768.0</ele><time>2026-04-11T10:48:46Z</time></trkpt><trkpt lat="46.715259526878526" lon="6.412005731281823"><ele>768.0</ele><time>2026-04-11T10:48:47Z</time></trkpt><trkpt lat="46.715189793773376" lon="6.411801957833228"><ele>772.0</ele><time>2026-04-11T10:48:48Z</time></trkpt><trkpt lat="46.71514619733725" lon="6.411596970701835"><ele>776.0</ele><time>2026-04-11T10:48:49Z</time></trkpt><trkpt lat="46.715116492140936" lon="6.41138187825294"><ele>780.0</ele><time>2026-04-11T10:48:50Z</time></trkpt><trkpt lat="46.71510183014593" lon="6.411152346925241"><ele>780.0</ele><time>2026-04-11T10:48:51Z</time></trkpt><trkpt lat="46.71509690142663" lon="6.410929546016374"><ele>780.0</ele><time>2026-04-11T10:48:52Z</time></trkpt><trkpt lat="46.71507410351383" lon="6.410702325902441"><ele>780.0</ele><time>2026-04-11T10:48:53Z</time></trkpt><trkpt lat="46.715033778608756" lon="6.410468566821602"><ele>779.6666666666667</ele><time>2026-04-11T10:48:54Z</time></trkpt><trkpt lat="46.714973232469255" lon="6.410233367097647"><ele>779.3333333333334</ele><time>2026-04-11T10:48:55Z</time></trkpt><trkpt lat="46.71488701761571" lon="6.409997657827886"><ele>779.0</ele><time>2026-04-11T10:48:56Z</time></trkpt><trkpt lat="46.71479795904214" lon="6.4097849713110735"><ele>779.3333333333334</ele><time>2026-04-11T10:48:57Z</time></trkpt><trkpt lat="46.71471796557539" lon="6.409586298925343"><ele>779.6666666666667</ele><time>2026-04-11T10:48:58Z</time></trkpt><trkpt lat="46.714649435210454" lon="6.40939623172189"><ele>780.0</ele><time>2026-04-11T10:48:59Z</time></trkpt><trkpt lat="46.7145906286259" lon="6.409189327221809"><ele>780.0</ele><time>2026-04-11T10:49:00Z</time></trkpt><trkpt lat="46.714553405906656" lon="6.40895829519891"><ele>780.0</ele><time>2026-04-11T10:49:01Z</time></trkpt><trkpt lat="46.71452920576717" lon="6.40871052333896"><ele>780.0</ele><time>2026-04-11T10:49:02Z</time></trkpt><trkpt lat="46.71451209018365" lon="6.408447429737477"><ele>780.3333333333333</ele><time>2026-04-11T10:49:03Z</time></trkpt><trkpt lat="46.71450268776164" lon="6.408180140162461"><ele>780.6666666666666</ele><time>2026-04-11T10:49:04Z</time></trkpt><trkpt lat="46.71450444205946" lon="6.407906192165902"><ele>781.0</ele><time>2026-04-11T10:49:05Z</time></trkpt><trkpt lat="46.71451755468936" lon="6.407622438951583"><ele>781.0</ele><time>2026-04-11T10:49:06Z</time></trkpt><trkpt lat="46.71454258093293" lon="6.407337693106299"><ele>781.0</ele><time>2026-04-11T10:49:07Z</time></trkpt><trkpt lat="46.71457559175908" lon="6.407071449700283"><ele>781.0</ele><time>2026-04-11T10:49:08Z</time></trkpt><trkpt lat="46.71462654261246" lon="6.406808918494445"><ele>781.3333333333333</ele><time>2026-04-11T10:49:09Z</time></trkpt><trkpt lat="46.71470084972318" lon="6.406539952388274"><ele>781.6666666666667</ele><time>2026-04-11T10:49:10Z</time></trkpt><trkpt lat="46.7147906166574" lon="6.406278649276315"><ele>782.0</ele><time>2026-04-11T10:49:11Z</time></trkpt><trkpt lat="46.71487639462076" lon="6.406017650864879"><ele>783.6666666666667</ele><time>2026-04-11T10:49:12.001Z</time></trkpt><trkpt lat="46.71496790676222" lon="6.405748103928129"><ele>785.3333333333333</ele><time>2026-04-11T10:49:13.001Z</time></trkpt><trkpt lat="46.715054819358166" lon="6.405497928770663"><ele>787.0</ele><time>2026-04-11T10:49:14.001Z</time></trkpt><trkpt lat="46.71513616501726" lon="6.405232070715942"><ele>787.6666666666666</ele><time>2026-04-11T10:49:15.001Z</time></trkpt><trkpt lat="46.715211865667946" lon="6.404968852955642"><ele>788.3333333333333</ele><time>2026-04-11T10:49:16.001Z</time></trkpt><trkpt lat="46.715287876944025" lon="6.40470118221899"><ele>789.0</ele><time>2026-04-11T10:49:17.001Z</time></trkpt><trkpt lat="46.71536253016914" lon="6.404433248530407"><ele>788.6666666666667</ele><time>2026-04-11T10:49:18.001Z</time></trkpt><trkpt lat="46.71543157814506" lon="6.404172690143842"><ele>788.3333333333334</ele><time>2026-04-11T10:49:19.001Z</time></trkpt><trkpt lat="46.71549757115177" lon="6.403913688443793"><ele>788.0</ele><time>2026-04-11T10:49:20.001Z</time></trkpt><trkpt lat="46.71556108881777" lon="6.403672613487964"><ele>788.0</ele><time>2026-04-11T10:49:21.001Z</time></trkpt><trkpt lat="46.71563860096883" lon="6.403438873848557"><ele>788.0</ele><time>2026-04-11T10:49:22.001Z</time></trkpt><trkpt lat="46.715736902146816" lon="6.403213435482086"><ele>788.0</ele><time>2026-04-11T10:49:23.001Z</time></trkpt><trkpt lat="46.71584720954048" lon="6.402995702496927"><ele>789.3333333333334</ele><time>2026-04-11T10:49:24.001Z</time></trkpt><trkpt lat="46.71596294545213" lon="6.402795492443536"><ele>790.6666666666667</ele><time>2026-04-11T10:49:25.001Z</time></trkpt><trkpt lat="46.71608960476308" lon="6.402602523322469"><ele>792.0</ele><time>2026-04-11T10:49:26.001Z</time></trkpt><trkpt lat="46.71622471490501" lon="6.40241674658836"><ele>789.6666666666667</ele><time>2026-04-11T10:49:27.001Z</time></trkpt><trkpt lat="46.71636806663479" lon="6.402238964268508"><ele>787.3333333333334</ele><time>2026-04-11T10:49:28.001Z</time></trkpt><trkpt lat="46.71651155778599" lon="6.402117111009484"><ele>785.0</ele><time>2026-04-11T10:49:29.001Z</time></trkpt><trkpt lat="46.716677588000366" lon="6.40197691068945"><ele>785.0</ele><time>2026-04-11T10:49:30.001Z</time></trkpt><trkpt lat="46.716849268841216" lon="6.401852250152979"><ele>785.0</ele><time>2026-04-11T10:49:31.001Z</time></trkpt><trkpt lat="46.71701920448608" lon="6.401741733966846"><ele>785.0</ele><time>2026-04-11T10:49:32.001Z</time></trkpt><trkpt lat="46.71719487546266" lon="6.401638731935213"><ele>783.6666666666667</ele><time>2026-04-11T10:49:33.001Z</time></trkpt><trkpt lat="46.717369037294446" lon="6.401546962681305"><ele>782.3333333333333</ele><time>2026-04-11T10:49:34.001Z</time></trkpt><trkpt lat="46.71753315009387" lon="6.4014636380785355"><ele>781.0</ele><time>2026-04-11T10:49:35.001Z</time></trkpt><trkpt lat="46.71768730558994" lon="6.401361875389552"><ele>783.6666666666666</ele><time>2026-04-11T10:49:36.001Z</time></trkpt><trkpt lat="46.71783333432981" lon="6.401237887333856"><ele>786.3333333333333</ele><time>2026-04-11T10:49:37.001Z</time></trkpt><trkpt lat="46.717963972679925" lon="6.40110302599355"><ele>789.0</ele><time>2026-04-11T10:49:38.001Z</time></trkpt><trkpt lat="46.718060362133976" lon="6.400967104147224"><ele>789.0</ele><time>2026-04-11T10:49:39.001Z</time></trkpt><trkpt lat="46.71815673488608" lon="6.400815856790692"><ele>789.0</ele><time>2026-04-11T10:49:40.001Z</time></trkpt><trkpt lat="46.718235800775666" lon="6.4006593138143195"><ele>789.0</ele><time>2026-04-11T10:49:41.001Z</time></trkpt><trkpt lat="46.718303330325895" lon="6.400485480296053"><ele>789.0</ele><time>2026-04-11T10:49:42.001Z</time></trkpt><trkpt lat="46.71835916809488" lon="6.400299861554347"><ele>789.0</ele><time>2026-04-11T10:49:43.001Z</time></trkpt><trkpt lat="46.71839745782172" lon="6.400095936802496"><ele>789.0</ele><time>2026-04-11T10:49:44.001Z</time></trkpt><trkpt lat="46.71841496783125" lon="6.399876486403872"><ele>789.0</ele><time>2026-04-11T10:49:45.001Z</time></trkpt><trkpt lat="46.71840843405467" lon="6.399660088416886"><ele>789.0</ele><time>2026-04-11T10:49:46.001Z</time></trkpt><trkpt lat="46.718381571244" lon="6.399441639261294"><ele>789.0</ele><time>2026-04-11T10:49:47.001Z</time></trkpt><trkpt lat="46.718337402666876" lon="6.399236482804021"><ele>789.0</ele><time>2026-04-11T10:49:48.001Z</time></trkpt><trkpt lat="46.71827510941157" lon="6.399044486027743"><ele>789.0</ele><time>2026-04-11T10:49:49.001Z</time></trkpt><trkpt lat="46.71819485542281" lon="6.398863926328042"><ele>789.0</ele><time>2026-04-11T10:49:50.001Z</time></trkpt><trkpt lat="46.71809325322541" lon="6.3986898453140135"><ele>788.6666666666667</ele><time>2026-04-11T10:49:51.001Z</time></trkpt><trkpt lat="46.71797502202873" lon="6.398539156859946"><ele>788.3333333333334</ele><time>2026-04-11T10:49:52.001Z</time></trkpt><trkpt lat="46.7178484577986" lon="6.398415528897208"><ele>788.0</ele><time>2026-04-11T10:49:53.001Z</time></trkpt><trkpt lat="46.717704653197316" lon="6.398320157539778"><ele>788.0</ele><time>2026-04-11T10:49:54.001Z</time></trkpt><trkpt lat="46.717545987394374" lon="6.398232863321024"><ele>788.0</ele><time>2026-04-11T10:49:55.001Z</time></trkpt><trkpt lat="46.717376964656125" lon="6.398150591490821"><ele>788.0</ele><time>2026-04-11T10:49:56.001Z</time></trkpt><trkpt lat="46.71721171762047" lon="6.398077022760701"><ele>788.0</ele><time>2026-04-11T10:49:57.001Z</time></trkpt><trkpt lat="46.71704738348551" lon="6.398005916143589"><ele>788.0</ele><time>2026-04-11T10:49:58.001Z</time></trkpt><trkpt lat="46.71688055649056" lon="6.397914825162011"><ele>788.0</ele><time>2026-04-11T10:49:59.001Z</time></trkpt><trkpt lat="46.71671401756315" lon="6.397802474318119"><ele>787.3333333333334</ele><time>2026-04-11T10:50:00.001Z</time></trkpt><trkpt lat="46.71655952122662" lon="6.397670448349307"><ele>786.6666666666667</ele><time>2026-04-11T10:50:01.001Z</time></trkpt><trkpt lat="46.716408163164225" lon="6.397531307678593"><ele>786.0</ele><time>2026-04-11T10:50:02.001Z</time></trkpt><trkpt lat="46.71620721234505" lon="6.3973788599666905"><ele>786.0</ele><time>2026-04-11T10:50:03.001Z</time></trkpt><trkpt lat="46.716062242366355" lon="6.397201736808373"><ele>786.0</ele><time>2026-04-11T10:50:04.001Z</time></trkpt><trkpt lat="46.71592543873161" lon="6.397012469497601"><ele>786.0</ele><time>2026-04-11T10:50:05.001Z</time></trkpt><trkpt lat="46.71579358061733" lon="6.396816320724096"><ele>786.0</ele><time>2026-04-11T10:50:06.001Z</time></trkpt><trkpt lat="46.71567230574814" lon="6.396618888696841"><ele>786.0</ele><time>2026-04-11T10:50:07.001Z</time></trkpt><trkpt lat="46.71554899567837" lon="6.396417310443606"><ele>786.0</ele><time>2026-04-11T10:50:08.001Z</time></trkpt><trkpt lat="46.71542230918706" lon="6.396223723869548"><ele>785.6666666666667</ele><time>2026-04-11T10:50:09.001Z</time></trkpt><trkpt lat="46.71530366113085" lon="6.396042680830615"><ele>785.3333333333334</ele><time>2026-04-11T10:50:10.001Z</time></trkpt><trkpt lat="46.715183103995045" lon="6.395868045628267"><ele>785.0</ele><time>2026-04-11T10:50:11.001Z</time></trkpt><trkpt lat="46.71506974673424" lon="6.395693831388359"><ele>785.0</ele><time>2026-04-11T10:50:12.001Z</time></trkpt><trkpt lat="46.714949446018615" lon="6.395507333671409"><ele>785.0</ele><time>2026-04-11T10:50:13.001Z</time></trkpt><trkpt lat="46.7148284176385" lon="6.3953143976606475"><ele>785.0</ele><time>2026-04-11T10:50:14.001Z</time></trkpt><trkpt lat="46.71471216070376" lon="6.395109938053261"><ele>783.0</ele><time>2026-04-11T10:50:15.001Z</time></trkpt><trkpt lat="46.714581476538086" lon="6.3948843873709755"><ele>781.0</ele><time>2026-04-11T10:50:16.001Z</time></trkpt><trkpt lat="46.7144397477844" lon="6.3946746414079705"><ele>779.0</ele><time>2026-04-11T10:50:17.001Z</time></trkpt><trkpt lat="46.71430023373571" lon="6.3944648441560155"><ele>778.3333333333334</ele><time>2026-04-11T10:50:18.001Z</time></trkpt><trkpt lat="46.7141647827022" lon="6.394241414520849"><ele>777.6666666666667</ele><time>2026-04-11T10:50:19.001Z</time></trkpt><trkpt lat="46.71403874738385" lon="6.39402799748976"><ele>777.0</ele><time>2026-04-11T10:50:20.001Z</time></trkpt><trkpt lat="46.713919652086254" lon="6.393822387237349"><ele>775.3333333333333</ele><time>2026-04-11T10:50:21.001Z</time></trkpt><trkpt lat="46.713810715400086" lon="6.393613165488482"><ele>773.6666666666666</ele><time>2026-04-11T10:50:22.001Z</time></trkpt><trkpt lat="46.71370024006716" lon="6.393394054646617"><ele>772.0</ele><time>2026-04-11T10:50:23.001Z</time></trkpt><trkpt lat="46.713592349299326" lon="6.393159097034671"><ele>773.6666666666666</ele><time>2026-04-11T10:50:24.001Z</time></trkpt><trkpt lat="46.71349351947929" lon="6.392909715300968"><ele>775.3333333333333</ele><time>2026-04-11T10:50:25.001Z</time></trkpt><trkpt lat="46.713395786220396" lon="6.392667693304512"><ele>777.0</ele><time>2026-04-11T10:50:26.001Z</time></trkpt><trkpt lat="46.7133064597542" lon="6.392425899251207"><ele>777.0</ele><time>2026-04-11T10:50:27.001Z</time></trkpt><trkpt lat="46.71321944845587" lon="6.392175568325304"><ele>777.0</ele><time>2026-04-11T10:50:28.001Z</time></trkpt><trkpt lat="46.713140385145124" lon="6.391934024280704"><ele>777.0</ele><time>2026-04-11T10:50:29.001Z</time></trkpt><trkpt lat="46.71306570137221" lon="6.391681983015197"><ele>775.3333333333333</ele><time>2026-04-11T10:50:30.001Z</time></trkpt><trkpt lat="46.71299627601649" lon="6.391435925401414"><ele>773.6666666666666</ele><time>2026-04-11T10:50:31.001Z</time></trkpt><trkpt lat="46.71293304949371" lon="6.391196083560312"><ele>772.0</ele><time>2026-04-11T10:50:32.001Z</time></trkpt><trkpt lat="46.71287740285207" lon="6.39096405281887"><ele>770.0</ele><time>2026-04-11T10:50:33.001Z</time></trkpt><trkpt lat="46.71283001685402" lon="6.390723986035844"><ele>768.0</ele><time>2026-04-11T10:50:34.001Z</time></trkpt><trkpt lat="46.71278437872053" lon="6.3904639188932215"><ele>766.0</ele><time>2026-04-11T10:50:35.001Z</time></trkpt><trkpt lat="46.712743813389096" lon="6.390185328986523"><ele>769.3333333333334</ele><time>2026-04-11T10:50:36.001Z</time></trkpt><trkpt lat="46.71270999898639" lon="6.38990773473984"><ele>772.6666666666667</ele><time>2026-04-11T10:50:37.001Z</time></trkpt><trkpt lat="46.71268091179628" lon="6.389627081863364"><ele>776.0</ele><time>2026-04-11T10:50:38.001Z</time></trkpt><trkpt lat="46.71265328868467" lon="6.389335877815722"><ele>776.0</ele><time>2026-04-11T10:50:39.001Z</time></trkpt><trkpt lat="46.71263201737067" lon="6.3890513369898265"><ele>776.0</ele><time>2026-04-11T10:50:40Z</time></trkpt><trkpt lat="46.71260884780383" lon="6.388776386426239"><ele>776.0</ele><time>2026-04-11T10:50:41Z</time></trkpt><trkpt lat="46.71257897316684" lon="6.388496286739406"><ele>773.6666666666667</ele><time>2026-04-11T10:50:42Z</time></trkpt><trkpt lat="46.71254339847434" lon="6.388219446119595"><ele>771.3333333333333</ele><time>2026-04-11T10:50:43Z</time></trkpt><trkpt lat="46.712495620545106" lon="6.387958415029213"><ele>769.0</ele><time>2026-04-11T10:50:44Z</time></trkpt><trkpt lat="46.71243495923977" lon="6.387700398044968"><ele>768.3333333333333</ele><time>2026-04-11T10:50:45Z</time></trkpt><trkpt lat="46.71235577832071" lon="6.387444254739346"><ele>767.6666666666666</ele><time>2026-04-11T10:50:46Z</time></trkpt><trkpt lat="46.71227738021041" lon="6.387199114280146"><ele>767.0</ele><time>2026-04-11T10:50:47Z</time></trkpt><trkpt lat="46.71220056862467" lon="6.386958780408722"><ele>765.0</ele><time>2026-04-11T10:50:48Z</time></trkpt><trkpt lat="46.7121262377034" lon="6.386724052722301"><ele>763.0</ele><time>2026-04-11T10:50:49Z</time></trkpt><trkpt lat="46.712053427257004" lon="6.386495563435102"><ele>761.0</ele><time>2026-04-11T10:50:50Z</time></trkpt><trkpt lat="46.71198572909475" lon="6.386277620776329"><ele>762.0</ele><time>2026-04-11T10:50:51Z</time></trkpt><trkpt lat="46.71191872525637" lon="6.386064256230768"><ele>763.0</ele><time>2026-04-11T10:50:52Z</time></trkpt><trkpt lat="46.71185801978529" lon="6.3858605242433715"><ele>764.0</ele><time>2026-04-11T10:50:53Z</time></trkpt><trkpt lat="46.71179773993686" lon="6.385656977763091"><ele>762.3333333333333</ele><time>2026-04-11T10:50:54Z</time></trkpt><trkpt lat="46.71173460272422" lon="6.385456708471857"><ele>760.6666666666666</ele><time>2026-04-11T10:50:55Z</time></trkpt><trkpt lat="46.71167421922501" lon="6.3852546873738065"><ele>759.0</ele><time>2026-04-11T10:50:56Z</time></trkpt><trkpt lat="46.71160801077044" lon="6.385051950212238"><ele>759.0</ele><time>2026-04-11T10:50:57Z</time></trkpt><trkpt lat="46.711548322420136" lon="6.384858788371789"><ele>759.0</ele><time>2026-04-11T10:50:58Z</time></trkpt><trkpt lat="46.71148906143149" lon="6.38466641477378"><ele>759.0</ele><time>2026-04-11T10:50:59Z</time></trkpt><trkpt lat="46.71142476795771" lon="6.384469841163661"><ele>759.0</ele><time>2026-04-11T10:51:00Z</time></trkpt><trkpt lat="46.71136210678641" lon="6.384282260794508"><ele>758.5</ele><time>2026-04-11T10:51:01Z</time></trkpt><trkpt lat="46.71130327361647" lon="6.384087124631727"><ele>758.0</ele><time>2026-04-11T10:51:02Z</time></trkpt><trkpt lat="46.71124707090347" lon="6.383894855874646"><ele>757.5</ele><time>2026-04-11T10:51:03Z</time></trkpt><trkpt lat="46.71120127005147" lon="6.383722183854064"><ele>757.0</ele><time>2026-04-11T10:51:04Z</time></trkpt><trkpt lat="46.711167354619754" lon="6.3835585014944805"><ele>756.75</ele><time>2026-04-11T10:51:05Z</time></trkpt><trkpt lat="46.71113891325521" lon="6.383387416548523"><ele>756.5</ele><time>2026-04-11T10:51:06Z</time></trkpt><trkpt lat="46.711113817381495" lon="6.3831946588778194"><ele>756.25</ele><time>2026-04-11T10:51:07Z</time></trkpt><trkpt lat="46.711091224537284" lon="6.383003487403023"><ele>756.0</ele><time>2026-04-11T10:51:08Z</time></trkpt><trkpt lat="46.711073744676604" lon="6.382805756503604"><ele>756.0</ele><time>2026-04-11T10:51:09Z</time></trkpt><trkpt lat="46.71105902702625" lon="6.382613188045124"><ele>756.0</ele><time>2026-04-11T10:51:10Z</time></trkpt><trkpt lat="46.711050893399126" lon="6.382416844121217"><ele>756.0</ele><time>2026-04-11T10:51:11Z</time></trkpt><trkpt lat="46.711052113517475" lon="6.38220893024899"><ele>756.0</ele><time>2026-04-11T10:51:12Z</time></trkpt><trkpt lat="46.71106380783873" lon="6.381986618925415"><ele>755.0</ele><time>2026-04-11T10:51:13Z</time></trkpt><trkpt lat="46.7110799942846" lon="6.381755608603598"><ele>754.0</ele><time>2026-04-11T10:51:14Z</time></trkpt><trkpt lat="46.711106472142085" lon="6.381524933892698"><ele>753.0</ele><time>2026-04-11T10:51:15Z</time></trkpt><trkpt lat="46.71113398831874" lon="6.381295078261489"><ele>752.5</ele><time>2026-04-11T10:51:16Z</time></trkpt><trkpt lat="46.71116046884296" lon="6.381073941742528"><ele>752.0</ele><time>2026-04-11T10:51:17Z</time></trkpt><trkpt lat="46.711184910755684" lon="6.380860098395214"><ele>751.5</ele><time>2026-04-11T10:51:18Z</time></trkpt><trkpt lat="46.7112077377021" lon="6.380648399705604"><ele>751.0</ele><time>2026-04-11T10:51:19Z</time></trkpt><trkpt lat="46.71122924259136" lon="6.380441951328598"><ele>751.0</ele><time>2026-04-11T10:51:20Z</time></trkpt><trkpt lat="46.711253620406964" lon="6.380248533865409"><ele>751.0</ele><time>2026-04-11T10:51:21Z</time></trkpt><trkpt lat="46.71127217835729" lon="6.38007705483038"><ele>751.0</ele><time>2026-04-11T10:51:22Z</time></trkpt><trkpt lat="46.711293107256616" lon="6.37993773248328"><ele>751.0</ele><time>2026-04-11T10:51:23Z</time></trkpt><trkpt lat="46.71132367730228" lon="6.37982455585028"><ele>751.0</ele><time>2026-04-11T10:51:24Z</time></trkpt><trkpt lat="46.71137730022267" lon="6.3797312761785765"><ele>750.5</ele><time>2026-04-11T10:51:25Z</time></trkpt><trkpt lat="46.71146075037793" lon="6.379637425389378"><ele>750.0</ele><time>2026-04-11T10:51:26Z</time></trkpt><trkpt lat="46.71155567454585" lon="6.379541536611091"><ele>749.5</ele><time>2026-04-11T10:51:27Z</time></trkpt><trkpt lat="46.7116532838758" lon="6.379444362870033"><ele>749.0</ele><time>2026-04-11T10:51:28Z</time></trkpt><trkpt lat="46.71174194748419" lon="6.3793429253388805"><ele>749.0</ele><time>2026-04-11T10:51:29Z</time></trkpt><trkpt lat="46.71182538993483" lon="6.379255414658989"><ele>749.0</ele><time>2026-04-11T10:51:30Z</time></trkpt><trkpt lat="46.71190249533756" lon="6.379183556275419"><ele>749.0</ele><time>2026-04-11T10:51:31Z</time></trkpt><trkpt lat="46.711980843292764" lon="6.379137806403549"><ele>749.0</ele><time>2026-04-11T10:51:32Z</time></trkpt><trkpt lat="46.712068786585036" lon="6.37913219072123"><ele>749.0</ele><time>2026-04-11T10:51:33Z</time></trkpt><trkpt lat="46.712155639177745" lon="6.379173362288029"><ele>751.0</ele><time>2026-04-11T10:51:34Z</time></trkpt><trkpt lat="46.71225791054537" lon="6.379254623682199"><ele>753.0</ele><time>2026-04-11T10:51:35Z</time></trkpt><trkpt lat="46.712317000846205" lon="6.379379437379434"><ele>755.0</ele><time>2026-04-11T10:51:36Z</time></trkpt><trkpt lat="46.71238577321903" lon="6.3795243245157165"><ele>757.0</ele><time>2026-04-11T10:51:37Z</time></trkpt><trkpt lat="46.71245589550488" lon="6.379678607473199"><ele>756.75</ele><time>2026-04-11T10:51:38Z</time></trkpt><trkpt lat="46.712524617367755" lon="6.379846991760735"><ele>756.5</ele><time>2026-04-11T10:51:39Z</time></trkpt><trkpt lat="46.712586443490174" lon="6.380036008075868"><ele>756.25</ele><time>2026-04-11T10:51:40Z</time></trkpt><trkpt lat="46.71264455900925" lon="6.3802298249727585"><ele>756.0</ele><time>2026-04-11T10:51:41Z</time></trkpt><trkpt lat="46.71269985338877" lon="6.380431549194638"><ele>759.0</ele><time>2026-04-11T10:51:42Z</time></trkpt><trkpt lat="46.7127512823403" lon="6.380609573548317"><ele>762.0</ele><time>2026-04-11T10:51:43Z</time></trkpt><trkpt lat="46.71280909590538" lon="6.380784625707139"><ele>765.0</ele><time>2026-04-11T10:51:44Z</time></trkpt><trkpt lat="46.712866295421364" lon="6.380948011058657"><ele>768.0</ele><time>2026-04-11T10:51:45Z</time></trkpt><trkpt lat="46.71293051346626" lon="6.381107890314029"><ele>768.0</ele><time>2026-04-11T10:51:46Z</time></trkpt><trkpt lat="46.71300073804741" lon="6.381283708117997"><ele>768.0</ele><time>2026-04-11T10:51:47Z</time></trkpt><trkpt lat="46.713075077960504" lon="6.381467237711086"><ele>768.0</ele><time>2026-04-11T10:51:48Z</time></trkpt><trkpt lat="46.7131479227501" lon="6.381647868367477"><ele>768.0</ele><time>2026-04-11T10:51:49Z</time></trkpt><trkpt lat="46.71322906382282" lon="6.3818508260447135"><ele>767.0</ele><time>2026-04-11T10:51:50Z</time></trkpt><trkpt lat="46.7133159320115" lon="6.382060692176723"><ele>766.0</ele><time>2026-04-11T10:51:51Z</time></trkpt><trkpt lat="46.71340818980673" lon="6.382273817182167"><ele>765.0</ele><time>2026-04-11T10:51:52Z</time></trkpt><trkpt lat="46.713502679567775" lon="6.3824889605464135"><ele>765.3333333333334</ele><time>2026-04-11T10:51:53Z</time></trkpt><trkpt lat="46.713598237260925" lon="6.382707561303848"><ele>765.6666666666667</ele><time>2026-04-11T10:51:54Z</time></trkpt><trkpt lat="46.71369108032109" lon="6.382918366960582"><ele>766.0</ele><time>2026-04-11T10:51:55Z</time></trkpt><trkpt lat="46.713790169356805" lon="6.383132237157867"><ele>764.6666666666667</ele><time>2026-04-11T10:51:56Z</time></trkpt><trkpt lat="46.71388705255337" lon="6.383345756935097"><ele>763.3333333333334</ele><time>2026-04-11T10:51:57Z</time></trkpt><trkpt lat="46.71397709293819" lon="6.383549778819067"><ele>762.0</ele><time>2026-04-11T10:51:58Z</time></trkpt><trkpt lat="46.71406242052534" lon="6.383755041128353"><ele>760.3333333333334</ele><time>2026-04-11T10:51:59Z</time></trkpt><trkpt lat="46.71413924759308" lon="6.38396638615921"><ele>758.6666666666667</ele><time>2026-04-11T10:52:00Z</time></trkpt><trkpt lat="46.714203038950004" lon="6.384181190145609"><ele>757.0</ele><time>2026-04-11T10:52:01Z</time></trkpt><trkpt lat="46.71424707222344" lon="6.384408545464031"><ele>757.0</ele><time>2026-04-11T10:52:02Z</time></trkpt><trkpt lat="46.7142672815377" lon="6.384631866599066"><ele>757.0</ele><time>2026-04-11T10:52:03Z</time></trkpt><trkpt lat="46.714286718502365" lon="6.384848545342756"><ele>757.0</ele><time>2026-04-11T10:52:04Z</time></trkpt><trkpt lat="46.71432800543599" lon="6.385073041923947"><ele>756.6666666666667</ele><time>2026-04-11T10:52:05Z</time></trkpt><trkpt lat="46.71439503617838" lon="6.385301345031117"><ele>756.3333333333334</ele><time>2026-04-11T10:52:06Z</time></trkpt><trkpt lat="46.71447597338578" lon="6.385529186379463"><ele>756.0</ele><time>2026-04-11T10:52:07Z</time></trkpt><trkpt lat="46.71456265968275" lon="6.38573076528771"><ele>756.0</ele><time>2026-04-11T10:52:08Z</time></trkpt><trkpt lat="46.71466380733" lon="6.385916855352577"><ele>756.0</ele><time>2026-04-11T10:52:09Z</time></trkpt><trkpt lat="46.71478066794947" lon="6.386092608315946"><ele>756.0</ele><time>2026-04-11T10:52:10Z</time></trkpt><trkpt lat="46.714907989961624" lon="6.386266969276103"><ele>754.3333333333334</ele><time>2026-04-11T10:52:11Z</time></trkpt><trkpt lat="46.71503838094244" lon="6.3864344079563065"><ele>752.6666666666667</ele><time>2026-04-11T10:52:12.001Z</time></trkpt><trkpt lat="46.715175068448694" lon="6.386599309782551"><ele>751.0</ele><time>2026-04-11T10:52:13.001Z</time></trkpt><trkpt lat="46.71531541301504" lon="6.386764215453683"><ele>751.0</ele><time>2026-04-11T10:52:14.001Z</time></trkpt><trkpt lat="46.71546032880933" lon="6.386933684179934"><ele>751.0</ele><time>2026-04-11T10:52:15.001Z</time></trkpt><trkpt lat="46.71560791567509" lon="6.387103088899724"><ele>751.0</ele><time>2026-04-11T10:52:16.001Z</time></trkpt><trkpt lat="46.71575797675972" lon="6.387277017092323"><ele>751.0</ele><time>2026-04-11T10:52:17.001Z</time></trkpt><trkpt lat="46.71590399895027" lon="6.387450156825308"><ele>751.0</ele><time>2026-04-11T10:52:18.001Z</time></trkpt><trkpt lat="46.716055793842216" lon="6.387622769459693"><ele>751.0</ele><time>2026-04-11T10:52:19.001Z</time></trkpt><trkpt lat="46.71621436749766" lon="6.387795440677007"><ele>751.6666666666667</ele><time>2026-04-11T10:52:20.001Z</time></trkpt><trkpt lat="46.71637083016266" lon="6.387956763908095"><ele>752.3333333333334</ele><time>2026-04-11T10:52:21.001Z</time></trkpt><trkpt lat="46.71651601088328" lon="6.38809578480162"><ele>753.0</ele><time>2026-04-11T10:52:22.001Z</time></trkpt><trkpt lat="46.71665584491082" lon="6.388218583247891"><ele>753.0</ele><time>2026-04-11T10:52:23.001Z</time></trkpt><trkpt lat="46.716804769263256" lon="6.388341213916879"><ele>753.0</ele><time>2026-04-11T10:52:24.001Z</time></trkpt><trkpt lat="46.71696092651763" lon="6.388461884049711"><ele>753.0</ele><time>2026-04-11T10:52:25.001Z</time></trkpt><trkpt lat="46.71712304031437" lon="6.388576246052636"><ele>753.3333333333334</ele><time>2026-04-11T10:52:26.001Z</time></trkpt><trkpt lat="46.71729268704563" lon="6.388690237310937"><ele>753.6666666666667</ele><time>2026-04-11T10:52:27.001Z</time></trkpt><trkpt lat="46.71746240474228" lon="6.388795712714979"><ele>754.0</ele><time>2026-04-11T10:52:28.001Z</time></trkpt><trkpt lat="46.71762994134495" lon="6.38888639727878"><ele>756.6666666666667</ele><time>2026-04-11T10:52:29.001Z</time></trkpt><trkpt lat="46.71780412899742" lon="6.388965449145877"><ele>759.3333333333334</ele><time>2026-04-11T10:52:30.001Z</time></trkpt><trkpt lat="46.71797619425634" lon="6.38905712097174"><ele>762.0</ele><time>2026-04-11T10:52:31.001Z</time></trkpt><trkpt lat="46.718149376877385" lon="6.389161137826999"><ele>762.0</ele><time>2026-04-11T10:52:32.001Z</time></trkpt><trkpt lat="46.71832527514019" lon="6.389255558616564"><ele>762.0</ele><time>2026-04-11T10:52:33.001Z</time></trkpt><trkpt lat="46.71850093095251" lon="6.389347306057411"><ele>762.0</ele><time>2026-04-11T10:52:34.001Z</time></trkpt><trkpt lat="46.71867003351966" lon="6.389460113351318"><ele>764.3333333333333</ele><time>2026-04-11T10:52:35.001Z</time></trkpt><trkpt lat="46.718833716302946" lon="6.389583608595188"><ele>766.6666666666666</ele><time>2026-04-11T10:52:36.001Z</time></trkpt><trkpt lat="46.718999360438026" lon="6.38971495364375"><ele>769.0</ele><time>2026-04-11T10:52:37.001Z</time></trkpt><trkpt lat="46.71915840978632" lon="6.389855611309274"><ele>769.0</ele><time>2026-04-11T10:52:38.001Z</time></trkpt><trkpt lat="46.71931090383113" lon="6.389995993677818"><ele>769.0</ele><time>2026-04-11T10:52:39.001Z</time></trkpt><trkpt lat="46.719469749650365" lon="6.390139804270074"><ele>769.0</ele><time>2026-04-11T10:52:40.001Z</time></trkpt><trkpt lat="46.71962978423274" lon="6.390280455915298"><ele>769.3333333333333</ele><time>2026-04-11T10:52:41.001Z</time></trkpt><trkpt lat="46.71979114808811" lon="6.390426334012256"><ele>769.6666666666667</ele><time>2026-04-11T10:52:42.001Z</time></trkpt><trkpt lat="46.719954387508146" lon="6.390571910224573"><ele>770.0</ele><time>2026-04-11T10:52:43.001Z</time></trkpt><trkpt lat="46.72011824761439" lon="6.3907202076558205"><ele>773.3333333333334</ele><time>2026-04-11T10:52:44.001Z</time></trkpt><trkpt lat="46.72028348254629" lon="6.390865669837229"><ele>776.6666666666667</ele><time>2026-04-11T10:52:45.001Z</time></trkpt><trkpt lat="46.7204469290644" lon="6.391004862597402"><ele>780.0</ele><time>2026-04-11T10:52:46Z</time></trkpt><trkpt lat="46.72059907485701" lon="6.391133114972992"><ele>780.0</ele><time>2026-04-11T10:52:47Z</time></trkpt><trkpt lat="46.72074734542294" lon="6.391247925129307"><ele>780.0</ele><time>2026-04-11T10:52:48Z</time></trkpt><trkpt lat="46.72090266112015" lon="6.391363709844287"><ele>780.0</ele><time>2026-04-11T10:52:49Z</time></trkpt><trkpt lat="46.7210620606168" lon="6.391476579976507"><ele>781.6666666666667</ele><time>2026-04-11T10:52:50Z</time></trkpt><trkpt lat="46.72122863268137" lon="6.391585936967329"><ele>783.3333333333334</ele><time>2026-04-11T10:52:51Z</time></trkpt><trkpt lat="46.721396954081996" lon="6.391694171123737"><ele>785.0</ele><time>2026-04-11T10:52:52Z</time></trkpt><trkpt lat="46.72156420202849" lon="6.391809570741819"><ele>785.0</ele><time>2026-04-11T10:52:53Z</time></trkpt><trkpt lat="46.72173145538722" lon="6.391928130833856"><ele>785.0</ele><time>2026-04-11T10:52:54Z</time></trkpt><trkpt lat="46.721906826054905" lon="6.392045564478285"><ele>785.0</ele><time>2026-04-11T10:52:55Z</time></trkpt><trkpt lat="46.72208412106526" lon="6.392163626696152"><ele>783.6666666666667</ele><time>2026-04-11T10:52:56Z</time></trkpt><trkpt lat="46.72225637494119" lon="6.392283480860959"><ele>782.3333333333333</ele><time>2026-04-11T10:52:57Z</time></trkpt><trkpt lat="46.72242536462295" lon="6.3924193745889495"><ele>781.0</ele><time>2026-04-11T10:52:58Z</time></trkpt><trkpt lat="46.72259848615336" lon="6.392571557273893"><ele>783.0</ele><time>2026-04-11T10:52:59Z</time></trkpt><trkpt lat="46.72276321548699" lon="6.3927255994905146"><ele>785.0</ele><time>2026-04-11T10:53:00Z</time></trkpt><trkpt lat="46.722930240827" lon="6.3928818555997395"><ele>787.0</ele><time>2026-04-11T10:53:01Z</time></trkpt><trkpt lat="46.72309687781198" lon="6.39303727650932"><ele>787.0</ele><time>2026-04-11T10:53:02Z</time></trkpt><trkpt lat="46.72326038557544" lon="6.393191807700745"><ele>787.0</ele><time>2026-04-11T10:53:03Z</time></trkpt><trkpt lat="46.72342587226714" lon="6.393341337406772"><ele>787.0</ele><time>2026-04-11T10:53:04Z</time></trkpt><trkpt lat="46.723590726702945" lon="6.393467598142018"><ele>790.3333333333333</ele><time>2026-04-11T10:53:05Z</time></trkpt><trkpt lat="46.723761979181155" lon="6.393573823349279"><ele>793.6666666666667</ele><time>2026-04-11T10:53:06Z</time></trkpt><trkpt lat="46.72393563554317" lon="6.393662537781644"><ele>797.0</ele><time>2026-04-11T10:53:07Z</time></trkpt><trkpt lat="46.724110172955214" lon="6.393726609160809"><ele>797.0</ele><time>2026-04-11T10:53:08Z</time></trkpt><trkpt lat="46.72428818024598" lon="6.393757551625233"><ele>797.0</ele><time>2026-04-11T10:53:09Z</time></trkpt><trkpt lat="46.72446795093572" lon="6.393762086317738"><ele>797.0</ele><time>2026-04-11T10:53:10Z</time></trkpt><trkpt lat="46.724650652491" lon="6.393746028446787"><ele>797.3333333333334</ele><time>2026-04-11T10:53:11Z</time></trkpt><trkpt lat="46.72482937882205" lon="6.393706685634255"><ele>797.6666666666667</ele><time>2026-04-11T10:53:12Z</time></trkpt><trkpt lat="46.72500486524304" lon="6.393654002086173"><ele>798.0</ele><time>2026-04-11T10:53:13Z</time></trkpt><trkpt lat="46.72516670697135" lon="6.393590761603429"><ele>796.75</ele><time>2026-04-11T10:53:14Z</time></trkpt><trkpt lat="46.72530129567347" lon="6.3935010920171385"><ele>795.5</ele><time>2026-04-11T10:53:15Z</time></trkpt><trkpt lat="46.725442553674995" lon="6.393398120369198"><ele>794.25</ele><time>2026-04-11T10:53:16Z</time></trkpt><trkpt lat="46.72557474718895" lon="6.3933197410348335"><ele>793.0</ele><time>2026-04-11T10:53:17Z</time></trkpt><trkpt lat="46.72574489925443" lon="6.39306770467586"><ele>794.6666666666666</ele><time>2026-04-11T10:53:18Z</time></trkpt><trkpt lat="46.72588272511212" lon="6.3929239261514255"><ele>796.3333333333333</ele><time>2026-04-11T10:53:19Z</time></trkpt><trkpt lat="46.72600503645369" lon="6.392806397209172"><ele>798.0</ele><time>2026-04-11T10:53:20Z</time></trkpt><trkpt lat="46.726118912024084" lon="6.392684829676325"><ele>798.0</ele><time>2026-04-11T10:53:21Z</time></trkpt><trkpt lat="46.72622234819852" lon="6.39256939173112"><ele>798.0</ele><time>2026-04-11T10:53:22Z</time></trkpt><trkpt lat="46.7263369974966" lon="6.392468628482527"><ele>798.0</ele><time>2026-04-11T10:53:23Z</time></trkpt><trkpt lat="46.72645899832222" lon="6.392370778277293"><ele>798.0</ele><time>2026-04-11T10:53:24Z</time></trkpt><trkpt lat="46.72658573898537" lon="6.392274695699103"><ele>798.0</ele><time>2026-04-11T10:53:25Z</time></trkpt><trkpt lat="46.72671946714097" lon="6.392182849809988"><ele>798.0</ele><time>2026-04-11T10:53:26Z</time></trkpt><trkpt lat="46.72685665191123" lon="6.392109977752771"><ele>798.0</ele><time>2026-04-11T10:53:27Z</time></trkpt><trkpt lat="46.72700340670351" lon="6.392040366901359"><ele>798.0</ele><time>2026-04-11T10:53:28Z</time></trkpt><trkpt lat="46.72714806066764" lon="6.391987490508438"><ele>799.75</ele><time>2026-04-11T10:53:29Z</time></trkpt><trkpt lat="46.72729544013928" lon="6.391931187983532"><ele>801.5</ele><time>2026-04-11T10:53:30Z</time></trkpt><trkpt lat="46.72742782252396" lon="6.391885146599037"><ele>803.25</ele><time>2026-04-11T10:53:31Z</time></trkpt><trkpt lat="46.72756593247191" lon="6.391835963739966"><ele>805.0</ele><time>2026-04-11T10:53:32Z</time></trkpt><trkpt lat="46.72771300450051" lon="6.3917847116413276"><ele>803.6666666666666</ele><time>2026-04-11T10:53:33Z</time></trkpt><trkpt lat="46.727865175399394" lon="6.391747496520822"><ele>802.3333333333333</ele><time>2026-04-11T10:53:34Z</time></trkpt><trkpt lat="46.72802408415458" lon="6.391698979295172"><ele>801.0</ele><time>2026-04-11T10:53:35Z</time></trkpt><trkpt lat="46.728175585474766" lon="6.391652391755734"><ele>801.0</ele><time>2026-04-11T10:53:36Z</time></trkpt><trkpt lat="46.728337232162204" lon="6.3916003705871365"><ele>801.0</ele><time>2026-04-11T10:53:37Z</time></trkpt><trkpt lat="46.728496547345024" lon="6.391553001197501"><ele>801.0</ele><time>2026-04-11T10:53:38Z</time></trkpt><trkpt lat="46.728650044282645" lon="6.391502653394676"><ele>803.0</ele><time>2026-04-11T10:53:39Z</time></trkpt><trkpt lat="46.72878655174652" lon="6.391444957006027"><ele>805.0</ele><time>2026-04-11T10:53:40Z</time></trkpt><trkpt lat="46.72892190924472" lon="6.39136906394466"><ele>807.0</ele><time>2026-04-11T10:53:41Z</time></trkpt><trkpt lat="46.72905867365471" lon="6.39127048833333"><ele>809.0</ele><time>2026-04-11T10:53:42Z</time></trkpt><trkpt lat="46.729195545796166" lon="6.3911629370516545"><ele>809.25</ele><time>2026-04-11T10:53:43Z</time></trkpt><trkpt lat="46.729323383852034" lon="6.391052235930303"><ele>809.5</ele><time>2026-04-11T10:53:44Z</time></trkpt><trkpt lat="46.729434549588824" lon="6.3909339015068225"><ele>809.75</ele><time>2026-04-11T10:53:45Z</time></trkpt><trkpt lat="46.7295334166367" lon="6.390806173985268"><ele>810.0</ele><time>2026-04-11T10:53:46Z</time></trkpt><trkpt lat="46.72962191527503" lon="6.390666249004519"><ele>809.5</ele><time>2026-04-11T10:53:47Z</time></trkpt><trkpt lat="46.72970774389906" lon="6.390515181661294"><ele>809.0</ele><time>2026-04-11T10:53:48Z</time></trkpt><trkpt lat="46.72978598318686" lon="6.390353152028799"><ele>808.5</ele><time>2026-04-11T10:53:49Z</time></trkpt><trkpt lat="46.72986048270718" lon="6.39017399144061"><ele>808.0</ele><time>2026-04-11T10:53:50Z</time></trkpt><trkpt lat="46.72992828269253" lon="6.389997458449797"><ele>808.0</ele><time>2026-04-11T10:53:51Z</time></trkpt><trkpt lat="46.72998084954126" lon="6.389829877487313"><ele>808.0</ele><time>2026-04-11T10:53:52Z</time></trkpt><trkpt lat="46.730023355717066" lon="6.38966738514272"><ele>808.0</ele><time>2026-04-11T10:53:53Z</time></trkpt><trkpt lat="46.73005713009393" lon="6.389520068620754"><ele>808.0</ele><time>2026-04-11T10:53:54Z</time></trkpt><trkpt lat="46.73009062335541" lon="6.389378274426201"><ele>807.8</ele><time>2026-04-11T10:53:55Z</time></trkpt><trkpt lat="46.73012388116191" lon="6.389248417318448"><ele>807.5999999999999</ele><time>2026-04-11T10:53:56Z</time></trkpt><trkpt lat="46.73015087652529" lon="6.389110579438719"><ele>807.4000000000001</ele><time>2026-04-11T10:53:57Z</time></trkpt><trkpt lat="46.730176176732634" lon="6.388968501560405"><ele>807.2</ele><time>2026-04-11T10:53:58Z</time></trkpt><trkpt lat="46.730203754971384" lon="6.388830433577314"><ele>807.0</ele><time>2026-04-11T10:53:59Z</time></trkpt><trkpt lat="46.73023158259334" lon="6.388715370095507"><ele>807.0</ele><time>2026-04-11T10:54:00Z</time></trkpt><trkpt lat="46.73025905492273" lon="6.388610958884919"><ele>807.0</ele><time>2026-04-11T10:54:01Z</time></trkpt><trkpt lat="46.73028478194283" lon="6.3885135843793615"><ele>807.0</ele><time>2026-04-11T10:54:02Z</time></trkpt><trkpt lat="46.730324942866076" lon="6.388422098753034"><ele>807.0</ele><time>2026-04-11T10:54:03Z</time></trkpt><trkpt lat="46.730380050213924" lon="6.3883429689453415"><ele>807.0</ele><time>2026-04-11T10:54:04Z</time></trkpt><trkpt lat="46.73044900792013" lon="6.388264423520649"><ele>807.0</ele><time>2026-04-11T10:54:05Z</time></trkpt><trkpt lat="46.73050978267614" lon="6.388177929204279"><ele>807.0</ele><time>2026-04-11T10:54:06Z</time></trkpt><trkpt lat="46.73054600144861" lon="6.388097325499316"><ele>807.0</ele><time>2026-04-11T10:54:07Z</time></trkpt><trkpt lat="46.730550822688116" lon="6.388002323298621"><ele>807.0</ele><time>2026-04-11T10:54:08Z</time></trkpt><trkpt lat="46.730535884772124" lon="6.3878827016283095"><ele>807.0</ele><time>2026-04-11T10:54:09Z</time></trkpt><trkpt lat="46.730505317489765" lon="6.387753024374532"><ele>807.0</ele><time>2026-04-11T10:54:10Z</time></trkpt><trkpt lat="46.73048610063255" lon="6.3876173250391295"><ele>807.0</ele><time>2026-04-11T10:54:11Z</time></trkpt><trkpt lat="46.7304995912606" lon="6.3874773514974725"><ele>807.2</ele><time>2026-04-11T10:54:12Z</time></trkpt><trkpt lat="46.730537132635945" lon="6.387332718513723"><ele>807.4000000000001</ele><time>2026-04-11T10:54:13Z</time></trkpt><trkpt lat="46.730587228432086" lon="6.387196622133476"><ele>807.5999999999999</ele><time>2026-04-11T10:54:14Z</time></trkpt><trkpt lat="46.73064732080207" lon="6.38706682734418"><ele>807.8</ele><time>2026-04-11T10:54:15Z</time></trkpt><trkpt lat="46.73071186690202" lon="6.386950846817839"><ele>808.0</ele><time>2026-04-11T10:54:16Z</time></trkpt><trkpt lat="46.73077276256607" lon="6.386831757006803"><ele>808.75</ele><time>2026-04-11T10:54:17Z</time></trkpt><trkpt lat="46.73083393670006" lon="6.386697856688147"><ele>809.5</ele><time>2026-04-11T10:54:18Z</time></trkpt><trkpt lat="46.73090046393558" lon="6.386559390517332"><ele>810.25</ele><time>2026-04-11T10:54:19Z</time></trkpt><trkpt lat="46.73097166078807" lon="6.386422787347209"><ele>811.0</ele><time>2026-04-11T10:54:20Z</time></trkpt><trkpt lat="46.731037529467486" lon="6.386283958914481"><ele>811.3333333333333</ele><time>2026-04-11T10:54:21Z</time></trkpt><trkpt lat="46.73109122159378" lon="6.3861570828429075"><ele>811.6666666666666</ele><time>2026-04-11T10:54:22Z</time></trkpt><trkpt lat="46.73114089687261" lon="6.386043877158876"><ele>812.0</ele><time>2026-04-11T10:54:23Z</time></trkpt><trkpt lat="46.731193386195116" lon="6.385934381711494"><ele>812.3333333333333</ele><time>2026-04-11T10:54:24Z</time></trkpt><trkpt lat="46.73124096271357" lon="6.385832865335138"><ele>812.6666666666666</ele><time>2026-04-11T10:54:25Z</time></trkpt><trkpt lat="46.73127844910733" lon="6.385744895831"><ele>813.0</ele><time>2026-04-11T10:54:26Z</time></trkpt><trkpt lat="46.73136907348142" lon="6.385625242495034"><ele>813.4</ele><time>2026-04-11T10:54:28Z</time></trkpt><trkpt lat="46.73142272112749" lon="6.385458950293006"><ele>813.8</ele><time>2026-04-11T10:54:30Z</time></trkpt><trkpt lat="46.7314329743378" lon="6.385334674212776"><ele>814.2</ele><time>2026-04-11T10:54:31Z</time></trkpt><trkpt lat="46.73144000052722" lon="6.385182909199054"><ele>814.6</ele><time>2026-04-11T10:54:32Z</time></trkpt><trkpt lat="46.73145257049116" lon="6.385029068313334"><ele>815.0</ele><time>2026-04-11T10:54:33Z</time></trkpt><trkpt lat="46.73148414888119" lon="6.384884821021971"><ele>815.0000000000001</ele><time>2026-04-11T10:54:34Z</time></trkpt><trkpt lat="46.73151615062817" lon="6.3847631934598255"><ele>815.0</ele><time>2026-04-11T10:54:35Z</time></trkpt><trkpt lat="46.73155242753878" lon="6.384650793603452"><ele>815.0</ele><time>2026-04-11T10:54:36Z</time></trkpt><trkpt lat="46.73159360393667" lon="6.384540576658959"><ele>815.0</ele><time>2026-04-11T10:54:37Z</time></trkpt><trkpt lat="46.73163008094577" lon="6.384446512633831"><ele>815.0000000000001</ele><time>2026-04-11T10:54:38Z</time></trkpt><trkpt lat="46.73166475198362" lon="6.384361266964908"><ele>815.0</ele><time>2026-04-11T10:54:39Z</time></trkpt><trkpt lat="46.73173141936553" lon="6.384228638156306"><ele>815.4</ele><time>2026-04-11T10:54:41Z</time></trkpt><trkpt lat="46.73181066089048" lon="6.384129185144333"><ele>815.8</ele><time>2026-04-11T10:54:43Z</time></trkpt><trkpt lat="46.731887901019604" lon="6.384051320826932"><ele>816.2</ele><time>2026-04-11T10:54:45Z</time></trkpt><trkpt lat="46.73199421938153" lon="6.383938774055987"><ele>816.6</ele><time>2026-04-11T10:54:47Z</time></trkpt><trkpt lat="46.732079697685585" lon="6.383837189997538"><ele>817.0</ele><time>2026-04-11T10:54:48Z</time></trkpt><trkpt lat="46.732172151288644" lon="6.383745303008611"><ele>819.75</ele><time>2026-04-11T10:54:49Z</time></trkpt><trkpt lat="46.73227072618595" lon="6.38364453291531"><ele>822.5</ele><time>2026-04-11T10:54:50Z</time></trkpt><trkpt lat="46.732352805522886" lon="6.383532367848832"><ele>825.25</ele><time>2026-04-11T10:54:51Z</time></trkpt><trkpt lat="46.73243349738893" lon="6.3834066291860925"><ele>828.0</ele><time>2026-04-11T10:54:52Z</time></trkpt><trkpt lat="46.732509692911044" lon="6.3832603755866035"><ele>828.0</ele><time>2026-04-11T10:54:53Z</time></trkpt><trkpt lat="46.73256730239093" lon="6.3831009496263365"><ele>828.0</ele><time>2026-04-11T10:54:54Z</time></trkpt><trkpt lat="46.73261291526435" lon="6.382926753654483"><ele>828.0</ele><time>2026-04-11T10:54:55Z</time></trkpt><trkpt lat="46.73264791819827" lon="6.382765537131587"><ele>828.0</ele><time>2026-04-11T10:54:56Z</time></trkpt><trkpt lat="46.732687058198856" lon="6.382587228090544"><ele>827.75</ele><time>2026-04-11T10:54:57Z</time></trkpt><trkpt lat="46.73274512789834" lon="6.382412475105474"><ele>827.5</ele><time>2026-04-11T10:54:58Z</time></trkpt><trkpt lat="46.732820543110165" lon="6.3822396452027155"><ele>827.25</ele><time>2026-04-11T10:54:59Z</time></trkpt><trkpt lat="46.7329099382307" lon="6.382086200848611"><ele>827.0</ele><time>2026-04-11T10:55:00Z</time></trkpt><trkpt lat="46.73302139000304" lon="6.381950062974333"><ele>829.0</ele><time>2026-04-11T10:55:01Z</time></trkpt><trkpt lat="46.73315531490941" lon="6.381838852582066"><ele>831.0</ele><time>2026-04-11T10:55:02Z</time></trkpt><trkpt lat="46.7332897482067" lon="6.381760647363068"><ele>833.0</ele><time>2026-04-11T10:55:03Z</time></trkpt><trkpt lat="46.73340898286802" lon="6.381682565694326"><ele>835.0</ele><time>2026-04-11T10:55:04Z</time></trkpt><trkpt lat="46.733518938795775" lon="6.381563391477091"><ele>834.0</ele><time>2026-04-11T10:55:05Z</time></trkpt><trkpt lat="46.733620265794784" lon="6.381404891970595"><ele>833.0</ele><time>2026-04-11T10:55:06Z</time></trkpt><trkpt lat="46.73370746809385" lon="6.381212817098722"><ele>832.0</ele><time>2026-04-11T10:55:07Z</time></trkpt><trkpt lat="46.73378355247326" lon="6.380998579538894"><ele>832.0</ele><time>2026-04-11T10:55:08Z</time></trkpt><trkpt lat="46.73384925380206" lon="6.380769375743619"><ele>832.0</ele><time>2026-04-11T10:55:09Z</time></trkpt><trkpt lat="46.7339195967537" lon="6.380539988362201"><ele>832.0</ele><time>2026-04-11T10:55:10Z</time></trkpt><trkpt lat="46.734008716781034" lon="6.380319113295549"><ele>834.3333333333333</ele><time>2026-04-11T10:55:11Z</time></trkpt><trkpt lat="46.734114116013046" lon="6.380114798988964"><ele>836.6666666666667</ele><time>2026-04-11T10:55:12Z</time></trkpt><trkpt lat="46.73421542236614" lon="6.379935568269381"><ele>839.0</ele><time>2026-04-11T10:55:13Z</time></trkpt><trkpt lat="46.7343052424589" lon="6.379751582540296"><ele>837.0</ele><time>2026-04-11T10:55:14Z</time></trkpt><trkpt lat="46.73439456521912" lon="6.37954905705958"><ele>835.0</ele><time>2026-04-11T10:55:15Z</time></trkpt><trkpt lat="46.73447665052345" lon="6.37933968754848"><ele>833.0</ele><time>2026-04-11T10:55:16Z</time></trkpt><trkpt lat="46.734556634393485" lon="6.379144108618775"><ele>833.0</ele><time>2026-04-11T10:55:17Z</time></trkpt><trkpt lat="46.734650884924164" lon="6.378970159937743"><ele>833.0</ele><time>2026-04-11T10:55:18Z</time></trkpt><trkpt lat="46.73476709863178" lon="6.378808723900374"><ele>833.0</ele><time>2026-04-11T10:55:19Z</time></trkpt><trkpt lat="46.73490631394302" lon="6.378670119938038"><ele>839.3333333333334</ele><time>2026-04-11T10:55:20Z</time></trkpt><trkpt lat="46.73506699848188" lon="6.378558433182613"><ele>845.6666666666667</ele><time>2026-04-11T10:55:21Z</time></trkpt><trkpt lat="46.735240219893804" lon="6.378483479533174"><ele>852.0</ele><time>2026-04-11T10:55:22Z</time></trkpt><trkpt lat="46.735423763589075" lon="6.378434537679861"><ele>852.0</ele><time>2026-04-11T10:55:23Z</time></trkpt><trkpt lat="46.735590378059" lon="6.378403418888248"><ele>852.0</ele><time>2026-04-11T10:55:24Z</time></trkpt><trkpt lat="46.73574375347952" lon="6.3783797359512056"><ele>852.0</ele><time>2026-04-11T10:55:25Z</time></trkpt><trkpt lat="46.73588498986955" lon="6.3783599875039565"><ele>852.0</ele><time>2026-04-11T10:55:26Z</time></trkpt><trkpt lat="46.73600648242848" lon="6.378349056453592"><ele>852.0</ele><time>2026-04-11T10:55:27Z</time></trkpt><trkpt lat="46.73610140556891" lon="6.378338160694559"><ele>840.0</ele><time>2026-04-11T10:55:28Z</time></trkpt><trkpt lat="46.73616817428876" lon="6.37831593135582"><ele>840.0</ele><time>2026-04-11T10:55:29Z</time></trkpt><trkpt lat="46.736236920784926" lon="6.378282258569766"><ele>840.0</ele><time>2026-04-11T10:55:31Z</time></trkpt></trkseg></trk></gpx>